[[{"header":{"parameterUnit":"m.s-1","parameterCategory":1,"la1":30.6,"la2":29.2853,"lo1":-89.7004,"lo2":-87.6739,"dy":0.0162,"dx":0.0183,"nx":112,"ny":82,"refTime":"2023-11-13T18:00:00:Z","depth":0,"parameterNumber":2,"parameterNumberName":"U-component_of_WINDS"},"data":[0.0,0.0,0.0,0.0,0.0,0.0,0.0,0.0,0.0,0.0,0.0,0.0,0.0,0.0,0.0,0.0,0.0,0.0,0.0,0.0,0.0,0.0,0.0,0.0,0.0,0.0,0.0,0.0,0.0,0.0,0.0,0.0,0.0,0.0,0.0,0.0,0.0,0.0,0.0,0.0,0.0,0.0,0.0,0.0,0.0,0.0,0.0,0.0,0.0,0.0,0.0,0.0,0.0,0.0,0.0,0.0,0.0,0.0,0.0,0.0,0.0,0.0,0.0,0.0,0.0,0.0,0.0,0.0,0.0,0.0,0.0,0.0,0.0,0.0,0.0,0.0,0.0,0.0,0.0,0.0,0.0,0.0,0.0,0.0,0.0,0.0,0.0,0.0,0.0,0.0,4.2132,4.335,4.6453,4.7217,4.4366,4.414,4.1755,3.5944,0.0,0.0,0.0,0.0,0.0,0.0,0.0,0.0,0.0,0.0,0.0,0.0,0.0,0.0,0.0,0.0,0.0,0.0,0.0,0.0,0.0,0.0,0.0,0.0,0.0,0.0,0.0,0.0,0.0,0.0,0.0,0.0,0.0,0.0,0.0,0.0,0.0,0.0,0.0,0.0,0.0,0.0,0.0,0.0,0.0,0.0,0.0,0.0,0.0,0.0,0.0,0.0,0.0,0.0,0.0,0.0,0.0,0.0,0.0,0.0,0.0,0.0,0.0,0.0,0.0,0.0,0.0,0.0,0.0,0.0,0.0,0.0,0.0,0.0,0.0,0.0,0.0,0.0,0.0,0.0,0.0,0.0,0.0,0.0,0.0,0.0,0.0,0.0,0.0,0.0,0.0,0.0,0.0,0.0,0.0,0.0,0.0,0.0,0.0,0.0,0.0,0.0,0.0,0.0,4.3299,4.7099,4.8039,4.7217,4.4366,4.443,4.2037,3.5962,0.0,0.0,0.0,0.0,0.0,0.0,0.0,0.0,0.0,0.0,0.0,0.0,0.0,0.0,0.0,0.0,0.0,0.0,0.0,0.0,0.0,0.0,0.0,0.0,0.0,0.0,0.0,0.0,0.0,0.0,0.0,0.0,0.0,0.0,0.0,0.0,0.0,0.0,0.0,0.0,0.0,0.0,0.0,0.0,0.0,0.0,0.0,0.0,0.0,0.0,0.0,0.0,0.0,0.0,0.0,0.0,0.0,0.0,0.0,0.0,0.0,0.0,0.0,0.0,0.0,0.0,0.0,0.0,0.0,0.0,0.0,0.0,0.0,0.0,0.0,0.0,0.0,0.0,0.0,0.0,0.0,0.0,0.0,0.0,0.0,0.0,0.0,0.0,0.0,0.0,0.0,0.0,0.0,0.0,0.0,0.0,0.0,0.0,0.0,0.0,0.0,0.0,0.0,4.1414,4.3861,4.7957,4.84,4.7217,4.4366,4.4452,4.2174,3.6255,3.6548,0.0,0.0,0.0,0.0,0.0,0.0,0.0,0.0,0.0,0.0,0.0,0.0,0.0,0.0,0.0,0.0,0.0,0.0,0.0,0.0,0.0,0.0,0.0,0.0,0.0,0.0,0.0,0.0,0.0,0.0,0.0,0.0,0.0,0.0,0.0,0.0,0.0,0.0,0.0,0.0,0.0,0.0,0.0,0.0,0.0,0.0,0.0,0.0,0.0,0.0,0.0,0.0,0.0,0.0,0.0,0.0,0.0,0.0,0.0,0.0,0.0,0.0,0.0,0.0,0.0,0.0,0.0,0.0,0.0,0.0,0.0,0.0,0.0,0.0,0.0,0.0,0.0,0.0,0.0,0.0,0.0,0.0,0.0,0.0,0.0,0.0,0.0,0.0,0.0,0.0,0.0,0.0,0.0,0.0,0.0,0.0,0.0,0.0,0.0,0.0,0.0,0.0,4.3228,4.5102,4.8062,4.84,4.7209,4.42,4.443,4.2172,3.6234,3.6679,0.0,0.0,0.0,0.0,0.0,0.0,0.0,0.0,0.0,0.0,0.0,0.0,0.0,0.0,0.0,0.0,0.0,0.0,0.0,0.0,0.0,0.0,0.0,0.0,0.0,0.0,0.0,0.0,0.0,0.0,0.0,0.0,0.0,0.0,0.0,0.0,0.0,0.0,0.0,0.0,0.0,0.0,0.0,0.0,0.0,0.0,0.0,0.0,0.0,0.0,0.0,0.0,0.0,0.0,0.0,0.0,0.0,0.0,0.0,0.0,0.0,0.0,0.0,0.0,0.0,0.0,0.0,0.0,0.0,0.0,0.0,0.0,0.0,0.0,0.0,0.0,0.0,0.0,0.0,0.0,0.0,0.0,0.0,0.0,0.0,0.0,0.0,0.0,0.0,0.0,0.0,0.0,0.0,0.0,0.0,0.0,0.0,0.0,0.0,0.0,0.0,0.0,4.5108,4.8085,4.8377,4.84,4.7075,4.3818,4.4244,4.1975,3.5482,3.642,0.0,0.0,0.0,0.0,0.0,0.0,0.0,0.0,0.0,0.0,0.0,0.0,0.0,0.0,0.0,0.0,0.0,0.0,0.0,0.0,0.0,0.0,0.0,0.0,0.0,0.0,0.0,0.0,0.0,0.0,0.0,0.0,0.0,0.0,0.0,0.0,0.0,0.0,0.0,0.0,0.0,0.0,0.0,0.0,0.0,0.0,0.0,0.0,0.0,0.0,0.0,0.0,0.0,0.0,0.0,0.0,0.0,0.0,0.0,0.0,0.0,0.0,0.0,0.0,0.0,0.0,0.0,0.0,0.0,0.0,0.0,0.0,0.0,0.0,0.0,0.0,0.0,0.0,0.0,0.0,0.0,0.0,0.0,0.0,0.0,0.0,0.0,0.0,0.0,0.0,0.0,0.0,0.0,0.0,0.0,0.0,0.0,0.0,0.0,0.0,0.0,0.0,4.4302,4.6972,0.0,4.7893,4.677,4.5583,4.4304,4.1873,3.7851,0.0,0.0,0.0,0.0,0.0,0.0,0.0,0.0,0.0,0.0,0.0,0.0,0.0,0.0,0.0,0.0,0.0,0.0,0.0,0.0,0.0,0.0,0.0,0.0,0.0,0.0,0.0,0.0,0.0,0.0,0.0,0.0,0.0,0.0,0.0,0.0,0.0,0.0,0.0,0.0,0.0,0.0,0.0,0.0,0.0,0.0,0.0,0.0,0.0,0.0,0.0,0.0,0.0,0.0,0.0,0.0,0.0,0.0,0.0,0.0,0.0,0.0,0.0,0.0,0.0,0.0,0.0,0.0,0.0,0.0,0.0,0.0,0.0,0.0,0.0,0.0,0.0,0.0,0.0,0.0,0.0,0.0,0.0,0.0,0.0,0.0,0.0,0.0,0.0,0.0,0.0,0.0,0.0,0.0,0.0,0.0,0.0,0.0,0.0,0.0,0.0,0.0,4.0688,4.3777,4.6298,0.0,4.6686,4.5809,4.5349,4.3819,4.1523,3.8266,0.0,0.0,0.0,0.0,0.0,0.0,0.0,0.0,0.0,0.0,0.0,0.0,0.0,0.0,0.0,0.0,0.0,0.0,0.0,0.0,0.0,0.0,0.0,0.0,0.0,0.0,0.0,0.0,0.0,0.0,0.0,0.0,0.0,0.0,0.0,0.0,0.0,0.0,0.0,0.0,0.0,0.0,0.0,0.0,0.0,0.0,0.0,0.0,0.0,0.0,0.0,0.0,0.0,0.0,0.0,0.0,0.0,0.0,0.0,0.0,0.0,0.0,0.0,0.0,0.0,0.0,0.0,0.0,0.0,0.0,0.0,0.0,0.0,0.0,0.0,0.0,0.0,0.0,0.0,0.0,0.0,0.0,0.0,0.0,0.0,0.0,0.0,0.0,0.0,0.0,0.0,0.0,0.0,0.0,0.0,0.0,0.0,0.0,0.0,0.0,0.0,0.0,3.9263,4.3902,4.6609,4.4917,4.4681,4.4052,4.2483,4.2652,4.0814,0.0,0.0,0.0,0.0,0.0,0.0,0.0,0.0,0.0,0.0,0.0,0.0,0.0,0.0,0.0,0.0,0.0,0.0,0.0,0.0,0.0,0.0,0.0,0.0,0.0,0.0,0.0,0.0,0.0,0.0,0.0,0.0,0.0,0.0,0.0,0.0,0.0,0.0,0.0,0.0,0.0,0.0,0.0,0.0,0.0,0.0,0.0,0.0,0.0,0.0,0.0,0.0,0.0,0.0,0.0,0.0,0.0,0.0,0.0,0.0,0.0,0.0,0.0,0.0,0.0,0.0,0.0,0.0,0.0,0.0,0.0,0.0,0.0,0.0,0.0,0.0,0.0,0.0,0.0,0.0,0.0,0.0,0.0,0.0,0.0,0.0,0.0,0.0,0.0,0.0,0.0,0.0,0.0,0.0,0.0,0.0,0.0,0.0,0.0,0.0,0.0,0.0,0.0,3.9654,4.3359,4.5853,4.5689,4.4603,4.4058,4.454,4.2773,4.0674,3.8353,0.0,0.0,0.0,0.0,0.0,0.0,0.0,0.0,0.0,0.0,0.0,0.0,0.0,0.0,0.0,0.0,0.0,0.0,0.0,0.0,0.0,0.0,0.0,0.0,0.0,0.0,0.0,0.0,0.0,0.0,0.0,0.0,0.0,0.0,0.0,0.0,0.0,0.0,0.0,0.0,0.0,0.0,0.0,0.0,0.0,0.0,0.0,0.0,0.0,0.0,0.0,0.0,0.0,0.0,0.0,0.0,0.0,0.0,0.0,0.0,0.0,0.0,0.0,0.0,0.0,0.0,0.0,0.0,0.0,0.0,0.0,0.0,0.0,0.0,0.0,0.0,0.0,0.0,0.0,0.0,0.0,0.0,0.0,0.0,0.0,0.0,0.0,0.0,0.0,0.0,0.0,0.0,0.0,0.0,0.0,0.0,0.0,0.0,0.0,0.0,0.0,0.0,3.9312,4.2744,4.5002,4.464,4.3636,4.3372,4.4161,4.2579,4.0923,3.9375,0.0,0.0,0.0,0.0,0.0,0.0,0.0,0.0,0.0,0.0,0.0,0.0,0.0,0.0,0.0,0.0,0.0,0.0,0.0,0.0,0.0,0.0,0.0,0.0,0.0,0.0,0.0,0.0,0.0,0.0,0.0,0.0,0.0,0.0,0.0,0.0,0.0,0.0,0.0,0.0,0.0,0.0,0.0,0.0,0.0,0.0,0.0,0.0,0.0,0.0,0.0,0.0,0.0,0.0,0.0,0.0,0.0,0.0,0.0,0.0,0.0,0.0,0.0,0.0,0.0,0.0,0.0,0.0,0.0,0.0,0.0,0.0,0.0,0.0,0.0,0.0,0.0,0.0,0.0,0.0,0.0,0.0,0.0,0.0,0.0,0.0,0.0,0.0,0.0,0.0,0.0,0.0,0.0,0.0,0.0,0.0,0.0,0.0,0.0,0.0,0.0,0.0,3.8481,4.2078,4.4061,4.2543,4.2369,4.2351,4.2289,4.2314,4.1451,3.9314,0.0,0.0,0.0,0.0,0.0,0.0,0.0,0.0,0.0,0.0,0.0,0.0,0.0,0.0,0.0,0.0,0.0,0.0,0.0,0.0,0.0,0.0,0.0,0.0,0.0,0.0,0.0,0.0,0.0,0.0,0.0,0.0,0.0,0.0,0.0,0.0,0.0,0.0,0.0,0.0,0.0,0.0,0.0,0.0,0.0,0.0,0.0,0.0,0.0,0.0,0.0,0.0,0.0,0.0,0.0,0.0,0.0,0.0,0.0,0.0,4.9941,0.0,0.0,0.0,0.0,0.0,0.0,0.0,0.0,0.0,0.0,0.0,0.0,0.0,0.0,0.0,0.0,0.0,0.0,0.0,0.0,0.0,0.0,0.0,0.0,0.0,0.0,0.0,0.0,0.0,0.0,0.0,0.0,0.0,0.0,0.0,0.0,0.0,0.0,0.0,0.0,0.0,3.8432,4.1055,4.2815,4.2798,4.2791,4.2663,4.2351,4.2617,4.1814,3.9355,3.9746,0.0,0.0,0.0,0.0,0.0,0.0,0.0,0.0,0.0,0.0,0.0,0.0,0.0,0.0,0.0,0.0,0.0,0.0,0.0,0.0,0.0,0.0,0.0,0.0,0.0,0.0,0.0,0.0,0.0,0.0,0.0,0.0,0.0,0.0,0.0,0.0,0.0,0.0,0.0,0.0,0.0,0.0,0.0,0.0,0.0,0.0,0.0,0.0,0.0,0.0,0.0,0.0,0.0,0.0,0.0,0.0,0.0,0.0,0.0,0.0,5.0921,0.0,0.0,0.0,0.0,0.0,0.0,0.0,0.0,0.0,0.0,0.0,0.0,0.0,0.0,0.0,0.0,0.0,0.0,0.0,0.0,0.0,0.0,0.0,0.0,0.0,0.0,0.0,0.0,0.0,0.0,0.0,0.0,0.0,0.0,0.0,0.0,0.0,0.0,0.0,0.0,3.8728,4.106,4.2755,4.3177,4.3169,4.3166,4.3227,4.3253,4.2716,4.1397,4.0954,0.0,0.0,0.0,0.0,0.0,0.0,0.0,0.0,0.0,0.0,0.0,0.0,0.0,0.0,0.0,0.0,0.0,0.0,0.0,0.0,0.0,0.0,0.0,0.0,0.0,0.0,0.0,0.0,0.0,0.0,0.0,0.0,0.0,0.0,0.0,0.0,0.0,0.0,0.0,0.0,0.0,0.0,0.0,0.0,0.0,0.0,0.0,0.0,0.0,0.0,0.0,0.0,0.0,5.1781,5.2391,5.3039,5.2516,5.3281,5.4963,5.4165,5.3483,5.2913,0.0,0.0,0.0,0.0,0.0,0.0,0.0,0.0,0.0,0.0,0.0,0.0,0.0,0.0,0.0,0.0,0.0,0.0,0.0,0.0,0.0,0.0,0.0,0.0,0.0,4.3995,4.4369,0.0,0.0,0.0,0.0,0.0,0.0,0.0,0.0,0.0,0.0,0.0,0.0,3.9259,4.1445,4.3067,4.3444,4.3499,4.3678,4.406,4.3811,4.3582,4.349,4.2207,4.0952,0.0,0.0,0.0,0.0,0.0,0.0,0.0,0.0,0.0,0.0,0.0,0.0,0.0,0.0,0.0,0.0,0.0,0.0,0.0,0.0,0.0,0.0,0.0,0.0,0.0,0.0,0.0,0.0,0.0,0.0,0.0,0.0,4.8592,4.9188,0.0,0.0,0.0,0.0,0.0,0.0,0.0,0.0,0.0,0.0,0.0,0.0,0.0,5.0947,5.1311,5.2157,5.2932,5.3555,5.4445,5.5128,5.5719,5.6082,5.6408,5.6709,5.7187,0.0,5.3354,5.3649,0.0,0.0,0.0,0.0,0.0,0.0,0.0,0.0,0.0,0.0,0.0,0.0,0.0,0.0,0.0,0.0,0.0,0.0,0.0,0.0,0.0,0.0,5.0507,4.737,4.6853,4.651,0.0,4.1996,3.9887,3.8673,3.8362,0.0,0.0,0.0,0.0,0.0,0.0,0.0,4.0143,4.1855,4.3067,4.3444,4.3499,4.3544,4.3589,4.39,4.3804,4.3026,4.3136,4.2168,3.9723,3.994,0.0,0.0,0.0,0.0,0.0,0.0,0.0,0.0,0.0,0.0,0.0,0.0,0.0,0.0,0.0,0.0,0.0,0.0,0.0,0.0,0.0,0.0,0.0,0.0,0.0,0.0,0.0,0.0,0.0,4.7989,4.9019,4.954,4.9003,4.8421,0.0,0.0,0.0,0.0,0.0,0.0,0.0,0.0,0.0,5.1647,5.1647,5.2456,5.4173,5.4566,5.5056,5.5688,5.612,5.662,5.7173,5.7424,5.7524,5.7537,5.8488,5.7402,5.4892,5.4274,5.2914,5.1119,0.0,0.0,0.0,0.0,4.8837,4.8779,4.9117,4.891,0.0,4.7263,0.0,0.0,0.0,0.0,0.0,0.0,0.0,0.0,0.0,0.0,0.0,4.5897,4.5743,4.5686,4.4884,4.3562,4.2197,0.0,4.0657,3.9685,3.7576,0.0,0.0,0.0,0.0,3.9758,4.0987,4.2204,4.3067,4.3444,4.3499,4.3633,4.3882,4.3856,4.3763,4.3623,4.2835,4.1828,4.065,3.964,3.8193,0.0,0.0,0.0,0.0,0.0,0.0,0.0,0.0,0.0,0.0,0.0,0.0,0.0,0.0,0.0,0.0,0.0,0.0,0.0,0.0,0.0,0.0,0.0,0.0,0.0,0.0,0.0,0.0,4.886,4.9554,4.9706,4.9626,4.9227,0.0,0.0,0.0,0.0,0.0,0.0,5.0641,5.0228,5.1101,5.3505,5.3102,5.3934,5.6211,5.6162,5.6512,5.7287,5.7287,5.7713,5.8504,5.8125,5.8074,5.8211,5.8699,5.7879,5.6236,5.5121,5.3774,5.2257,5.0878,5.0068,4.9742,5.0008,5.0206,5.0357,5.0476,5.0512,5.0307,4.9078,0.0,4.5574,4.5427,0.0,0.0,0.0,0.0,4.3491,4.5255,4.5379,4.4864,4.4357,4.4453,4.4719,4.4719,4.4424,4.3936,0.0,4.2516,4.1299,3.9153,0.0,0.0,0.0,0.0,4.0712,4.1849,4.2644,4.3151,4.3463,4.3499,4.3633,4.3971,4.3722,4.3544,4.3615,4.2326,4.139,4.1034,3.9583,3.8304,3.7316,0.0,0.0,0.0,0.0,0.0,0.0,0.0,0.0,0.0,0.0,0.0,0.0,0.0,0.0,0.0,0.0,0.0,0.0,0.0,0.0,0.0,0.0,0.0,0.0,0.0,0.0,0.0,0.0,0.0,5.0259,5.0445,0.0,0.0,0.0,0.0,5.1155,5.1396,5.236,5.4225,5.3957,5.4445,5.597,5.5629,5.5719,5.6402,5.6028,5.6571,5.8017,5.8017,5.8796,6.0147,5.8816,5.8512,5.8989,5.7758,5.7068,5.6845,5.6852,5.547,5.338,5.2751,5.2472,5.2371,5.2014,5.2163,5.2558,5.2691,5.2756,5.2546,5.1255,4.7605,4.4327,4.7576,4.5279,0.0,0.0,4.8741,4.7145,4.8899,4.8378,4.6973,4.5121,4.4701,4.4719,4.4719,4.4429,4.4034,0.0,4.3158,4.2443,4.1176,0.0,4.0992,4.0937,4.1323,4.1886,4.2736,4.3188,4.3481,4.3499,4.3499,4.3499,4.3544,4.3499,4.3079,4.2164,4.2012,4.1363,3.9925,4.0301,3.9781,3.8177,3.8698,0.0,0.0,0.0,0.0,0.0,0.0,0.0,0.0,0.0,0.0,0.0,0.0,0.0,0.0,0.0,0.0,0.0,0.0,0.0,0.0,0.0,0.0,0.0,0.0,0.0,0.0,0.0,0.0,5.1893,5.2238,0.0,5.2898,5.3163,5.3473,5.3909,5.433,5.4949,5.5764,5.5704,5.634,5.7961,5.7858,5.8205,5.9036,5.8591,5.8788,5.9657,5.8784,5.894,5.9924,5.8886,5.8508,5.8677,5.8255,5.771,5.7112,5.717,5.6294,5.4767,5.4083,5.3778,5.3736,5.3577,5.3652,5.375,5.3492,5.2596,5.1404,5.0325,4.8597,4.7225,4.8737,4.7392,4.5861,4.8477,4.7067,4.5176,4.6959,4.6166,4.4782,4.4083,4.3921,4.3921,4.3921,4.3836,4.3722,4.3544,4.3638,4.3452,4.2469,4.2709,4.27,4.1653,4.2252,4.2949,4.3224,4.3408,4.3499,4.3499,4.3499,4.3499,4.3499,4.3499,4.3499,4.3436,4.2254,4.1471,4.1228,4.0203,3.9306,3.8463,3.8974,3.8101,0.0,0.0,0.0,0.0,0.0,0.0,0.0,0.0,0.0,0.0,0.0,0.0,0.0,0.0,0.0,0.0,0.0,0.0,0.0,0.0,0.0,0.0,0.0,0.0,0.0,5.117,5.2208,5.2639,5.3587,5.4376,5.4739,5.5345,5.589,5.6458,5.6587,5.6812,5.7305,5.7062,5.7675,5.9286,5.9017,5.9354,6.0359,5.9747,5.9665,6.0115,5.9213,5.9171,5.9869,5.8814,5.833,5.833,5.8065,5.7608,5.7043,5.7084,5.6364,5.5233,5.4995,5.4921,5.4898,5.4737,5.4348,5.3773,5.2699,5.1286,4.9902,4.9218,4.8298,4.7677,4.8672,4.7548,4.6236,4.7995,4.6059,4.3945,4.5923,4.5053,4.3719,4.3866,4.3884,4.3884,4.3884,4.4019,4.4154,4.4154,4.4041,4.3804,4.3266,4.3575,4.3526,4.2487,4.2982,4.3489,4.3475,4.3497,4.3499,4.3499,4.3499,4.3589,4.3704,4.3331,4.3188,4.3444,4.1853,4.1029,4.1273,3.9965,3.9098,3.8892,3.9087,3.824,3.638,0.0,0.0,0.0,0.0,0.0,0.0,0.0,0.0,0.0,0.0,0.0,0.0,0.0,0.0,0.0,0.0,0.0,0.0,0.0,0.0,0.0,0.0,0.0,5.1028,5.2287,5.3105,5.2514,5.4509,5.5786,5.5432,5.6567,5.7721,5.8715,5.8048,5.8011,5.9051,5.8338,5.8554,6.0029,5.9207,5.9195,6.0165,5.9252,5.9016,5.9483,5.9441,5.9629,6.0045,5.8661,5.8047,5.8005,5.7094,5.6712,5.6712,5.6646,5.5824,5.4632,5.5493,5.5828,5.5698,5.5283,5.4218,5.2693,5.0366,4.8929,4.8145,4.8145,4.6675,4.5314,4.7515,4.5735,4.3846,4.7759,4.6313,4.4056,4.6176,4.5444,4.4242,4.4627,4.4719,4.4719,4.4719,4.5085,4.5386,4.5386,4.4366,4.3536,4.3581,4.3536,4.3541,4.3514,4.3545,0.0,4.3539,4.3527,4.3499,4.3499,4.3481,4.3659,4.4167,4.3029,4.2225,4.2093,4.0877,4.0097,3.9992,3.9597,3.947,3.9532,3.9111,3.8734,3.8297,0.0,0.0,0.0,0.0,0.0,0.0,0.0,0.0,0.0,0.0,0.0,0.0,0.0,0.0,0.0,0.0,0.0,0.0,0.0,0.0,0.0,5.2167,5.3193,5.3493,5.5054,5.6514,5.7383,5.7937,5.8766,5.9995,5.9915,6.0147,6.1162,6.14,6.1432,6.1413,6.1844,6.216,6.2321,6.2041,6.1895,6.1844,6.1272,6.0972,6.1074,6.0092,5.9862,6.0202,5.9174,5.8759,5.8669,5.7714,5.7263,5.7131,5.5365,5.4345,5.4041,5.4255,5.3757,5.2852,5.268,5.218,5.1219,4.925,4.7983,4.7205,4.7117,4.6516,4.5937,4.6868,4.6435,4.5693,4.5846,4.5412,4.4952,4.5226,4.5173,4.4982,4.4728,4.4719,4.4719,4.4719,4.481,4.4902,4.4902,4.4627,4.4479,4.4842,4.4828,4.4701,4.4414,4.436,0.0,4.3972,4.3699,4.3499,4.3499,4.3224,4.3501,4.454,4.3125,4.2687,4.3938,4.2111,4.1099,4.1398,4.039,3.9837,3.9881,3.9248,3.8871,0.0,0.0,0.0,0.0,0.0,0.0,0.0,0.0,0.0,0.0,0.0,0.0,0.0,0.0,0.0,0.0,0.0,0.0,0.0,0.0,0.0,0.0,5.3934,5.541,5.6613,5.7467,5.8387,5.9601,5.9876,6.0711,6.2679,6.2599,6.267,6.3205,6.338,6.3321,6.3066,6.264,6.2804,6.3589,6.2816,6.2546,6.2917,6.2449,6.2058,6.1816,6.1233,6.0865,6.0597,5.9067,5.8233,0.0,5.6287,5.5555,5.5422,5.3767,5.2618,0.0,0.0,0.0,0.0,0.0,5.0181,4.9527,4.7617,4.6512,4.5896,4.587,4.5699,4.5573,4.5794,4.587,4.5702,4.492,4.4902,4.5076,4.4985,4.516,4.5335,4.5242,4.5187,4.5187,4.5187,4.5187,4.5187,4.5187,4.5187,0.0,4.5538,4.528,4.4985,4.4745,4.47,4.4618,4.4394,4.4329,4.4292,4.4292,4.3909,4.3962,4.4726,4.2978,0.0,0.0,0.0,4.0927,4.1194,4.0317,0.0,0.0,0.0,3.9299,3.9607,0.0,0.0,0.0,3.7708,3.7691,0.0,0.0,0.0,0.0,0.0,0.0,0.0,0.0,0.0,0.0,0.0,0.0,0.0,0.0,0.0,0.0,5.6037,5.8099,5.9544,5.9528,5.956,6.0285,6.0863,6.197,6.3978,6.4532,6.4776,6.4898,6.4626,6.4397,6.4377,0.0,0.0,0.0,0.0,6.2295,6.3686,6.3197,6.2703,6.2245,6.2705,6.2243,6.0958,5.8656,5.7243,5.6463,5.412,5.3095,5.3054,5.2241,5.0815,4.9266,5.0555,5.1055,5.0828,4.9111,4.8233,4.7694,4.5955,0.0,0.0,4.4893,4.4893,4.4893,4.4893,4.4893,4.4893,4.4847,4.4847,4.4985,4.5278,4.5416,4.5508,4.581,4.5883,4.5883,4.5883,4.5883,4.5883,4.5883,4.5883,4.5883,4.5883,4.5325,4.4902,4.4896,4.4937,4.492,4.4957,4.5245,4.5477,4.5477,0.0,0.0,4.4856,4.2738,4.1603,4.2065,4.0911,4.0217,4.0165,3.9863,3.988,4.0234,3.988,4.0046,4.0703,4.0669,4.0875,4.1234,3.8003,3.7996,0.0,0.0,0.0,0.0,0.0,0.0,0.0,0.0,0.0,0.0,0.0,0.0,0.0,0.0,0.0,5.4147,5.6997,5.9013,5.9512,6.09,6.1926,6.1946,6.2481,6.3274,6.449,6.4431,6.4812,6.6059,6.6409,6.646,6.6132,6.6038,6.5824,6.5511,6.4672,6.4431,6.4716,6.4638,6.4312,6.3855,0.0,0.0,5.9806,5.9313,5.7886,5.5765,5.4828,5.445,5.4225,5.1861,4.9559,4.7516,4.7131,4.7018,4.6971,4.6616,4.6438,4.627,4.5914,4.5718,4.5739,4.6113,4.6253,4.6253,4.6253,4.6253,0.0,4.5785,4.5926,4.6178,4.5849,4.6055,4.6261,4.5959,4.5883,4.5883,4.5883,4.5883,4.5883,4.5883,4.5883,4.5883,4.5883,4.6083,4.6234,4.6234,4.6334,4.6404,4.6374,4.6193,4.6042,4.6042,4.4925,4.4533,4.532,4.2882,4.1694,4.2518,4.1548,4.084,4.0513,4.0715,4.0932,4.0977,4.0932,4.1046,4.1491,4.12,4.1405,4.2039,4.0789,4.0498,0.0,0.0,0.0,0.0,0.0,0.0,0.0,0.0,0.0,0.0,0.0,4.9463,5.1117,0.0,5.3735,5.6518,5.854,6.0166,6.1242,6.2536,6.3329,6.3309,6.336,6.4203,6.6154,6.6228,6.646,6.7243,6.7535,6.7582,6.7353,6.6592,6.6283,6.6563,6.5529,6.5121,6.5413,6.54,6.5138,6.4633,6.3764,6.2369,6.0512,5.7879,5.6011,5.4674,5.2876,5.2156,5.2018,5.0416,4.9044,4.7956,4.7332,4.6709,4.6158,4.5957,4.6012,4.6177,4.6177,4.6324,4.6584,4.7107,4.6911,4.6603,4.6886,4.6614,4.6213,4.5978,4.6072,4.6213,4.593,4.6072,4.6213,4.593,4.5883,4.5883,4.5883,4.5883,4.5978,4.6213,4.6259,4.6353,4.6588,4.7056,4.7196,4.6682,4.6635,4.6782,4.7079,4.6705,4.6389,4.6389,4.5095,4.4384,4.4661,4.2722,4.1695,4.2162,4.17,4.1354,4.1149,4.1337,4.144,4.144,4.1315,4.1337,4.1697,4.1525,4.1731,4.2279,4.209,4.1799,0.0,0.0,0.0,0.0,0.0,0.0,0.0,4.8483,4.8931,4.9838,5.0398,5.1261,5.3062,5.4461,5.6309,5.9099,6.0234,6.1373,6.308,6.3899,6.432,6.446,6.4241,6.5031,6.7333,6.7788,6.7927,6.7932,6.7949,6.7999,6.808,6.6398,6.6046,6.7273,6.602,6.5299,6.5276,6.5294,6.4875,6.3973,6.2558,6.1409,6.0431,5.6232,5.4001,5.3372,5.0926,4.9808,4.9716,4.9313,4.9056,4.8891,4.8543,4.7717,4.6672,4.636,4.6434,4.6757,4.676,4.6963,4.7335,4.7846,4.7527,4.6981,4.7314,4.6854,4.6264,4.6169,4.6122,4.6103,4.603,4.6012,4.5993,4.5902,4.5957,4.6012,4.6012,4.6161,4.6369,4.6671,4.6793,4.6981,4.7421,4.7842,4.7804,4.7028,4.6962,4.7196,4.7615,4.7149,4.6775,4.6756,4.5318,4.4181,4.3568,4.2387,4.1697,4.1697,4.1765,4.1816,4.1816,4.1816,4.1851,4.1919,4.1577,4.156,4.1919,4.1919,4.209,4.2399,4.2659,4.245,4.8127,4.8243,4.8601,4.9822,4.9476,4.9318,0.0,5.125,5.1335,5.3302,5.3609,5.4296,5.6719,5.7178,5.8036,6.0578,6.1805,6.2687,6.3362,6.4306,6.5078,6.5564,6.6022,6.6213,6.6031,6.6865,6.7415,6.7362,6.7415,6.7613,6.8054,6.7417,6.7123,6.7292,6.6677,6.5433,6.3498,6.3513,6.2449,6.0384,6.0167,5.8836,5.655,5.5927,5.4398,5.2088,5.1417,5.0908,5.056,5.0105,4.9519,4.8909,4.8854,4.8322,4.7552,4.7516,4.7516,4.7564,4.771,4.7761,4.7894,4.8374,4.8432,4.8299,4.7886,4.7676,4.7494,4.7062,4.6965,4.6892,4.6507,4.6415,4.6324,4.5975,4.6158,4.6415,4.6415,4.7073,4.7556,4.7184,4.7507,4.7837,4.7932,4.7979,4.8006,4.7952,4.8358,4.8663,4.8709,4.7894,4.7289,4.7317,4.5535,4.3897,4.2597,4.203,4.1697,4.1697,4.2022,4.2227,4.2227,4.2227,4.2381,4.2676,4.2364,4.2347,4.2676,4.2676,4.271,4.2745,4.2796,4.264,4.8345,4.8849,4.926,4.9719,5.0406,5.1244,5.2351,5.2829,5.344,5.4689,5.5605,5.6549,5.7812,5.9404,6.0873,6.1923,6.3198,6.4237,6.4765,6.5485,6.5757,6.5394,6.6884,6.7602,6.6763,6.7624,6.8086,6.7782,6.8039,6.8086,6.7633,6.7137,6.6838,6.6838,6.6639,6.544,6.3193,6.3193,6.2073,5.9802,5.8492,5.7323,5.6211,5.4596,5.3193,5.1864,5.1495,5.122,5.1037,5.0633,5.0266,4.9936,4.9716,4.9404,4.9001,4.8047,4.7699,4.776,4.8129,4.8174,4.8262,4.9109,4.8794,4.8074,4.8171,4.7828,4.7354,4.716,4.7112,4.7057,4.6892,4.6837,4.68,4.6635,4.6727,4.6933,4.7269,4.7638,4.8049,4.8386,4.8653,4.889,4.9241,4.9288,4.9278,4.9339,4.904,4.8881,4.8887,4.8015,4.6944,4.5771,4.4323,4.3223,4.2638,4.242,4.2334,4.2334,4.2488,4.2574,4.2574,4.2574,4.2642,4.2813,4.2484,4.2484,4.2813,4.2591,4.2591,4.2813,4.2813,4.295,4.9071,4.9579,4.9948,5.0286,5.155,5.2895,5.3546,5.4337,5.5162,5.5944,5.7255,5.8521,5.9469,6.1456,6.3176,6.3872,6.4802,6.5638,6.6158,6.6448,6.6262,6.5314,6.6655,6.7369,6.6746,6.8013,6.8639,6.7916,6.836,6.8326,6.7554,6.7015,6.6746,6.6746,6.5984,6.4487,6.23,6.1682,6.0188,5.7912,5.6305,5.5575,5.5521,5.3554,5.254,5.2193,5.1825,5.1642,5.1605,5.1092,5.0817,5.0688,5.0413,5.0208,5.0031,4.8684,4.8219,4.8306,4.8753,4.8834,4.883,4.9489,4.8939,4.8109,4.8354,4.7955,4.7424,4.7424,4.7424,4.7406,4.7295,4.7277,4.724,4.713,4.7282,4.7616,4.7984,4.8397,4.8839,4.9445,4.9665,4.9903,5.0304,5.0351,5.0351,5.0351,4.9794,4.9198,4.8683,4.7439,4.5912,4.415,4.3244,4.2813,4.2813,4.2813,4.2847,4.295,4.2967,4.3001,4.3121,4.3121,4.307,4.2967,4.2741,4.2724,4.2967,4.2724,4.2741,4.2967,4.2967,4.3223,5.0467,5.0514,5.0977,5.257,5.3129,5.3753,5.5505,5.5979,5.6439,5.7673,5.8784,6.0333,6.2864,6.3432,6.4286,6.6772,6.6806,6.6718,6.7182,6.6889,6.6409,6.5849,6.4998,6.4615,6.5024,6.7394,6.848,6.7425,6.7761,6.8014,6.7963,6.7526,6.7274,6.7274,6.4703,6.2197,5.9906,5.7773,5.5575,5.3327,5.3218,5.3218,5.3218,5.3109,5.3091,5.3054,5.2669,5.2431,5.243,5.1623,5.1073,5.0725,5.0706,5.052,5.0243,4.9681,4.9537,4.9648,4.9799,4.9833,4.9784,4.9292,4.9076,4.8978,4.8465,4.8299,4.8249,4.8249,4.8249,4.8157,4.7772,4.7681,4.7589,4.7204,4.7794,4.848,4.848,4.9609,5.0493,5.0069,5.0397,5.0733,5.0781,5.0781,5.0781,5.0781,5.0781,5.0067,4.8272,4.5932,4.4055,4.2957,4.2813,4.2813,4.2813,4.2813,4.2967,4.3375,4.3392,4.3563,4.394,4.3957,4.3786,4.3392,4.3375,4.3375,4.3392,4.3375,4.3375,4.3392,4.3392,4.3476,5.0717,5.1138,5.1415,5.3019,5.4547,5.5821,5.6526,5.7533,5.8384,5.8474,5.8835,5.9381,6.0168,6.1242,6.2641,6.4435,6.5776,6.6661,6.6793,6.729,6.6653,6.4072,6.4964,6.5198,6.3648,6.5819,6.7359,6.7278,6.8088,6.8416,6.8008,6.7549,6.7434,6.7756,6.4808,6.2296,6.0331,5.7774,5.5379,5.3109,5.3109,5.3109,5.3109,5.3109,5.3109,5.3091,5.2687,5.2375,5.2065,5.179,5.1477,5.1092,5.0817,5.081,5.0874,5.0267,5.0081,5.0008,4.9535,4.9144,4.8879,4.9046,4.883,4.8533,4.8335,4.8286,4.8286,4.8286,4.8286,4.8249,4.8121,4.8084,4.8047,4.7919,4.8386,4.8988,4.9331,5.013,5.0754,5.0911,5.1066,5.123,5.123,5.123,5.1133,5.084,5.0566,5.0198,4.9555,4.7287,4.5668,4.5269,4.3766,4.2813,4.2813,4.3035,4.3272,4.3392,4.3649,4.3854,4.3991,4.3991,4.3803,4.3409,4.3409,4.3409,4.3409,4.3409,4.3409,4.3409,4.3409,4.3445,5.108,5.1777,5.2308,5.4087,5.5708,5.7048,5.771,5.8691,5.9374,5.9063,5.887,5.8882,5.9205,5.9973,6.1059,6.2597,6.4243,6.5495,6.5956,6.6381,6.591,6.3797,6.4709,6.4849,6.3165,6.4695,6.6106,6.6929,6.8181,6.8716,6.8284,6.7985,6.7605,6.7054,6.411,6.1506,5.936,5.6938,5.4913,5.3329,5.3164,5.3109,5.3109,5.3109,5.3109,5.3091,5.2852,5.2595,5.2303,5.2157,5.1937,5.1697,5.1312,5.1417,5.1719,5.0804,5.055,5.0642,4.9822,4.9232,4.8872,4.912,4.9026,4.8726,4.8726,4.8616,4.8506,4.8506,4.8506,4.8506,4.8506,4.8506,4.8556,4.8754,4.9089,4.9538,5.0078,5.0617,5.1037,5.1328,5.1377,5.1377,5.1377,5.1377,5.1299,5.1074,5.0801,5.0269,4.9244,4.7253,4.5802,4.5418,4.3835,4.2864,4.3001,4.3104,4.3323,4.3597,4.3717,4.3906,4.4179,4.4179,4.4008,4.3614,4.3734,4.3734,4.3614,4.3734,4.3734,4.3614,4.3614,4.3486,5.1634,5.2477,5.3763,5.5731,5.6668,5.7526,5.9041,5.9443,5.9463,5.9409,5.8884,5.8789,5.9735,5.9465,5.9664,6.1431,6.2548,6.3672,6.4859,6.4672,6.4601,6.4967,6.4188,6.3625,6.3577,6.4061,6.4958,6.6374,6.7894,6.8766,6.8835,6.8812,6.773,6.543,6.2666,5.9881,5.7207,5.5243,5.4117,5.3696,5.3311,5.3164,5.3109,5.3127,5.3127,5.3109,5.3109,5.3109,5.3054,5.2705,5.254,5.2431,5.2065,5.2291,5.2605,5.1283,5.1055,5.1355,5.0628,5.0051,4.9685,4.952,4.9496,4.9496,4.9496,4.9239,4.8946,4.8946,4.8946,4.8946,4.8946,4.8928,4.906,4.961,4.9858,5.0097,5.0636,5.1056,5.1397,5.1416,5.1416,5.1416,5.1397,5.1377,5.1377,5.1377,5.1377,5.0406,4.7658,4.6061,4.4768,4.3752,4.3166,4.2984,4.3375,4.3035,4.3155,4.394,4.3666,4.3786,4.4522,4.4556,4.4385,4.4008,4.4334,4.4316,4.3957,4.4316,4.4316,4.3991,4.3991,4.3597,5.2957,5.4419,5.565,5.6548,5.7814,5.8897,5.9305,5.994,5.9919,5.8046,5.7181,5.6335,5.4771,5.6239,5.8379,6.042,6.3177,6.5444,6.6506,6.729,6.7025,6.5203,6.5477,6.5504,6.4682,6.4748,6.5299,6.6397,6.7228,6.8169,6.9271,6.8996,6.7888,6.5889,6.2835,6.0219,5.8102,5.5579,5.4117,5.3696,5.3916,5.3696,5.3127,5.3439,5.3366,5.3109,5.3109,5.2944,5.2687,5.2889,5.2797,5.2522,5.2412,5.2429,5.2481,5.186,5.1291,5.0933,5.1025,5.0399,4.957,4.951,4.9496,4.9496,4.9496,4.9441,4.9349,4.9349,4.9349,4.9349,4.9349,4.9431,4.9616,5.0033,5.0313,5.0596,5.107,5.1269,5.1475,5.1855,5.1914,5.1816,5.1436,5.1377,5.1377,5.1377,5.1377,5.1153,5.0387,4.8387,4.6913,4.662,4.4574,4.3306,4.3392,4.3323,4.3477,4.3957,4.4145,4.4453,4.495,4.4967,4.4659,4.4008,4.4077,4.394,4.3563,4.394,4.4077,4.3991,4.3991,4.3734,5.4505,5.5791,5.6717,5.7526,5.8392,5.8848,5.8175,5.8386,5.8193,5.605,5.5001,5.4145,5.296,5.4727,5.7053,5.9233,6.2007,6.4696,6.6963,6.763,6.7504,6.6478,6.6942,6.6799,6.5466,6.5552,6.6103,6.709,6.7434,6.8169,6.9455,6.8287,6.673,6.484,6.1815,5.9244,5.717,5.5247,5.4263,5.4227,5.4263,5.3952,5.3366,5.3806,5.3641,5.3127,0.0,5.3164,5.2797,5.3017,5.298,5.2779,5.2779,5.2669,5.245,5.223,5.1735,5.1204,5.1293,5.0872,5.0266,5.0083,5.0028,5.0028,5.0028,4.9918,4.9771,4.9771,4.9771,4.9822,5.0077,5.0146,5.0389,5.1088,5.1103,5.111,5.1539,5.1698,5.1836,5.2266,5.2363,5.2285,5.2031,5.1992,5.1992,5.1992,5.1992,5.1992,5.1992,4.9448,4.7516,4.7025,4.4972,4.3734,4.3888,4.3751,4.382,4.4197,4.4265,4.4453,4.483,4.5019,4.4762,4.4008,4.4471,4.4385,4.3666,4.4043,4.4231,4.4214,4.406,4.3871,5.5974,5.6789,5.755,5.8464,5.8656,5.8199,5.6644,5.6179,5.5592,5.3846,5.2825,5.2332,5.2559,5.3953,5.588,5.8328,6.0489,6.3189,6.7142,6.7408,6.7535,6.8296,6.8635,6.82,6.6591,6.6762,6.7406,6.8328,6.8363,6.872,6.9685,6.7411,6.5068,6.2783,6.0,5.7569,5.5491,5.474,5.4538,5.4924,5.4538,5.4172,5.3787,5.4117,5.3916,5.3219,5.3531,0.0,5.3164,5.32,5.3163,5.3109,5.3163,5.2906,5.2413,5.2559,5.2267,5.1845,5.1568,5.144,5.1312,5.0872,5.0725,5.0725,5.0725,5.0486,5.016,5.016,5.0196,5.0369,5.0861,5.1047,5.1354,5.2323,5.2043,5.1644,5.2147,5.2246,5.2344,5.2637,5.2754,5.2773,5.2715,5.2715,5.2715,5.2715,5.2656,5.2617,5.2617,5.0011,4.7735,4.6614,4.5192,4.4396,4.4505,4.4197,4.4145,4.4505,4.4231,4.4248,4.4659,4.495,4.483,4.4231,4.5121,4.5104,4.4145,4.4505,4.4676,4.4659,4.4316,4.4145,5.666,5.7911,5.9017,5.9209,5.8921,5.8295,5.7141,5.6139,5.4781,5.238,5.2042,5.1691,5.0222,5.2525,5.5672,5.8838,6.1365,6.455,6.9206,7.0175,7.0301,7.0049,7.121,7.1363,6.9769,6.9684,7.0012,7.0569,7.0183,7.0167,7.0764,6.8199,6.4576,5.9941,5.74,5.5909,5.5491,5.5015,5.4813,5.4924,5.4813,5.4594,5.4228,5.4283,5.4062,5.3586,5.3696,0.0,5.3604,5.3765,5.3563,5.3163,5.3617,5.3065,5.2065,5.2779,5.2505,5.1919,5.2175,5.2047,5.1644,5.0963,5.0725,5.0725,5.0725,5.067,5.0615,5.0615,5.0853,5.1123,5.1344,5.1735,5.2249,5.2917,5.2769,5.2596,5.3066,5.3195,5.3047,5.2754,5.3008,5.3144,5.2773,5.2715,5.2715,5.2715,5.2422,5.2187,5.2187,5.1195,4.9991,4.8539,4.7179,4.5795,4.4589,4.4197,4.4145,4.4505,4.4471,4.4745,4.548,4.5241,4.519,4.5412,4.5258,4.5121,4.4916,4.5293,4.5515,4.5497,4.5087,4.4916,5.7622,5.8608,5.9378,5.9378,5.894,5.7903,5.5496,5.4281,5.2987,5.073,5.0414,5.0414,5.0076,5.2271,5.4934,5.74,5.9459,6.2584,6.7996,6.8906,6.9586,7.0996,7.215,7.2419,7.1327,7.1536,7.178,7.1988,7.2003,7.1701,7.1115,6.72,6.257,5.7381,5.608,5.5491,5.5491,5.5289,5.5236,5.5236,5.5236,5.5016,5.4593,5.4813,5.4593,5.4007,5.4227,0.0,5.4026,5.4118,5.399,5.3751,5.4045,5.3492,5.2614,5.3219,5.2871,5.2212,5.2413,5.234,5.2083,5.1497,5.1296,5.1296,5.1296,5.1202,5.1018,5.1018,5.1209,5.1467,5.1852,5.2363,5.2929,5.3493,5.3313,5.3105,5.3371,5.341,5.341,5.3398,5.3574,5.3633,5.3437,5.3398,5.3476,5.3691,5.3379,5.3183,5.3398,5.2296,5.0742,4.8802,4.75,4.6223,4.4897,4.4676,4.4727,4.5087,4.5121,4.5378,4.5943,4.5977,4.5789,4.5378,4.5584,4.5498,4.5104,4.5087,4.5275,4.5703,4.5275,4.5104,5.8343,5.9161,5.9732,5.9594,5.8829,5.7248,5.397,5.249,5.1278,4.9476,4.9191,4.9541,5.0527,5.2043,5.3804,5.5859,5.7239,6.0233,6.6471,6.7384,6.8598,7.1733,7.2813,7.3084,7.2552,7.3058,7.3425,7.3503,7.331,7.2115,6.9731,6.5664,6.1007,5.5662,5.5491,5.5491,5.5491,5.5381,5.5381,5.5491,5.5381,5.5234,5.5015,5.5291,5.5015,5.4428,5.4759,0.0,0.0,5.4486,5.4431,5.4338,5.4431,5.3953,5.3164,5.3531,5.3274,5.265,5.265,5.265,5.2595,5.223,5.2028,5.1882,5.1882,5.1662,5.144,5.144,5.1569,5.1902,5.2492,5.3061,5.3609,5.4143,5.3887,5.3586,5.3683,5.3683,5.375,5.4101,5.4238,5.4297,5.4297,5.4297,5.4394,5.4648,5.4394,5.4258,5.4512,5.3134,5.1378,4.9392,4.7834,4.664,4.5749,4.5582,4.5651,4.613,4.6011,4.6029,4.6337,4.6543,4.6286,4.5481,4.6046,4.6063,4.5464,4.5156,4.531,4.5943,4.5532,4.5344,5.8521,5.969,6.0743,6.0261,5.8625,5.6531,5.4255,5.2247,5.049,4.9359,4.9504,5.0009,5.06,5.0864,5.2152,5.5616,5.6644,5.9503,6.6907,6.824,6.9527,7.2395,7.4067,7.4762,7.4239,7.4653,7.5166,7.5678,7.3458,6.9928,6.5033,6.4193,6.1291,5.5699,5.5491,5.5491,5.5491,5.5125,5.5125,5.5491,5.5125,5.5125,5.5436,5.507,5.4924,5.4869,5.4868,0.0,0.0,5.5061,5.482,5.4338,5.4894,5.4265,5.3164,5.3531,5.3439,5.3054,5.3054,5.3054,5.3054,5.3017,5.2522,5.1882,5.1882,5.1864,5.1827,5.1827,5.2268,5.2814,5.3341,5.3867,5.4444,5.5039,5.457,5.4082,5.4473,5.4551,5.457,5.4609,5.4922,5.5195,5.5195,5.5195,5.5078,5.4726,5.4648,5.4492,5.4141,5.3621,5.2951,5.2098,4.9501,4.774,4.7655,4.7045,4.6959,4.7675,4.7062,4.6697,4.6731,4.644,4.6388,4.6628,4.6697,4.6697,4.6628,4.6594,4.6611,4.6662,4.6303,4.608,5.8779,6.0003,6.0959,6.0743,5.903,5.6816,5.475,5.261,5.0796,4.9779,4.9744,5.0081,5.06,5.0696,5.1247,5.2938,5.352,5.5596,6.0825,6.2452,6.4888,6.9684,7.1706,7.345,7.5285,7.5883,7.6179,7.6037,7.4085,7.0499,6.4879,6.3583,6.0736,5.5662,5.5491,5.5491,5.5491,5.5326,5.5326,5.5491,5.5326,5.5344,5.5491,5.5326,5.5234,5.5234,5.5234,0.0,0.0,5.5371,5.524,5.5071,5.5279,5.4725,5.3861,5.4026,5.3641,5.3109,5.3109,5.3109,5.3109,5.3109,5.2742,5.223,5.223,5.223,5.2301,5.2435,5.282,5.3402,5.3982,5.4367,5.461,5.487,5.4668,5.4531,5.4961,5.5058,5.5058,5.5058,5.5195,5.5312,5.5312,5.5312,5.5332,5.543,5.5215,5.5098,5.5124,5.4035,5.3216,5.3116,5.1122,4.9671,4.9314,4.9014,4.8778,4.8538,4.8561,4.8192,4.7467,4.733,4.7005,4.6457,4.6662,4.6662,4.6457,4.6217,4.6217,4.644,4.6251,4.6114,5.8475,5.9815,6.0767,6.0767,5.8933,5.6749,5.5005,5.2671,5.0686,5.0055,4.9913,5.0081,5.06,5.0696,5.0815,5.1243,5.1726,5.3403,5.7318,5.8948,6.1692,6.7015,6.8949,7.1108,7.432,7.6029,7.6733,7.6273,7.4738,7.1498,6.6223,6.443,6.1074,5.5662,5.5491,5.5491,5.5491,5.5491,5.5491,5.5491,5.5491,5.5491,5.5491,5.5491,5.5491,5.5491,5.5491,0.0,0.0,5.5491,5.5491,5.5491,5.5401,5.4924,5.4282,5.4172,5.3696,5.3109,5.3109,5.3109,5.3109,5.3109,5.2925,5.2669,5.2559,5.2614,5.274,5.3054,5.3748,5.4478,5.481,5.4993,5.5078,5.5215,5.5058,5.498,5.541,5.5488,5.5488,5.5488,5.5605,5.5683,5.5683,5.5683,5.5742,5.5845,5.5801,5.5742,5.5865,5.4761,5.4077,5.4465,5.3222,5.1914,5.0804,5.0204,4.972,4.9406,4.9354,4.889,4.7947,4.7827,4.733,4.6406,4.6765,4.6834,4.656,4.6303,4.6371,4.6679,4.6611,4.6423,5.7453,5.8911,6.0213,6.0213,5.8199,5.5923,5.4856,5.2163,4.9913,4.9913,4.9913,5.0081,5.06,5.0696,5.0864,5.1393,5.2085,5.4119,5.8576,5.98,6.1567,6.4931,6.6338,6.8095,7.0857,7.4623,7.6883,7.6883,7.5334,7.2611,6.8557,6.6848,6.2732,5.5719,5.5491,5.5491,5.5491,5.5491,5.5491,5.5491,5.5491,5.5491,5.5491,5.5491,5.5491,0.0,0.0,0.0,0.0,5.5491,5.5491,5.5436,5.5071,5.4648,5.4227,5.3842,5.3421,5.3109,5.3109,5.3109,5.3109,5.3109,5.3109,5.3035,5.265,5.2797,5.3218,5.3797,5.5147,5.631,5.5993,5.5865,5.5982,5.6465,5.5918,5.541,5.5787,5.5865,5.5865,5.5865,5.6269,5.6582,5.6582,5.6582,5.6426,5.5943,5.6289,5.6426,5.5943,5.5865,5.6041,5.6523,5.5801,5.4331,5.2093,5.0163,4.9417,5.0151,4.911,4.8306,4.7893,4.757,4.7176,4.6782,4.7212,4.7417,4.7417,4.74,4.7553,4.7859,4.7536,4.74,5.5358,5.6527,5.7248,5.6885,5.541,5.3798,5.2716,5.1129,4.9913,4.9913,4.9913,5.0081,5.06,5.0696,5.1162,5.2571,5.298,5.3955,5.6277,5.9078,6.1868,6.4471,6.9401,7.3117,7.4396,7.5652,7.6355,7.6355,7.5858,7.333,6.8115,6.737,6.4316,5.815,5.7156,5.6741,5.6741,5.5909,5.5491,5.5491,5.5491,5.5491,5.5491,5.5491,5.5491,0.0,0.0,0.0,0.0,5.5965,5.5742,5.507,5.4979,5.4503,5.3842,5.3732,5.3421,5.3109,5.3109,5.3109,5.3109,5.3109,5.2925,5.2632,5.2193,5.2541,5.3327,5.4322,5.5762,5.6796,5.6099,5.5885,5.5924,5.6113,5.5937,5.5859,5.6289,5.6387,5.6387,5.6387,5.6484,5.6582,5.6582,5.6582,5.6543,5.6406,5.6504,5.6543,5.6406,5.6387,5.6308,5.6152,5.5389,5.4866,5.4633,5.409,5.3522,5.2945,5.2863,5.1802,4.9563,4.9368,4.8541,4.6852,4.7212,4.7417,4.7417,4.7417,4.7553,4.7876,4.781,4.7758,5.3598,5.4733,5.5215,5.4943,5.3761,5.2489,5.167,5.037,4.9408,4.9817,4.9744,4.9841,5.0551,5.0696,5.1125,5.2361,5.2708,5.3522,5.5526,5.8553,6.1743,6.5074,7.0129,7.3669,7.4423,7.5476,7.6104,7.6104,7.6104,7.3837,6.8564,6.8121,6.5696,6.0622,5.8686,5.7508,5.7098,5.6347,5.5818,5.5491,5.5491,5.5491,5.5491,5.5491,5.5491,0.0,0.0,0.0,0.0,5.5762,5.552,5.4869,5.4538,5.4117,5.3677,5.3531,5.3329,5.3109,5.3109,5.3219,5.3329,5.3164,5.2944,5.2669,5.223,5.2773,5.3794,5.4986,5.6209,5.7051,5.6367,5.6172,5.6172,5.6172,5.6172,5.625,5.6523,5.6582,5.6582,5.6582,5.6582,5.6582,5.6582,5.6445,5.6406,5.6562,5.6445,5.6406,5.6562,5.6445,5.623,5.5904,5.5461,5.5412,5.5851,5.5224,5.4339,5.321,5.323,5.2254,4.9841,4.9489,4.8679,4.7228,4.7313,4.7555,4.7846,4.8067,4.8255,4.8304,4.8358,4.7786,0.0,5.3264,5.3728,5.3924,5.2804,5.1629,5.1308,4.972,0.0,4.9576,4.9432,4.9432,5.0455,5.0672,5.0861,5.1274,5.1698,5.302,5.6116,5.8488,6.1743,6.6689,6.922,7.0953,7.1937,7.4397,7.6004,7.6029,7.6004,7.4114,6.9762,6.8961,6.6887,6.2895,6.0067,5.807,5.6849,5.6775,5.6291,5.5436,5.5491,5.5491,5.5436,5.5491,5.5491,0.0,0.0,5.5511,5.5436,5.5091,5.4869,5.4759,5.4007,5.3677,5.3586,5.3219,5.3109,5.3109,5.3146,5.3384,5.3586,5.3219,5.3072,5.298,5.2687,5.3421,5.4614,5.5715,5.6574,5.7109,5.6699,5.6582,5.6582,5.6582,5.6582,5.6582,5.6582,5.6582,5.6582,5.6582,5.6562,5.6543,5.6582,5.6191,5.6035,5.6465,5.6172,5.6035,5.6445,5.6172,5.5865,5.5845,5.5924,5.5963,5.5924,5.4332,5.28,5.1723,5.1275,5.0462,4.9204,4.85,4.8052,4.7927,4.7656,4.7827,4.8529,4.9265,4.9402,4.9039,4.9111,4.7611,5.0112,0.0,4.9669,4.9727,4.9343,4.8907,0.0,4.8565,4.8363,4.8603,4.8926,4.9311,4.9985,5.0407,5.1173,5.2664,5.3333,5.4447,5.6562,6.0935,6.5459,6.9627,7.1711,7.2916,7.3167,7.4171,7.4975,7.5402,7.505,7.3626,7.0848,6.9362,6.7116,6.3728,6.1655,5.9945,5.8538,5.7298,5.6123,5.5015,5.5344,5.5326,5.5071,5.5344,5.5491,0.0,0.0,5.5504,5.5034,5.5079,5.4672,5.3952,5.3751,5.3531,5.3219,5.3146,5.3109,5.3164,5.3421,5.3439,5.3219,5.3146,5.2705,5.2322,5.3164,5.4278,5.5185,5.5166,5.6186,5.7109,5.6699,5.6582,5.6582,5.6582,5.6582,5.6582,5.6582,5.6582,5.6582,5.6582,5.6308,5.6191,5.6523,5.5957,5.5605,5.6015,5.5723,5.5488,5.5586,5.5801,5.5748,5.5488,5.6328,5.6777,5.6465,5.5469,5.4772,5.4463,5.3567,5.2361,5.0884,5.0374,4.9554,4.8358,4.8546,4.8697,4.8851,4.9368,4.9556,4.9454,4.9454,4.8056,4.9539,4.946,4.9217,4.9055,4.8854,4.8589,4.8448,4.8173,4.8002,4.8243,4.8734,4.9263,4.9817,5.0451,5.1324,5.2452,5.3524,5.536,5.879,6.2546,6.6481,7.0581,7.2113,7.3117,7.3895,7.4699,7.5075,7.4826,7.4776,7.3698,7.1211,6.9084,6.678,6.4242,6.2127,6.0495,5.9363,5.774,5.6543,5.5749,5.573,5.5468,5.4924,5.5709,5.5837,0.0,0.0,5.5187,5.4869,5.4616,5.4211,5.3677,5.3476,5.3164,5.287,5.3054,5.2999,5.2907,5.3274,5.3164,5.2852,5.2852,5.272,5.2696,5.3361,5.451,5.5529,5.5274,5.6052,5.6875,5.664,5.6582,5.6582,5.6582,5.6582,5.6582,5.6582,5.6582,5.6582,5.6582,5.623,5.5963,5.625,5.5742,5.5449,5.5826,5.5566,5.5449,5.584,5.5742,5.5625,5.5605,5.6387,5.6836,5.6601,5.6238,5.5906,5.5753,5.443,5.3108,5.1752,5.0599,4.9509,4.8549,4.88,4.9005,4.906,4.9402,4.9103,4.8119,4.8119,4.625,4.9873,5.0219,5.0237,4.9833,4.9529,4.9272,4.8998,4.8267,4.7832,4.8339,4.8836,4.9332,4.9966,5.0783,5.1549,5.2066,5.3675,5.6626,6.1778,6.3927,6.6481,7.0355,7.161,7.269,7.4021,7.5075,7.5327,7.4473,7.465,7.3771,7.1489,6.8677,6.644,6.487,6.2148,6.0379,5.9781,5.8111,5.7126,5.6788,5.6337,5.571,5.5022,5.616,5.6216,5.5289,0.0,0.0,5.4648,5.3897,5.3586,5.3586,5.3219,5.2907,5.265,5.2999,5.287,5.2559,5.2834,5.2705,5.2449,5.2504,5.2806,5.3214,5.3345,5.4393,5.5521,5.5456,5.6009,5.6582,5.6582,5.6582,5.6582,5.6582,5.6582,5.6582,5.6582,5.6582,5.6582,5.6582,5.6172,5.5806,5.5865,5.5469,5.5254,5.5631,5.5449,5.5469,5.6211,5.582,5.5644,5.5996,5.6543,5.6875,5.6875,5.6812,5.6643,5.6321,5.4561,5.2977,5.1705,5.0041,4.9029,4.8666,4.9008,4.9214,4.9163,4.9134,4.8192,4.6416,4.5938,4.3468,5.0867,5.0633,4.9833,4.9135,4.9042,4.9131,4.9066,4.8723,4.8559,4.9107,4.9377,4.9777,5.0656,5.153,5.2453,5.3494,5.6463,6.0083,6.4203,6.6237,6.7894,6.9456,7.1861,7.3242,7.3016,7.3594,7.4096,7.4397,7.3546,7.2877,7.2491,6.9022,6.6728,6.6157,6.257,6.066,6.051,5.8628,5.7508,5.7131,5.6401,5.5832,5.5329,5.6286,5.5879,5.4503,0.0,5.4228,5.3842,5.3366,5.3219,5.3219,5.3146,5.3072,5.3035,5.3091,5.287,5.2431,5.2157,5.2028,5.2028,5.2358,5.2437,5.2416,5.3177,5.3976,5.4691,5.5079,5.5887,5.6582,5.6582,5.6582,5.6582,5.6582,5.6582,5.6582,5.6582,5.6582,5.6582,5.6582,5.5937,5.5527,5.5826,5.4928,5.4375,5.4805,5.4824,5.4824,5.4961,5.5801,5.6406,5.6484,5.7539,5.8187,5.8187,5.7579,5.7192,5.7135,5.4351,5.195,5.0061,4.9684,4.9505,4.9419,4.9796,4.9847,4.9505,4.7791,4.6766,4.6343,4.3997,4.166,5.0812,5.0689,5.0111,4.9546,4.9735,5.0122,5.0122,4.9766,4.9543,4.9764,5.0121,5.069,5.1732,5.2946,5.467,5.7492,5.9352,6.1611,6.4814,6.6212,6.7518,6.9205,7.1108,7.2364,7.2643,7.3519,7.3895,7.3544,7.2969,7.2693,7.2693,6.8553,6.626,6.6405,6.2692,6.0568,6.032,5.9028,5.8322,5.8123,5.7545,5.6952,5.6414,5.6818,5.6351,5.5227,0.0,5.3842,5.3696,5.3274,5.2999,5.2815,5.3035,5.2852,5.2431,5.2431,5.245,5.243,5.1807,5.1605,5.166,5.2082,5.2326,5.2708,5.3851,5.4607,5.5239,5.5752,5.6057,5.6289,5.6523,5.6582,5.6582,5.6582,5.6582,5.6582,5.6582,5.6582,5.6582,5.6582,5.5898,5.5449,5.5806,5.5202,5.4941,5.5605,5.5508,5.5605,5.6362,5.6504,5.6758,5.7226,5.8027,5.848,5.848,5.7751,5.6572,5.4869,5.3379,5.1688,4.968,4.9796,4.9899,4.9899,5.0276,5.0378,5.019,4.7698,4.5976,4.4857,4.1876,3.9492,5.0911,5.0825,5.0429,5.055,5.0713,5.0928,5.1127,5.0807,5.0712,5.1329,5.163,5.2122,5.3286,5.472,5.6991,6.0893,6.1852,6.3012,6.5717,6.6538,6.7524,6.9381,7.0732,7.1811,7.2593,7.3519,7.372,7.2991,7.2565,7.2389,7.2539,6.7866,6.5457,6.6037,6.2154,5.9864,5.9512,5.9055,5.8957,5.916,5.8551,5.7986,5.7447,5.7276,5.6673,5.5681,5.4228,5.3531,5.3531,5.3146,5.2797,5.2559,5.2962,5.2687,5.201,5.1919,5.201,5.2155,5.1532,5.1257,5.1275,5.1827,5.2414,5.305,5.4377,5.5138,5.5722,5.63,5.6191,5.6035,5.6465,5.6582,5.6582,5.6582,5.6582,5.6582,5.6582,5.6582,5.6582,5.6582,5.5976,5.5566,5.5826,5.5664,5.5683,5.6328,5.623,5.6484,5.7578,5.7226,5.7168,5.7984,5.8418,5.8414,5.7838,5.7229,5.554,5.2356,5.2134,5.139,4.9663,4.9984,5.019,5.019,5.0618,5.0522,4.9795,4.7166,4.4827,4.2704,3.9649,3.7533,5.1939,5.1402,5.0586,5.2175,5.1503,5.068,5.1482,5.1536,5.2134,5.469,5.4547,5.4399,5.5699,5.6925,5.8734,6.1645,6.3384,6.5277,6.7982,6.8804,6.9406,7.0175,7.1636,7.264,7.2668,7.2743,7.3042,7.3494,7.2087,7.1435,7.1937,6.7082,6.4521,6.4978,6.052,5.8105,5.8063,5.8416,5.9078,5.9925,5.8832,5.8251,5.8185,5.7515,5.6345,5.4847,5.3654,5.3164,5.3127,5.2742,5.2559,5.2559,5.2962,5.2852,5.2377,5.201,5.1662,5.1385,5.133,5.1073,5.0945,5.21,5.2717,5.3144,5.3995,5.4772,5.5436,5.5806,5.5904,5.6035,5.6465,5.6582,5.6582,5.6582,5.6582,5.6582,5.6582,5.6582,5.6582,5.6582,5.6211,5.5845,5.5885,5.5865,5.5865,5.5924,5.6308,5.6719,5.7187,5.7558,5.7969,5.8418,5.8887,5.8225,5.5929,5.5664,5.4255,5.1016,5.0817,5.0452,4.9642,4.9984,5.019,5.019,5.0909,4.9901,4.717,4.5042,4.2661,3.9993,3.7279,3.6068,5.0732,5.0548,5.0379,5.1419,5.1458,5.1515,5.2478,5.3091,5.397,5.5744,5.5855,5.5975,5.7229,5.9439,6.1694,6.3409,6.5347,6.7239,6.8884,6.9903,7.0405,7.0325,7.1108,7.1836,7.2188,7.1912,7.1937,7.2514,7.1309,7.0853,7.1359,6.7979,6.5515,6.45,6.1463,5.9086,5.7484,5.767,5.8063,5.8705,5.8582,5.8806,5.9286,5.7724,5.6478,5.5442,5.4021,5.3149,5.2724,5.2267,5.2102,5.212,5.2267,5.2377,5.2431,5.2028,5.179,5.166,5.1403,5.122,5.1291,5.2638,5.3009,5.3168,5.4691,5.5325,5.5655,5.6183,5.6348,5.6387,5.6543,5.6582,5.6582,5.6582,5.6582,5.6582,5.6582,5.6367,5.6328,5.6875,5.6406,5.6138,5.6992,5.6914,5.6914,5.7461,5.7461,5.7637,5.8359,5.8359,5.8437,5.8887,5.9062,5.8207,5.5682,5.5511,5.4142,5.0925,5.0721,5.0481,4.9984,5.0327,5.0635,5.0875,5.1406,5.0346,4.7574,4.5064,4.2521,4.008,3.7139,3.6164,4.9996,5.0217,5.0514,5.0703,5.156,5.2573,5.3441,5.4399,5.5595,5.741,5.7654,5.7788,5.8724,6.0855,6.2929,6.4324,6.6448,6.8235,6.926,7.0104,7.043,7.0054,7.048,7.0958,7.1359,7.1033,7.1058,7.161,7.0631,7.0255,7.0853,6.8169,6.5753,6.3789,6.1516,5.911,5.6594,5.6863,5.7111,5.7277,5.7753,5.8519,5.9481,5.7542,5.651,5.6156,5.4278,5.3228,5.2784,5.2005,5.168,5.168,5.1552,5.1662,5.1917,5.1607,5.1497,5.1479,5.1367,5.1325,5.1553,5.281,5.3182,5.3398,5.4843,5.5524,5.5834,5.628,5.6484,5.6582,5.6582,5.6582,5.6582,5.6582,5.6582,5.6582,5.6582,5.6348,5.6348,5.707,5.6738,5.666,5.775,5.7734,5.7777,5.8418,5.8262,5.8375,5.9062,5.8772,5.8711,5.9121,5.918,5.8357,5.625,5.5739,5.4366,5.1626,5.0999,5.0567,5.019,5.0532,5.0909,5.1303,5.0852,4.9396,4.6791,4.4298,4.1809,3.9444,3.751,3.6976,5.0134,5.0744,5.1057,5.0482,5.1951,5.3674,5.4279,5.5263,5.6925,6.0146,6.0252,5.9891,6.0437,6.0943,6.2025,6.4162,6.6398,6.826,6.924,6.9406,6.9406,6.9406,6.9928,7.03,7.03,7.03,7.0526,7.1033,7.0008,6.9677,7.025,6.7403,6.4801,6.2731,6.0228,5.7724,5.5234,5.6146,5.6374,5.5918,5.6374,5.7256,5.853,5.6934,5.6462,5.674,5.4149,5.3215,5.3451,5.1933,5.1293,5.1257,5.0872,5.0706,5.0706,5.0725,5.0725,5.078,5.1165,5.1403,5.1667,5.2506,5.3276,5.3878,5.4268,5.5113,5.5865,5.5865,5.625,5.6582,5.6582,5.6582,5.6582,5.6582,5.6582,5.6582,5.6582,5.6582,5.6699,5.7129,5.7207,5.7344,5.7793,5.8242,5.8535,5.8535,5.8535,5.8655,5.9121,5.8772,5.8711,5.9121,5.918,5.8693,5.7381,5.6175,5.4798,5.317,5.1609,5.0567,5.0241,5.0532,5.0909,5.1303,4.9116,4.6776,4.4206,4.2304,4.0024,3.7544,3.8216,3.8521,5.1441,5.1264,5.1323,5.1915,5.2917,5.4273,5.6262,5.6341,5.7007,6.0656,6.1789,6.2125,6.2233,6.3362,6.4315,6.4555,6.6777,6.8573,6.8883,6.955,6.9878,6.9456,6.9556,6.9828,7.0275,6.9928,6.9928,7.0501,6.9853,6.9306,6.9125,6.8584,6.6273,6.181,6.1276,5.9019,5.4731,5.5,5.5227,5.5441,5.5207,5.6014,5.7578,5.6823,5.613,5.5467,5.5039,5.4001,5.2619,5.1362,5.089,5.0853,5.0468,5.0251,5.0288,5.0615,5.0725,5.078,5.1165,5.1553,5.2059,5.3074,5.3591,5.393,5.481,5.5233,5.5488,5.5488,5.5801,5.6133,5.6133,5.6348,5.6582,5.6582,5.6582,5.6582,5.6582,5.6348,5.6348,5.707,5.7207,5.7441,5.8203,5.8711,5.9004,5.9004,5.9004,5.9062,5.918,5.9062,5.9062,5.918,5.918,5.8357,5.6175,5.5682,5.4475,5.2008,5.153,5.1221,5.0978,5.0824,5.124,5.2332,4.9964,4.7633,4.5545,4.3159,4.0704,3.8216,3.8399,3.8765,5.0874,5.0925,5.1365,5.2124,5.3246,5.4805,5.7207,5.8215,5.9266,6.1559,6.2288,6.2646,6.3017,6.3884,6.4549,6.463,6.6755,6.8329,6.8105,6.9135,6.9652,6.8829,6.913,6.9456,6.9602,6.9501,6.9356,6.93,6.9175,6.8628,6.7668,6.8327,6.6664,6.2138,6.1786,5.9734,5.5713,5.5071,5.4834,5.4917,5.4834,5.5269,5.611,5.6055,5.5774,5.5318,5.5134,5.383,5.175,5.1155,5.0498,4.9973,4.9735,4.9592,4.9647,5.0083,5.034,5.0541,5.0945,5.1544,5.233,5.294,5.347,5.3989,5.4623,5.4922,5.5058,5.5058,5.5488,5.5885,5.5885,5.625,5.6582,5.6582,5.6582,5.6582,5.6582,5.6387,5.6445,5.7305,5.748,5.7734,5.8652,5.8887,5.9004,5.918,5.918,5.918,5.918,5.918,5.918,5.918,5.8768,5.7963,5.6722,5.5682,5.4508,5.3076,5.2337,5.1971,5.203,5.0681,5.0309,5.1108,4.7923,4.574,4.4579,4.2272,4.0367,3.8874,3.9144,3.9483,4.964,5.0264,5.1369,5.1616,5.34,5.5544,5.7606,6.0436,6.262,6.2615,6.2156,6.2166,6.3243,6.3332,6.359,6.4541,6.6434,6.7588,6.7116,6.8265,6.8854,6.797,6.8678,6.908,6.8628,6.9029,6.8854,6.7819,6.8246,6.7844,6.6187,6.7191,6.6407,6.3294,6.1912,5.9951,5.7339,5.5857,5.4896,5.4435,5.4917,5.4917,5.4497,5.4979,5.5483,5.582,5.4703,5.3123,5.1264,5.1107,5.0178,4.8909,4.8836,4.8799,4.8854,4.9239,4.9661,5.0083,5.0557,5.1466,5.2382,5.2434,5.3153,5.3972,5.3972,5.4316,5.4629,5.4629,5.5195,5.5787,5.5806,5.6211,5.6543,5.6582,5.6582,5.6582,5.6582,5.6528,5.6655,5.7489,5.7645,5.7921,5.8795,5.8694,5.8655,5.9121,5.9104,5.9029,5.9046,5.8878,5.8803,5.8953,5.7906,5.74,5.802,5.5985,5.4866,5.5285,5.3633,5.2667,5.2719,5.0174,4.876,4.8657,4.455,4.2406,4.2438,4.0515,3.9618,3.9618,4.0238,4.0481,5.2227,5.1994,5.2218,5.3105,5.5876,5.8701,6.0014,6.1494,6.2611,6.2522,6.3094,6.3868,6.4881,6.4776,6.4566,6.4772,6.5871,6.6651,6.6552,6.7089,6.7744,6.8371,6.8271,6.8271,6.8597,6.8678,6.8346,6.7241,6.7668,6.7442,6.6187,6.7191,6.6407,6.3294,6.1912,5.9793,5.688,5.5393,5.4393,5.3959,5.4414,5.4579,5.4497,5.4979,5.5483,5.58,5.4378,5.3242,5.2277,5.1103,4.9935,4.8854,4.8212,4.7956,4.8011,4.8396,4.8818,4.9327,5.0452,5.1533,5.2485,5.2878,5.3461,5.3972,5.3972,5.4101,5.418,5.418,5.4551,5.5019,5.5351,5.5762,5.6152,5.6504,5.6582,5.6582,5.6582,5.5866,5.5259,5.5431,5.5755,5.6156,5.667,5.7732,5.8655,5.9121,5.8143,5.7466,5.793,5.6512,5.5916,5.7149,5.6646,5.6179,5.6099,5.5587,5.4832,5.3711,5.3663,5.2486,4.9798,4.9143,4.9145,4.9913,4.5411,4.3293,4.3772,4.1456,4.0299,4.0299,4.0407,4.0481,5.2194,5.2523,5.3594,5.4965,5.7176,5.9281,6.0382,6.1422,6.2206,6.2199,6.2823,6.3599,6.4371,6.4283,6.4112,6.409,6.4991,6.566,6.5611,6.6402,6.7129,6.7373,6.7643,6.7819,6.7819,6.807,6.7769,6.6639,6.7091,6.6789,6.5409,6.6388,6.613,6.4241,6.1987,6.0,5.8455,5.5587,5.4042,5.3794,5.3882,5.3882,5.3903,5.4565,5.4896,5.4848,5.4251,5.3552,5.2728,5.1444,5.0219,4.9027,4.806,4.7571,4.7479,4.8066,4.8453,4.8866,5.0187,5.1282,5.2183,5.2488,5.3215,5.3894,5.3516,5.3691,5.3984,5.3769,5.418,5.4785,5.5195,5.5625,5.6055,5.6484,5.6582,5.6582,5.6582,5.6081,5.5548,5.5199,5.5317,5.5437,5.5319,5.6601,5.7781,5.7954,5.7713,5.762,5.7937,5.655,5.5954,5.6984,5.6067,5.5559,5.5929,5.5416,5.4811,5.4271,5.4175,5.3415,5.1774,4.9091,4.7342,4.6732,4.3582,4.2133,4.2406,4.1121,4.0481,4.0481,4.0481,4.0481,5.1448,5.2666,5.4961,5.6604,5.7959,5.9161,6.0219,6.1085,6.171,6.1903,6.236,6.2841,6.3229,6.3301,6.3301,6.3301,6.4106,6.4714,6.4732,6.5736,6.6466,6.6294,6.684,6.7166,6.699,6.7292,6.7041,6.5911,6.6438,6.6129,6.4471,6.5459,6.586,6.5308,6.2075,6.0225,6.0109,5.5886,5.3711,5.3566,5.3323,5.3137,5.3095,5.3923,5.4042,5.3711,5.4166,5.3801,5.2776,5.1724,5.0513,4.9171,4.7972,4.7277,4.7075,4.7736,4.814,4.858,4.9829,5.0949,5.1935,5.2016,5.2859,5.3769,5.3047,5.3379,5.3945,5.3574,5.4004,5.4687,5.5176,5.5566,5.5904,5.6178,5.6314,5.6314,5.6314,5.5993,5.5498,5.4917,5.4885,5.4798,5.4468,5.5581,5.6569,5.6664,5.7227,5.7698,5.7831,5.6852,5.6272,5.6873,5.5634,5.5164,5.625,5.534,5.4887,5.5271,5.4703,5.4147,5.3556,4.9034,4.5245,4.2459,4.1078,4.0441,4.0481,4.0481,4.0481,4.0481,4.0481,4.0481,5.2062,5.3496,5.5522,5.6719,5.8512,6.0243,6.1326,6.1326,6.1392,6.2287,6.2889,6.3205,6.3277,6.3301,6.3301,6.3301,6.3747,6.4275,6.4639,6.4426,6.4897,6.6671,6.5753,6.5501,6.6883,6.6589,6.5886,6.4823,6.5634,6.5509,6.3877,6.5258,6.586,6.5308,6.2075,5.9948,5.9187,5.561,5.3401,5.2681,5.3013,5.2971,5.2599,5.3116,5.3323,5.3302,5.369,5.331,5.2314,5.1291,5.0243,4.9114,4.7343,4.6617,4.658,4.6672,4.7469,4.8603,4.9618,5.0824,5.1985,5.2466,5.2997,5.3468,5.3371,5.3633,5.3972,5.3914,5.3972,5.4297,5.5098,5.5351,5.5323,5.5065,5.5041,5.5041,5.5041,5.3471,5.2052,5.1996,5.2247,5.2846,5.4098,5.4968,5.573,5.6347,5.56,5.5228,5.6029,5.4425,5.3678,5.5074,5.4641,5.4598,5.5568,5.5491,5.5141,5.4483,5.4704,5.2734,4.808,4.7467,4.5212,4.0871,4.0321,4.0214,4.0481,4.0481,4.0481,4.0481,4.0481,4.0481,5.3381,5.3958,5.4992,5.6985,5.8175,5.9209,6.058,6.0959,6.1224,6.1994,6.2552,6.2913,6.2913,6.3109,6.3301,6.3301,6.3237,6.3482,6.4154,6.4038,6.4275,6.5466,6.5225,6.515,6.5577,6.5333,6.5024,6.4547,6.4931,6.4881,6.422,6.4806,6.5124,6.4873,6.2346,6.0347,5.8891,5.6031,5.3756,5.2102,5.2309,5.2309,5.2102,5.2309,5.2557,5.2826,5.3282,5.3188,5.2719,5.1663,5.0511,4.9261,4.7903,4.6864,4.6177,4.6397,4.7235,4.8364,4.9247,5.046,5.1648,5.1894,5.2617,5.3331,5.2843,5.3301,5.3933,5.373,5.3828,5.4167,5.5078,5.4822,5.4456,5.4724,5.3797,5.2873,5.2873,5.26,5.2126,5.1522,5.0985,5.1082,5.2287,5.3486,5.4577,5.541,5.5579,5.5748,5.6141,5.485,5.41,5.4689,5.4619,5.4524,5.4466,5.5092,5.4607,5.2557,5.2486,5.1012,4.758,4.5766,4.4091,4.2587,4.1045,4.0334,4.0481,4.0481,4.0481,4.0481,4.0481,4.0481,5.39,5.4225,5.4888,5.6897,5.7781,5.8564,5.9894,6.0526,6.0959,6.1489,6.1922,6.2167,6.2167,6.2817,6.3253,6.3133,6.2841,6.2877,6.3571,6.3596,6.374,6.4421,6.458,6.4605,6.4521,6.4396,6.432,6.432,6.4421,6.4396,6.4053,6.4346,6.4446,6.432,6.2513,6.064,5.8641,5.5776,5.3483,5.1791,5.1791,5.1791,5.1791,5.1791,5.1998,5.235,5.2806,5.3013,5.2966,5.1857,5.0676,4.9379,4.8251,4.7056,4.5967,4.6356,4.7157,4.8083,4.89,5.0021,5.1133,5.1182,5.1992,5.2793,5.2363,5.3008,5.3808,5.3594,5.3769,5.4097,5.4578,5.4168,5.3625,5.3732,5.2582,5.1303,5.099,5.1595,5.1961,5.1138,5.0217,4.9967,5.1082,5.228,5.3536,5.4659,5.5556,5.6119,5.623,5.5386,5.4859,5.4809,5.4839,5.4632,5.4197,5.4845,5.4011,5.103,5.0635,4.9374,4.6877,4.4306,4.2992,4.3219,4.1423,4.0481,4.0481,4.0481,4.0481,4.0481,4.0481,4.0481,5.2711,5.4407,5.6012,5.6227,5.7833,5.9466,6.0061,6.0237,6.0406,6.0935,6.1055,6.108,6.108,6.2312,6.3133,6.2696,6.26,6.2731,6.3075,6.2711,6.2924,6.432,6.3576,6.335,6.4421,6.4028,6.3726,6.3726,6.422,6.4002,6.2973,6.3902,6.4295,6.3751,6.2343,6.0494,5.8156,5.4048,5.1902,5.1791,5.1791,5.1791,5.1791,5.1791,5.1812,5.1853,5.2329,5.2536,5.247,5.1437,5.0424,4.936,4.7993,4.6794,4.593,4.6419,4.7197,4.8102,4.8631,4.9458,5.0312,5.0703,5.1152,5.1631,5.2441,5.3008,5.3527,5.3887,5.3953,5.3865,5.3276,5.3362,5.3178,5.1388,5.1201,5.1118,4.9923,4.9757,4.9757,4.9702,4.9663,5.007,5.1431,5.1908,5.2684,5.4343,5.4859,5.5089,5.5511,5.5016,5.4809,5.5416,5.4941,5.4809,5.5338,5.492,5.3515,5.0869,5.0193,4.7933,4.3621,4.3314,4.2427,4.071,4.0542,4.0481,4.0481,4.0481,4.0481,4.0481,4.0481,4.0481,5.2033,5.3065,5.4255,5.5375,5.6226,5.7054,5.7947,5.8702,5.9305,5.9834,6.0526,6.1104,6.1446,6.1951,6.2287,6.2119,6.1782,6.1813,6.251,6.244,6.2578,6.3301,6.34,6.34,6.3425,6.3249,6.3149,6.3149,6.3299,6.3249,6.2807,6.3199,6.3324,6.3149,6.2639,6.0809,5.7628,5.4917,5.2964,5.1791,5.1791,5.1791,5.1791,5.1791,5.1791,5.1812,5.1978,5.204,5.1994,5.1676,5.0558,4.8997,4.849,4.7317,4.593,4.6447,4.7178,4.8102,4.862,4.9381,5.0254,5.0664,5.1094,5.1553,5.2441,5.3008,5.3507,5.3906,5.3972,5.3865,5.3153,5.2695,5.2045,5.0401,5.0113,5.0144,4.968,4.9608,4.9608,4.9608,5.0113,5.0818,5.1729,5.2717,5.3694,5.4675,5.5084,5.5326,5.5491,5.532,5.5092,5.4941,5.4712,5.4369,5.3791,5.4272,5.2573,4.7768,4.7873,4.5978,4.1329,4.0971,4.0761,4.0542,4.0481,4.0481,4.0481,4.0481,4.0481,4.0481,4.0481,4.0481,5.1961,5.2592,5.3435,5.4925,5.5459,5.5875,5.6812,5.7673,5.8475,5.9027,5.981,6.0646,6.1157,6.1253,6.1301,6.1494,6.1248,6.119,6.1736,6.1921,6.2149,6.2545,6.3092,6.3249,6.2832,6.2781,6.2781,6.2781,6.2781,6.2781,6.2781,6.2781,6.2781,6.2781,6.2224,6.0726,5.8275,5.5815,5.3967,5.2716,5.2107,5.1791,5.1791,5.1791,5.1791,5.1791,5.1791,5.1791,5.1791,5.1791,5.059,4.8782,4.8782,4.7736,4.6213,4.6682,4.7366,4.8128,4.8643,4.9258,4.9852,5.0234,5.0664,5.1172,5.2012,5.2578,5.3077,5.3457,5.3691,5.3472,5.2171,5.1131,5.033,4.9716,4.9608,4.9608,4.9608,4.9608,4.9663,4.983,5.0408,5.1208,5.2127,5.3076,5.3903,5.4574,5.4905,5.5125,5.5271,5.5119,5.4871,5.4616,5.4444,5.3989,5.3252,5.3732,5.2112,4.7493,4.6834,4.4913,4.1224,4.0109,3.9893,4.0481,4.0481,4.0481,4.0481,4.0481,4.0481,4.0481,4.0481,4.0569,0.0,0.0,0.0,5.4937,5.5609,5.6175,5.6824,5.7294,5.7784,5.837,5.8986,5.9498,6.0093,6.0213,6.0382,6.0887,6.0983,6.0918,6.083,6.1216,6.1696,6.2167,6.2536,6.2781,6.2781,6.2781,6.2781,6.2781,6.2781,6.2781,6.2781,6.2781,6.2781,6.2781,6.1125,6.0141,6.0099,5.6554,5.4697,5.4587,5.2761,5.1836,5.1791,5.1791,5.1791,5.1791,5.1791,5.1791,5.1791,5.1791,5.059,4.8782,4.8828,4.7922,4.6682,4.7196,4.7708,4.8173,4.8729,4.8913,4.8972,4.9375,4.9824,5.0332,5.1172,5.1738,5.2168,5.2598,5.3027,5.2808,5.0202,4.8716,4.8167,4.9317,4.9608,4.9608,4.9608,4.9608,4.983,5.0418,5.0511,5.1038,5.2628,5.2904,5.3233,5.4153,5.4282,5.4448,5.4813,5.438,5.4147,5.4565,5.4065,5.375,5.3944,5.3472,5.225,5.0212,4.7349,4.4954,4.327,4.0933,3.9926,4.0502,4.0481,4.0481,4.0481,4.0481,4.0481,4.0481,4.0481,4.0615,5.1878,0.0,0.0,0.0,0.0,0.0,5.3963,5.44,5.5189,5.6551,5.7601,5.8536,5.9426,5.9948,6.0261,6.0406,6.043,6.0634,6.1199,6.1406,6.1779,6.2536,6.2741,6.2781,6.2781,6.2781,6.2781,6.2781,6.2781,6.2781,6.2781,6.2781,6.2781,6.2781,6.2306,6.1416,6.0117,5.9106,5.7246,5.4565,5.4056,5.3098,5.1791,5.1791,5.1791,5.1791,5.1791,5.1791,5.1791,5.1791,5.059,4.8828,4.9216,4.8246,4.6728,4.7569,4.7987,4.8173,4.8729,4.8913,4.8972,4.9375,4.9824,5.0332,5.1172,5.1738,5.2168,5.2598,5.3027,5.3021,5.1259,4.9371,4.8098,4.8954,4.9402,4.9608,4.9608,4.9923,5.029,5.0438,5.107,5.1892,5.2757,5.349,5.4005,5.4263,5.4062,5.4007,5.4392,5.4079,5.3931,5.4351,5.3863,5.3489,5.355,5.3381,5.2176,4.9616,4.9077,4.7074,4.3107,4.2438,4.1573,4.0147,4.0361,4.0481,4.0481,4.0481,4.0481,4.0481,4.0481,4.0508,0.0,0.0,0.0,5.2894,0.0,0.0,5.3152,5.347,5.4006,5.4979,5.6052,5.7069,5.7911,5.8512,5.8921,5.9161,5.9185,5.956,6.0493,6.1135,6.1598,6.1884,6.2064,6.2327,6.2756,6.2581,6.2531,6.2781,6.2781,6.2781,6.2781,6.2781,6.2781,6.2781,6.2781,6.2206,6.0907,6.0355,5.8903,5.6496,5.5964,5.4741,5.2985,5.2985,5.2536,5.1791,5.1791,5.1791,5.1791,5.1791,5.0955,4.9702,4.963,4.8848,4.7875,4.8034,4.8219,4.8497,4.8775,4.8913,4.8952,4.916,4.9668,5.0234,5.0499,5.1191,5.1836,5.1894,5.1584,5.1227,5.1055,4.9141,4.7431,4.8563,4.8871,4.8954,4.93,4.9809,5.0374,5.0807,5.1553,5.232,5.2871,5.3457,5.3806,5.3806,5.3476,5.3439,5.3952,5.3696,5.3549,5.3892,5.363,5.3334,5.3135,5.3135,5.251,5.0956,5.022,4.8202,4.4457,4.3514,4.2083,4.004,4.0214,4.0361,4.0481,4.0481,4.0481,4.0481,4.0481,4.0548,0.0,0.0,0.0,0.0,5.3193,0.0,5.3451,5.3585,5.3647,5.3741,5.4536,5.5376,5.5965,5.648,5.6932,5.7502,5.767,5.8152,5.922,6.0462,6.1145,6.0801,6.1029,6.1608,6.259,6.2245,6.2119,6.2596,6.2606,6.2631,6.2681,6.2631,6.2606,6.2606,6.2656,6.243,6.1918,6.0841,5.9905,5.9102,5.8009,5.655,5.4807,5.4851,5.3878,5.2107,5.2107,5.1972,5.1791,5.1791,5.1474,5.0909,4.9997,4.965,4.9512,4.8544,4.8497,4.8913,4.8913,4.8913,4.8913,4.8913,4.948,5.0039,4.9648,5.0343,5.126,5.1016,4.9666,4.8634,5.0123,4.8362,4.6628,4.7981,4.8118,4.8064,4.8769,4.9432,5.0189,5.1124,5.1834,5.249,5.3018,5.3109,5.3109,5.3109,5.2742,5.2706,5.3531,5.3219,5.3092,5.3339,5.3373,5.3229,5.285,5.2814,5.2889,5.3091,5.1085,4.8824,4.6418,4.4311,4.2148,3.9933,4.0,4.0174,4.0481,4.0481,4.0481,4.0481,4.0481,4.0615,0.0,0.0,0.0,0.0,0.0,0.0,5.2493,5.2624,5.3191,5.3553,5.3762,5.418,5.5125,5.5311,5.5475,5.6012,5.6857,5.7917,5.913,5.9569,6.0106,6.1159,6.0909,6.106,6.2079,6.1667,6.1391,6.1492,6.1492,6.1692,6.2144,6.1743,6.1492,6.1492,6.1943,6.1893,6.1341,6.1546,6.0604,5.855,5.8747,5.7897,5.6137,5.6566,5.5772,5.4056,5.4056,5.3187,5.1791,5.1791,5.1474,5.0934,5.0382,4.9925,4.9558,4.8959,4.8821,4.8913,4.8913,4.8913,4.8913,4.8913,4.9219,4.9648,4.9551,5.0176,5.1055,5.166,5.0102,4.8506,4.9478,4.8201,4.6748,4.7039,4.7536,4.7927,4.8064,4.9185,5.031,5.0826,5.1673,5.249,5.3018,5.3109,5.3109,5.3109,5.245,5.2285,5.3127,5.256,5.2413,5.311,5.3165,5.311,5.3055,5.3055,5.3073,5.3109,5.2673,5.0459,4.6149,4.5787,4.3654,3.9378,3.9773,4.0174,4.0481,4.0481,4.0481,4.0481,4.0481,4.0508,0.0,0.0,0.0,5.3077,0.0,0.0,0.0,5.2742,5.2628,5.3247,5.2796,5.2556,5.3343,5.3406,5.3596,5.4377,5.483,5.5662,5.7201,5.8478,5.9463,5.9884,5.9838,6.0168,6.1156,6.0946,6.0864,6.1205,6.119,6.1316,6.1592,6.1341,6.119,6.119,6.1441,6.1316,6.0763,6.1316,6.0851,5.9377,5.9917,5.9346,5.7883,5.8141,5.7422,5.5902,5.5005,5.4056,5.3098,5.2197,5.1791,5.1635,5.0702,5.0154,4.9859,4.917,4.8913,4.8913,4.8913,4.8913,4.8913,4.8913,4.916,4.9445,4.9258,4.9805,5.0625,5.1269,5.0304,4.9108,4.912,4.8112,4.6992,4.6836,4.6936,4.7141,4.757,4.8682,4.9779,5.0134,5.1388,5.2563,5.3036,5.3109,5.3054,5.2852,5.2052,5.1761,5.2413,5.1742,5.1615,5.2688,5.2815,5.2907,5.3091,5.3109,5.3109,5.3109,5.198,4.9671,4.6053,4.4887,4.2698,3.9159,3.9673,4.0107,4.0254,4.0401,4.0481,4.0481,4.0481,4.0481,0.0,0.0,0.0,0.0,0.0,5.3762,0.0,0.0,0.0,5.2971,5.2044,5.1323,5.1772,5.1582,5.1628,5.2449,5.2577,5.3055,5.4507,5.671,5.817,5.8221,5.8202,5.8674,5.9871,5.9715,5.9935,6.0939,6.0613,6.0563,6.0989,6.0914,6.0864,6.0864,6.0964,6.0738,6.0161,6.0738,6.0738,6.0161,6.0738,6.0456,5.942,5.9542,5.8903,5.7557,5.5768,5.4829,5.4454,5.2581,5.1927,5.1951,5.0793,5.0362,5.0297,4.9262,4.8913,4.8913,4.8913,4.8913,4.8913,4.8913,4.9101,4.9355,4.9226,4.9597,5.0176,5.0762,5.0368,4.9629,4.8883,4.8069,4.7255,4.6613,4.6337,4.6406,4.7022,4.8071,4.8998,4.9407,5.099,5.2449,5.2907,5.3072,5.2926,5.2415,5.1638,5.1241,5.1508,5.0844,5.0809,5.207,5.2251,5.2379,5.2798,5.2962,5.2999,5.2999,5.0812,4.8434,4.5973,4.3129,4.0811,3.9159,3.9567,3.986,3.9967,4.0294,4.0462,4.0481,4.0481,4.0481,0.0,0.0,0.0,0.0,5.6451,0.0,0.0,0.0,5.3937,5.2956,0.0,5.157,5.1606,0.0,0.0,4.9987,5.0929,5.1708,5.1935,5.3107,5.4758,5.6913,5.5891,5.5864,5.7963,5.7261,5.7725,6.0236,5.8566,5.8315,6.0311,5.996,5.9684,5.9684,6.0161,6.0161,5.9583,6.0136,6.0136,5.9583,6.0161,6.0319,6.0197,6.0736,6.0268,5.8897,5.7067,5.5629,5.4454,5.2581,5.1293,5.0519,5.0382,5.0545,5.0752,4.94,4.8913,4.8913,4.8913,4.8913,4.8913,4.8913,4.8933,4.9109,4.9852,4.9824,4.9797,5.0987,5.0319,4.9147,4.8546,4.8069,4.7327,4.5683,4.5772,4.6251,4.6337,4.7233,4.8252,4.8946,5.034,5.1697,5.2467,5.2889,5.2817,5.1929,5.1369,5.0902,5.0456,4.9975,5.0117,5.1152,5.1242,5.1474,5.201,5.234,5.2595,5.2595,5.0654,4.8434,4.5973,4.1532,3.9129,3.91,3.9167,3.946,3.9967,4.0067,4.0214,4.0481,4.0481,4.0481,0.0,0.0,0.0,0.0,0.0,0.0,0.0,0.0,5.3229,0.0,0.0,0.0,0.0,0.0,0.0,0.0,4.9591,4.9842,5.0569,5.0587,5.1718,5.4952,5.4621,5.4743,5.6296,5.589,5.6215,5.7813,5.7187,5.735,5.8817,5.9006,5.9182,5.9483,5.9709,5.9734,5.9483,5.9734,5.9734,5.9483,5.9734,6.001,6.0337,6.0563,6.0567,6.026,5.8723,5.7156,5.5586,5.408,5.2381,5.0747,5.0428,5.0108,4.9722,4.9124,4.8913,4.8913,4.8913,4.8913,4.8913,4.8913,4.8913,4.8972,4.9343,4.9473,4.9582,5.0128,5.0038,4.9502,4.8219,4.8126,4.7949,4.613,4.6166,4.6491,4.6269,4.7111,4.7899,4.7988,4.9582,5.1,5.1057,5.166,5.1902,5.1524,5.0842,5.043,5.0483,5.0273,5.0275,5.072,5.1474,5.189,5.1782,5.2416,5.287,5.287,4.9419,4.635,4.3883,4.054,3.874,3.8846,3.9239,3.9519,3.9786,4.0107,4.0361,4.0481,4.0481,4.0481,5.8411,0.0,0.0,0.0,0.0,0.0,0.0,0.0,0.0,0.0,0.0,0.0,0.0,0.0,0.0,0.0,0.0,4.8357,4.9052,4.8686,4.9554,5.2872,5.3346,5.3661,5.4352,5.4232,5.4592,5.576,5.5703,5.6202,5.7562,5.8202,5.873,5.9257,5.9408,5.9483,5.9483,5.9483,5.9483,5.9483,5.9483,5.9709,6.0085,6.0085,6.0412,6.0885,5.9374,5.8112,5.6897,5.4976,5.3069,5.1338,5.0474,4.9642,4.8913,4.8913,4.8913,4.8913,4.8913,4.8913,4.8913,4.8913,4.8913,4.8933,4.905,4.9277,4.9523,4.9805,5.0098,4.9952,4.8225,4.831,4.8324,4.6336,4.62,4.6406,4.6132,4.6867,4.7527,4.7332,4.8932,5.0303,5.001,5.0798,5.1351,5.0973,5.0424,5.0103,5.0204,5.0143,5.0165,5.0323,5.1201,5.1743,5.1584,5.2343,5.2599,5.2144,4.8128,4.4752,4.2389,3.9938,3.8593,3.8718,3.9167,3.9519,3.9599,4.0107,4.0401,4.0481,4.0481,4.0481,0.0,0.0,0.0,0.0,0.0,0.0,0.0,0.0,5.6531,0.0,0.0,0.0,0.0,0.0,0.0,0.0,0.0,0.0,0.0,4.7414,4.8705,5.0858,5.1724,5.207,5.1935,5.1723,5.2526,5.4771,5.3939,5.4395,5.691,5.76,5.8177,5.8691,5.9232,5.9483,5.9483,5.9483,5.9483,5.9483,5.9483,5.9508,5.9533,5.9533,5.9834,6.0219,5.8425,5.7909,5.8038,5.4532,5.2736,5.209,5.0392,4.9364,4.8913,4.8913,4.8913,4.8913,4.8913,4.8913,4.8913,4.8913,4.8913,4.8991,4.9375,4.9465,4.9707,5.0527,5.0781,5.0397,4.87,4.8561,4.8161,4.5729,4.543,4.5737,4.5737,4.6256,4.6871,4.7226,4.8531,4.9533,4.9514,5.0853,5.143,5.0121,5.0233,5.0112,4.9175,4.9069,4.9244,4.9838,4.9979,5.0351,5.1259,5.168,5.1244,4.9692,4.7007,4.456,4.2389,3.9717,3.8397,3.866,3.8953,3.9306,3.9599,3.9893,4.0187,4.0481,4.0481,4.0481,0.0,0.0,6.3379,6.0747,0.0,0.0,0.0,0.0,0.0,0.0,0.0,0.0,0.0,0.0,0.0,0.0,0.0,0.0,0.0,4.6624,4.7452,4.8534,5.0156,5.0838,4.9883,5.0619,5.1535,5.2423,5.2949,5.3846,5.534,5.662,5.7562,5.8152,5.9031,5.9483,5.9483,5.9483,5.9483,5.9483,5.9483,5.9483,5.9483,5.9483,5.9583,5.9745,5.9508,5.8818,5.778,5.6636,5.4449,5.1735,5.0899,4.9696,4.8457,4.8796,4.8913,4.8913,4.8913,4.8913,4.8913,4.8913,4.8913,4.8991,4.9394,4.9484,4.9648,5.0234,5.0391,5.0202,4.9139,4.9161,4.8953,4.6998,4.6826,4.6917,4.6367,4.6684,4.7149,4.7393,4.8334,4.9111,4.9111,4.979,5.0361,5.041,5.0303,5.0215,5.0115,5.0351,5.048,5.034,5.0839,5.1198,5.1184,5.1649,5.0992,4.8987,4.6484,4.4163,4.2137,3.9607,3.8397,3.866,3.9199,3.9493,3.9599,4.008,4.0361,4.0481,4.0481,4.0481,6.3706,6.4186,0.0,0.0,6.1686,0.0,0.0,0.0,0.0,0.0,0.0,0.0,0.0,0.0,0.0,0.0,0.0,0.0,0.0,4.6217,4.6642,4.6947,4.8583,4.9574,4.9196,4.9669,5.0396,5.1347,5.1967,5.2974,5.4511,5.5767,5.6759,5.7575,5.8453,5.893,5.893,5.9131,5.9131,5.893,5.9307,5.9408,5.9232,5.9408,5.9483,5.9508,5.9885,5.9359,5.8213,5.7548,5.5316,5.2218,5.1139,4.961,4.8027,4.8476,4.8776,4.8913,4.8913,4.8913,4.8913,4.8913,4.8913,4.8952,4.9199,4.9394,4.966,5.0605,5.0644,5.0366,5.0196,4.9977,4.9379,4.7515,4.7261,4.7215,4.6429,4.6731,4.7164,4.7464,4.8235,4.8909,4.8909,4.9239,4.9735,5.0413,5.0285,5.0233,5.067,5.0945,5.0953,5.0585,5.1085,5.141,5.1166,5.1631,5.0956,4.876,4.6281,4.4023,4.2137,3.9607,3.8758,3.9786,3.9666,3.996,4.0695,4.0548,4.0481,4.0481,4.0481,4.0481]},{"header":{"parameterUnit":"m.s-1","parameterCategory":1,"la1":30.6,"la2":29.2853,"lo1":-89.7004,"lo2":-87.6739,"dy":0.0162,"dx":0.0183,"nx":112,"ny":82,"refTime":"2023-11-13T18:00:00:Z","depth":0,"parameterNumber":3,"parameterNumberName":"V-component_of_WINDS"},"data":[0.0,0.0,0.0,0.0,0.0,0.0,0.0,0.0,0.0,0.0,0.0,0.0,0.0,0.0,0.0,0.0,0.0,0.0,0.0,0.0,0.0,0.0,0.0,0.0,0.0,0.0,0.0,0.0,0.0,0.0,0.0,0.0,0.0,0.0,0.0,0.0,0.0,0.0,0.0,0.0,0.0,0.0,0.0,0.0,0.0,0.0,0.0,0.0,0.0,0.0,0.0,0.0,0.0,0.0,0.0,0.0,0.0,0.0,0.0,0.0,0.0,0.0,0.0,0.0,0.0,0.0,0.0,0.0,0.0,0.0,0.0,0.0,0.0,0.0,0.0,0.0,0.0,0.0,0.0,0.0,0.0,0.0,0.0,0.0,0.0,0.0,0.0,0.0,0.0,0.0,6.313,6.3297,6.5275,6.7747,7.0572,7.0897,6.9836,6.7158,0.0,0.0,0.0,0.0,0.0,0.0,0.0,0.0,0.0,0.0,0.0,0.0,0.0,0.0,0.0,0.0,0.0,0.0,0.0,0.0,0.0,0.0,0.0,0.0,0.0,0.0,0.0,0.0,0.0,0.0,0.0,0.0,0.0,0.0,0.0,0.0,0.0,0.0,0.0,0.0,0.0,0.0,0.0,0.0,0.0,0.0,0.0,0.0,0.0,0.0,0.0,0.0,0.0,0.0,0.0,0.0,0.0,0.0,0.0,0.0,0.0,0.0,0.0,0.0,0.0,0.0,0.0,0.0,0.0,0.0,0.0,0.0,0.0,0.0,0.0,0.0,0.0,0.0,0.0,0.0,0.0,0.0,0.0,0.0,0.0,0.0,0.0,0.0,0.0,0.0,0.0,0.0,0.0,0.0,0.0,0.0,0.0,0.0,0.0,0.0,0.0,0.0,0.0,0.0,6.3,6.5726,6.6348,6.7747,7.0572,7.1362,7.0396,6.7192,0.0,0.0,0.0,0.0,0.0,0.0,0.0,0.0,0.0,0.0,0.0,0.0,0.0,0.0,0.0,0.0,0.0,0.0,0.0,0.0,0.0,0.0,0.0,0.0,0.0,0.0,0.0,0.0,0.0,0.0,0.0,0.0,0.0,0.0,0.0,0.0,0.0,0.0,0.0,0.0,0.0,0.0,0.0,0.0,0.0,0.0,0.0,0.0,0.0,0.0,0.0,0.0,0.0,0.0,0.0,0.0,0.0,0.0,0.0,0.0,0.0,0.0,0.0,0.0,0.0,0.0,0.0,0.0,0.0,0.0,0.0,0.0,0.0,0.0,0.0,0.0,0.0,0.0,0.0,0.0,0.0,0.0,0.0,0.0,0.0,0.0,0.0,0.0,0.0,0.0,0.0,0.0,0.0,0.0,0.0,0.0,0.0,0.0,0.0,0.0,0.0,0.0,0.0,6.2201,6.3372,6.6311,6.6617,6.7747,7.0572,7.1485,7.045,6.7035,6.6964,0.0,0.0,0.0,0.0,0.0,0.0,0.0,0.0,0.0,0.0,0.0,0.0,0.0,0.0,0.0,0.0,0.0,0.0,0.0,0.0,0.0,0.0,0.0,0.0,0.0,0.0,0.0,0.0,0.0,0.0,0.0,0.0,0.0,0.0,0.0,0.0,0.0,0.0,0.0,0.0,0.0,0.0,0.0,0.0,0.0,0.0,0.0,0.0,0.0,0.0,0.0,0.0,0.0,0.0,0.0,0.0,0.0,0.0,0.0,0.0,0.0,0.0,0.0,0.0,0.0,0.0,0.0,0.0,0.0,0.0,0.0,0.0,0.0,0.0,0.0,0.0,0.0,0.0,0.0,0.0,0.0,0.0,0.0,0.0,0.0,0.0,0.0,0.0,0.0,0.0,0.0,0.0,0.0,0.0,0.0,0.0,0.0,0.0,0.0,0.0,0.0,0.0,6.3191,6.4412,6.638,6.6617,6.7657,7.0307,7.1362,7.036,6.6735,6.7204,0.0,0.0,0.0,0.0,0.0,0.0,0.0,0.0,0.0,0.0,0.0,0.0,0.0,0.0,0.0,0.0,0.0,0.0,0.0,0.0,0.0,0.0,0.0,0.0,0.0,0.0,0.0,0.0,0.0,0.0,0.0,0.0,0.0,0.0,0.0,0.0,0.0,0.0,0.0,0.0,0.0,0.0,0.0,0.0,0.0,0.0,0.0,0.0,0.0,0.0,0.0,0.0,0.0,0.0,0.0,0.0,0.0,0.0,0.0,0.0,0.0,0.0,0.0,0.0,0.0,0.0,0.0,0.0,0.0,0.0,0.0,0.0,0.0,0.0,0.0,0.0,0.0,0.0,0.0,0.0,0.0,0.0,0.0,0.0,0.0,0.0,0.0,0.0,0.0,0.0,0.0,0.0,0.0,0.0,0.0,0.0,0.0,0.0,0.0,0.0,0.0,0.0,6.4646,6.6412,6.6586,6.6617,6.7465,6.9532,7.1063,7.0205,6.6209,6.699,0.0,0.0,0.0,0.0,0.0,0.0,0.0,0.0,0.0,0.0,0.0,0.0,0.0,0.0,0.0,0.0,0.0,0.0,0.0,0.0,0.0,0.0,0.0,0.0,0.0,0.0,0.0,0.0,0.0,0.0,0.0,0.0,0.0,0.0,0.0,0.0,0.0,0.0,0.0,0.0,0.0,0.0,0.0,0.0,0.0,0.0,0.0,0.0,0.0,0.0,0.0,0.0,0.0,0.0,0.0,0.0,0.0,0.0,0.0,0.0,0.0,0.0,0.0,0.0,0.0,0.0,0.0,0.0,0.0,0.0,0.0,0.0,0.0,0.0,0.0,0.0,0.0,0.0,0.0,0.0,0.0,0.0,0.0,0.0,0.0,0.0,0.0,0.0,0.0,0.0,0.0,0.0,0.0,0.0,0.0,0.0,0.0,0.0,0.0,0.0,0.0,0.0,6.4159,6.5625,0.0,6.7846,6.853,6.9278,7.1945,7.1174,6.5561,0.0,0.0,0.0,0.0,0.0,0.0,0.0,0.0,0.0,0.0,0.0,0.0,0.0,0.0,0.0,0.0,0.0,0.0,0.0,0.0,0.0,0.0,0.0,0.0,0.0,0.0,0.0,0.0,0.0,0.0,0.0,0.0,0.0,0.0,0.0,0.0,0.0,0.0,0.0,0.0,0.0,0.0,0.0,0.0,0.0,0.0,0.0,0.0,0.0,0.0,0.0,0.0,0.0,0.0,0.0,0.0,0.0,0.0,0.0,0.0,0.0,0.0,0.0,0.0,0.0,0.0,0.0,0.0,0.0,0.0,0.0,0.0,0.0,0.0,0.0,0.0,0.0,0.0,0.0,0.0,0.0,0.0,0.0,0.0,0.0,0.0,0.0,0.0,0.0,0.0,0.0,0.0,0.0,0.0,0.0,0.0,0.0,0.0,0.0,0.0,0.0,0.0,6.3561,6.5132,6.6816,0.0,6.9624,7.0204,7.0503,7.3017,7.2011,6.5863,0.0,0.0,0.0,0.0,0.0,0.0,0.0,0.0,0.0,0.0,0.0,0.0,0.0,0.0,0.0,0.0,0.0,0.0,0.0,0.0,0.0,0.0,0.0,0.0,0.0,0.0,0.0,0.0,0.0,0.0,0.0,0.0,0.0,0.0,0.0,0.0,0.0,0.0,0.0,0.0,0.0,0.0,0.0,0.0,0.0,0.0,0.0,0.0,0.0,0.0,0.0,0.0,0.0,0.0,0.0,0.0,0.0,0.0,0.0,0.0,0.0,0.0,0.0,0.0,0.0,0.0,0.0,0.0,0.0,0.0,0.0,0.0,0.0,0.0,0.0,0.0,0.0,0.0,0.0,0.0,0.0,0.0,0.0,0.0,0.0,0.0,0.0,0.0,0.0,0.0,0.0,0.0,0.0,0.0,0.0,0.0,0.0,0.0,0.0,0.0,0.0,0.0,6.4862,6.8089,7.0754,7.1794,7.1941,7.2328,7.3306,7.4155,7.2415,0.0,0.0,0.0,0.0,0.0,0.0,0.0,0.0,0.0,0.0,0.0,0.0,0.0,0.0,0.0,0.0,0.0,0.0,0.0,0.0,0.0,0.0,0.0,0.0,0.0,0.0,0.0,0.0,0.0,0.0,0.0,0.0,0.0,0.0,0.0,0.0,0.0,0.0,0.0,0.0,0.0,0.0,0.0,0.0,0.0,0.0,0.0,0.0,0.0,0.0,0.0,0.0,0.0,0.0,0.0,0.0,0.0,0.0,0.0,0.0,0.0,0.0,0.0,0.0,0.0,0.0,0.0,0.0,0.0,0.0,0.0,0.0,0.0,0.0,0.0,0.0,0.0,0.0,0.0,0.0,0.0,0.0,0.0,0.0,0.0,0.0,0.0,0.0,0.0,0.0,0.0,0.0,0.0,0.0,0.0,0.0,0.0,0.0,0.0,0.0,0.0,0.0,0.0,6.7404,7.0325,7.2497,7.3384,7.4141,7.4148,7.3129,7.5122,7.3567,6.685,0.0,0.0,0.0,0.0,0.0,0.0,0.0,0.0,0.0,0.0,0.0,0.0,0.0,0.0,0.0,0.0,0.0,0.0,0.0,0.0,0.0,0.0,0.0,0.0,0.0,0.0,0.0,0.0,0.0,0.0,0.0,0.0,0.0,0.0,0.0,0.0,0.0,0.0,0.0,0.0,0.0,0.0,0.0,0.0,0.0,0.0,0.0,0.0,0.0,0.0,0.0,0.0,0.0,0.0,0.0,0.0,0.0,0.0,0.0,0.0,0.0,0.0,0.0,0.0,0.0,0.0,0.0,0.0,0.0,0.0,0.0,0.0,0.0,0.0,0.0,0.0,0.0,0.0,0.0,0.0,0.0,0.0,0.0,0.0,0.0,0.0,0.0,0.0,0.0,0.0,0.0,0.0,0.0,0.0,0.0,0.0,0.0,0.0,0.0,0.0,0.0,0.0,6.8956,7.2565,7.5268,7.6163,7.6833,7.6758,7.5629,7.7111,7.5568,6.9594,0.0,0.0,0.0,0.0,0.0,0.0,0.0,0.0,0.0,0.0,0.0,0.0,0.0,0.0,0.0,0.0,0.0,0.0,0.0,0.0,0.0,0.0,0.0,0.0,0.0,0.0,0.0,0.0,0.0,0.0,0.0,0.0,0.0,0.0,0.0,0.0,0.0,0.0,0.0,0.0,0.0,0.0,0.0,0.0,0.0,0.0,0.0,0.0,0.0,0.0,0.0,0.0,0.0,0.0,0.0,0.0,0.0,0.0,0.0,0.0,0.0,0.0,0.0,0.0,0.0,0.0,0.0,0.0,0.0,0.0,0.0,0.0,0.0,0.0,0.0,0.0,0.0,0.0,0.0,0.0,0.0,0.0,0.0,0.0,0.0,0.0,0.0,0.0,0.0,0.0,0.0,0.0,0.0,0.0,0.0,0.0,0.0,0.0,0.0,0.0,0.0,0.0,6.987,7.4752,7.8476,7.9487,7.958,7.9545,7.9534,7.9477,7.7856,7.4037,0.0,0.0,0.0,0.0,0.0,0.0,0.0,0.0,0.0,0.0,0.0,0.0,0.0,0.0,0.0,0.0,0.0,0.0,0.0,0.0,0.0,0.0,0.0,0.0,0.0,0.0,0.0,0.0,0.0,0.0,0.0,0.0,0.0,0.0,0.0,0.0,0.0,0.0,0.0,0.0,0.0,0.0,0.0,0.0,0.0,0.0,0.0,0.0,0.0,0.0,0.0,0.0,0.0,0.0,0.0,0.0,0.0,0.0,0.0,0.0,5.9518,0.0,0.0,0.0,0.0,0.0,0.0,0.0,0.0,0.0,0.0,0.0,0.0,0.0,0.0,0.0,0.0,0.0,0.0,0.0,0.0,0.0,0.0,0.0,0.0,0.0,0.0,0.0,0.0,0.0,0.0,0.0,0.0,0.0,0.0,0.0,0.0,0.0,0.0,0.0,0.0,0.0,7.1807,7.6207,7.9474,8.0281,8.0373,8.0132,7.9545,7.9314,7.7617,7.4016,7.2918,0.0,0.0,0.0,0.0,0.0,0.0,0.0,0.0,0.0,0.0,0.0,0.0,0.0,0.0,0.0,0.0,0.0,0.0,0.0,0.0,0.0,0.0,0.0,0.0,0.0,0.0,0.0,0.0,0.0,0.0,0.0,0.0,0.0,0.0,0.0,0.0,0.0,0.0,0.0,0.0,0.0,0.0,0.0,0.0,0.0,0.0,0.0,0.0,0.0,0.0,0.0,0.0,0.0,0.0,0.0,0.0,0.0,0.0,0.0,0.0,6.0685,0.0,0.0,0.0,0.0,0.0,0.0,0.0,0.0,0.0,0.0,0.0,0.0,0.0,0.0,0.0,0.0,0.0,0.0,0.0,0.0,0.0,0.0,0.0,0.0,0.0,0.0,0.0,0.0,0.0,0.0,0.0,0.0,0.0,0.0,0.0,0.0,0.0,0.0,0.0,0.0,7.2933,7.7223,8.0304,8.1097,8.119,8.097,8.045,8.0392,7.9394,7.7043,7.5329,0.0,0.0,0.0,0.0,0.0,0.0,0.0,0.0,0.0,0.0,0.0,0.0,0.0,0.0,0.0,0.0,0.0,0.0,0.0,0.0,0.0,0.0,0.0,0.0,0.0,0.0,0.0,0.0,0.0,0.0,0.0,0.0,0.0,0.0,0.0,0.0,0.0,0.0,0.0,0.0,0.0,0.0,0.0,0.0,0.0,0.0,0.0,0.0,0.0,0.0,0.0,0.0,0.0,6.2053,6.2714,6.4056,6.2864,6.3498,6.5503,6.4694,6.4093,6.3551,0.0,0.0,0.0,0.0,0.0,0.0,0.0,0.0,0.0,0.0,0.0,0.0,0.0,0.0,0.0,0.0,0.0,0.0,0.0,0.0,0.0,0.0,0.0,0.0,0.0,7.7662,7.8123,0.0,0.0,0.0,0.0,0.0,0.0,0.0,0.0,0.0,0.0,0.0,0.0,7.3934,7.7948,8.089,8.1707,8.181,8.1715,8.1466,8.1644,8.1323,8.0308,7.7938,7.5819,0.0,0.0,0.0,0.0,0.0,0.0,0.0,0.0,0.0,0.0,0.0,0.0,0.0,0.0,0.0,0.0,0.0,0.0,0.0,0.0,0.0,0.0,0.0,0.0,0.0,0.0,0.0,0.0,0.0,0.0,0.0,0.0,5.7846,5.862,0.0,0.0,0.0,0.0,0.0,0.0,0.0,0.0,0.0,0.0,0.0,0.0,0.0,6.1121,6.2038,6.2503,6.3433,6.4896,6.5173,6.5772,6.6551,6.691,6.7299,6.7658,6.8989,0.0,6.5666,6.603,0.0,0.0,0.0,0.0,0.0,0.0,0.0,0.0,0.0,0.0,0.0,0.0,0.0,0.0,0.0,0.0,0.0,0.0,0.0,0.0,0.0,0.0,7.7773,8.0721,8.1563,8.1894,0.0,7.8982,7.5016,7.283,7.2243,0.0,0.0,0.0,0.0,0.0,0.0,0.0,7.5499,7.8615,8.089,8.1707,8.181,8.1787,8.1763,8.1596,8.1204,8.0602,7.9967,7.858,7.6206,7.4722,0.0,0.0,0.0,0.0,0.0,0.0,0.0,0.0,0.0,0.0,0.0,0.0,0.0,0.0,0.0,0.0,0.0,0.0,0.0,0.0,0.0,0.0,0.0,0.0,0.0,0.0,0.0,0.0,0.0,5.7128,5.8354,5.9039,5.8724,5.8091,0.0,0.0,0.0,0.0,0.0,0.0,0.0,0.0,0.0,6.2723,6.2723,6.3422,6.4992,6.5173,6.5832,6.6883,6.703,6.7478,6.8136,6.8435,6.8555,6.8646,7.0091,7.0178,6.9241,6.8384,6.6671,6.4554,0.0,0.0,0.0,0.0,6.4151,6.444,6.5701,6.6098,0.0,6.6185,0.0,0.0,0.0,0.0,0.0,0.0,0.0,0.0,0.0,0.0,0.0,8.206,8.295,8.3382,8.3861,8.1821,7.9362,0.0,7.6464,7.4636,7.067,0.0,0.0,0.0,0.0,7.4774,7.7085,7.927,8.089,8.1707,8.181,8.1739,8.1562,8.162,8.1448,8.108,8.088,8.0351,7.9245,7.7172,7.506,0.0,0.0,0.0,0.0,0.0,0.0,0.0,0.0,0.0,0.0,0.0,0.0,0.0,0.0,0.0,0.0,0.0,0.0,0.0,0.0,0.0,0.0,0.0,0.0,0.0,0.0,0.0,0.0,5.8488,5.9384,5.9765,5.9934,5.9452,0.0,0.0,0.0,0.0,0.0,0.0,6.1982,6.1613,6.2614,6.5341,6.5066,6.5646,6.7362,6.7453,6.7873,6.8651,6.8651,6.9008,6.9722,6.9733,6.9826,7.0068,7.1287,7.1954,7.206,7.0551,6.8828,6.7187,6.7211,6.6745,6.616,6.6741,6.7081,6.7359,6.8292,6.8654,6.8611,6.8489,0.0,6.8206,6.727,0.0,0.0,0.0,0.0,7.6286,7.7116,7.8896,8.0936,8.2769,8.3604,8.3993,8.3993,8.3221,8.2198,0.0,7.9856,7.7672,7.3636,0.0,0.0,0.0,0.0,7.6568,7.8706,8.0097,8.1155,8.1741,8.181,8.1739,8.1514,8.1691,8.1787,8.1705,8.1633,8.1673,8.1853,7.9608,7.7887,7.6935,0.0,0.0,0.0,0.0,0.0,0.0,0.0,0.0,0.0,0.0,0.0,0.0,0.0,0.0,0.0,0.0,0.0,0.0,0.0,0.0,0.0,0.0,0.0,0.0,0.0,0.0,0.0,0.0,0.0,6.1789,6.1536,0.0,0.0,0.0,0.0,6.0896,6.1866,6.3096,6.4694,6.502,6.5681,6.685,6.7185,6.7668,6.8421,6.8728,6.9394,7.038,7.038,7.0852,7.176,7.1747,7.2095,7.2764,7.3844,7.3787,7.2922,7.2768,7.2454,7.1975,7.1371,7.0508,6.9657,6.9973,7.0494,7.1271,7.2191,7.253,7.2489,7.2357,7.1078,6.958,6.9304,7.0733,0.0,0.0,7.5054,7.8173,7.9116,8.0713,8.2394,8.3645,8.3959,8.3993,8.3993,8.2687,8.1524,0.0,8.1063,7.9718,7.7339,0.0,7.6994,7.6891,7.7615,7.8775,8.027,8.1224,8.1776,8.181,8.181,8.181,8.1787,8.181,8.1988,8.2419,8.2453,8.2736,8.3353,8.2173,8.0557,7.8602,7.7299,0.0,0.0,0.0,0.0,0.0,0.0,0.0,0.0,0.0,0.0,0.0,0.0,0.0,0.0,0.0,0.0,0.0,0.0,0.0,0.0,0.0,0.0,0.0,0.0,0.0,0.0,0.0,0.0,6.2672,6.3652,0.0,6.3462,6.3851,6.4152,6.4246,6.4963,6.5922,6.7124,6.7275,6.8118,6.9768,6.9954,7.053,7.1616,7.2031,7.2274,7.237,7.308,7.3356,7.3262,7.37,7.405,7.4265,7.4646,7.4871,7.4936,7.4842,7.4282,7.3426,7.3592,7.3428,7.312,7.3237,7.3424,7.3642,7.3541,7.3992,7.4446,7.3481,7.2388,7.1518,7.1916,7.3415,7.5022,7.5457,7.7946,8.0359,7.992,8.0876,8.2051,8.2473,8.2604,8.2604,8.2604,8.2118,8.1691,8.1787,8.1427,8.0551,7.8729,7.9797,8.0201,7.8235,7.9465,8.0776,8.1293,8.1638,8.181,8.181,8.181,8.181,8.181,8.181,8.181,8.18,8.2373,8.2726,8.2804,8.3002,8.2523,8.1324,8.069,7.8335,0.0,0.0,0.0,0.0,0.0,0.0,0.0,0.0,0.0,0.0,0.0,0.0,0.0,0.0,0.0,0.0,0.0,0.0,0.0,0.0,0.0,0.0,0.0,0.0,0.0,6.1799,6.3475,6.4284,6.588,6.6849,6.6552,6.7065,6.7425,6.7359,6.7963,6.8842,6.9904,7.0153,7.1064,7.2724,7.3043,7.3624,7.4621,7.5112,7.5177,7.4818,7.5534,7.5566,7.5014,7.5448,7.5675,7.5675,7.5928,7.6275,7.6651,7.6619,7.6521,7.6283,7.578,7.5592,7.5561,7.534,7.5669,7.6175,7.5877,7.5945,7.6022,7.507,7.455,7.43,7.468,7.6184,7.7716,7.7654,7.9676,8.1572,8.0655,8.1278,8.2224,8.25,8.2535,8.2535,8.2535,8.2463,8.2391,8.2391,8.1964,8.1204,8.0207,8.1416,8.1752,7.9384,8.0625,8.1683,8.1336,8.1591,8.181,8.181,8.181,8.1763,8.1657,8.128,8.1224,8.1707,8.192,8.2292,8.2781,8.2857,8.2665,8.2115,8.1719,7.9612,7.5739,0.0,0.0,0.0,0.0,0.0,0.0,0.0,0.0,0.0,0.0,0.0,0.0,0.0,0.0,0.0,0.0,0.0,0.0,0.0,0.0,0.0,0.0,0.0,6.1765,6.3359,6.5214,6.6838,6.8297,6.9276,6.961,6.9699,6.9865,7.0207,7.081,7.1797,7.3166,7.3836,7.461,7.5636,7.638,7.6883,7.7268,7.7921,7.8051,7.7696,7.7728,7.7535,7.7114,7.7144,7.7119,7.715,7.7778,7.8057,7.8057,7.8057,7.9173,8.0615,7.8068,7.7106,7.7103,7.644,7.7342,7.8953,7.9441,7.8684,7.7423,7.7423,7.7681,7.7896,7.7537,7.8916,8.0337,7.8898,8.0116,8.1778,8.1409,8.2089,8.3097,8.3821,8.3993,8.3993,8.3993,8.3797,8.359,8.359,8.2676,8.1879,8.1856,8.1879,8.1567,8.0562,8.1254,0.0,8.0504,8.122,8.181,8.181,8.1776,8.1681,8.1452,8.029,8.0363,8.228,8.1319,8.1533,8.3494,8.1864,8.0926,8.094,8.0189,7.9417,7.863,0.0,0.0,0.0,0.0,0.0,0.0,0.0,0.0,0.0,0.0,0.0,0.0,0.0,0.0,0.0,0.0,0.0,0.0,0.0,0.0,0.0,6.3003,6.4029,6.4034,6.6343,6.8481,6.9688,7.1706,7.2895,7.2699,7.3824,7.4691,7.5025,7.4982,7.5863,7.8077,7.7836,7.8233,7.9499,7.9768,8.0029,8.0414,8.0851,8.0637,7.9774,8.0565,8.0347,7.926,7.9787,8.0045,8.0014,7.9164,7.8816,7.8815,7.9161,7.9629,8.0024,7.9312,7.9886,8.1094,8.0927,8.0832,8.0982,8.1966,8.1357,8.0138,8.019,7.9862,7.9566,8.0064,8.0631,8.1279,8.2178,8.2775,8.3115,8.3188,8.3306,8.3498,8.39,8.3993,8.3993,8.3993,8.3945,8.3896,8.3896,8.36,8.3324,8.3129,8.3758,8.3959,8.3093,8.3211,0.0,8.2267,8.197,8.181,8.181,8.1293,8.1278,8.2139,8.1213,8.1135,8.2418,8.2314,8.2432,8.2806,8.2129,8.1791,8.1769,8.047,7.9698,0.0,0.0,0.0,0.0,0.0,0.0,0.0,0.0,0.0,0.0,0.0,0.0,0.0,0.0,0.0,0.0,0.0,0.0,0.0,0.0,0.0,0.0,6.5646,6.7517,6.8601,7.0024,7.1542,7.3274,7.5359,7.6839,7.7316,7.8083,7.8876,7.9549,7.9059,7.9606,8.1543,8.1083,8.1203,8.2127,8.2327,8.2532,8.274,8.3534,8.3485,8.2593,8.3511,8.3199,8.1893,8.2523,8.2684,0.0,8.1802,8.1593,8.1589,8.1522,8.1804,0.0,0.0,0.0,0.0,0.0,8.3002,8.2529,8.3736,8.3372,8.2374,8.2433,8.2126,8.1794,8.2296,8.2433,8.266,8.3709,8.3896,8.3891,8.4383,8.4378,8.4373,8.4865,8.4984,8.4984,8.4984,8.4984,8.4984,8.4984,8.4984,0.0,8.4751,8.4712,8.4383,8.3492,8.3738,8.3693,8.2838,8.2607,8.2539,8.2539,8.2256,8.2139,8.2482,8.1688,0.0,0.0,0.0,8.1863,8.1728,8.1642,0.0,0.0,0.0,8.0575,8.1207,0.0,0.0,0.0,7.8178,7.8142,0.0,0.0,0.0,0.0,0.0,0.0,0.0,0.0,0.0,0.0,0.0,0.0,0.0,0.0,0.0,0.0,6.9123,7.2228,7.4274,7.4337,7.4961,7.7075,7.905,8.0761,8.2072,8.2134,8.2538,8.3534,8.2904,8.2983,8.4182,0.0,0.0,0.0,0.0,8.4863,8.4803,8.6091,8.6403,8.5673,8.6305,8.5965,8.4773,8.5246,8.5167,8.4702,8.5156,8.5384,8.5318,8.4627,8.4991,8.5763,8.3826,8.311,8.3249,8.4318,8.4284,8.3872,8.497,0.0,0.0,8.421,8.421,8.421,8.421,8.421,8.421,8.4235,8.4235,8.4383,8.5156,8.5304,8.5476,8.6156,8.6294,8.6294,8.6294,8.6294,8.6294,8.6294,8.6294,8.6294,8.6294,8.5131,8.3896,8.3012,8.3522,8.3709,8.2801,8.3222,8.3541,8.3541,0.0,0.0,8.2722,8.199,8.1872,8.2557,8.1608,8.0994,8.0889,8.1169,8.1204,8.1029,8.1204,8.1993,8.3454,8.3384,8.3805,8.4543,7.9899,7.9772,0.0,0.0,0.0,0.0,0.0,0.0,0.0,0.0,0.0,0.0,0.0,0.0,0.0,0.0,0.0,6.9775,7.2952,7.5789,7.7821,7.9907,8.0794,7.9644,8.1796,8.3304,8.3009,8.473,8.5911,8.5993,8.5575,8.5931,8.7362,8.7041,8.7154,8.7829,8.8303,8.8479,8.8464,8.8763,8.8518,8.7788,0.0,0.0,8.7631,8.7729,8.7977,8.8275,8.7849,8.767,8.7626,8.7278,8.7484,8.7856,8.6243,8.5592,8.5618,8.5856,8.5864,8.5777,8.6012,8.5984,8.5796,8.5596,8.552,8.552,8.552,8.552,0.0,8.5771,8.5696,8.5605,8.6003,8.5937,8.5871,8.621,8.6294,8.6294,8.6294,8.6294,8.6294,8.6294,8.6294,8.6294,8.6294,8.5877,8.5486,8.5263,8.4675,8.4147,8.3985,8.3549,8.3276,8.3276,8.3174,8.3207,8.336,8.2928,8.2832,8.3334,8.3561,8.3388,8.2721,8.3362,8.3691,8.3668,8.3691,8.4156,8.5069,8.4472,8.4894,8.6193,8.3978,8.338,0.0,0.0,0.0,0.0,0.0,0.0,0.0,0.0,0.0,0.0,0.0,6.3025,6.6094,0.0,7.0585,7.3324,7.6204,7.8944,8.1363,8.3176,8.385,8.2786,8.456,8.588,8.6019,8.7094,8.7996,8.853,8.7815,8.7976,8.9279,8.8874,8.8764,8.9139,8.937,8.9426,8.9213,8.9706,8.9655,8.896,9.0016,9.0325,9.003,9.0634,9.1067,9.1331,9.0895,9.068,9.0669,9.014,9.0094,9.0192,8.9019,8.7846,8.6811,8.6432,8.6536,8.6846,8.6846,8.7122,8.7382,8.71,8.6851,8.6618,8.6465,8.6301,8.6118,8.6244,8.6194,8.6118,8.6269,8.6194,8.6118,8.6269,8.6294,8.6294,8.6294,8.6294,8.6244,8.6118,8.6093,8.6043,8.5916,8.566,8.5583,8.5865,8.5446,8.5053,8.4934,8.4694,8.4556,8.4556,8.4811,8.4921,8.4775,8.4414,8.4316,8.4564,8.4793,8.4788,8.4367,8.4753,8.4964,8.4964,8.459,8.4753,8.5491,8.5139,8.5561,8.6684,8.6298,8.5701,0.0,0.0,0.0,0.0,0.0,0.0,0.0,6.0612,6.1653,6.3575,6.4724,6.6279,6.923,7.2191,7.4809,7.6759,7.9481,8.2095,8.4282,8.5474,8.6135,8.6225,8.7214,8.8185,8.905,8.9146,8.9531,9.0457,8.9661,8.9525,9.0345,9.004,8.9766,8.9681,8.9834,8.9877,8.9845,9.07,9.0952,9.073,9.2419,9.2999,9.2613,9.3585,9.4125,9.4214,9.3917,9.3675,9.3503,9.2744,9.2261,9.195,9.1295,8.9743,8.7777,8.7191,8.7329,8.7821,8.7597,8.7976,8.8442,8.8122,8.7762,8.7435,8.7255,8.6971,8.6667,8.6717,8.6742,8.6708,8.657,8.6536,8.6501,8.6329,8.6432,8.6536,8.6536,8.6589,8.6522,8.6182,8.6071,8.5969,8.5771,8.5537,8.5469,8.572,8.5712,8.5583,8.5351,8.5609,8.5814,8.578,8.6593,8.6827,8.6087,8.5717,8.5491,8.5491,8.5631,8.5736,8.5736,8.5736,8.5807,8.5947,8.5245,8.521,8.5947,8.5947,8.6298,8.693,8.7585,8.7035,5.3803,5.4171,5.5419,5.7567,5.8121,5.897,0.0,6.35,6.4682,6.7311,6.9549,7.1728,7.4253,7.6745,7.888,8.0298,8.3429,8.569,8.5629,8.7603,8.9265,8.9829,8.9735,8.9789,9.0261,9.0569,9.0795,9.0931,9.0795,9.0647,9.0414,9.0695,9.0816,9.0837,9.1144,9.1945,9.315,9.3282,9.3904,9.5013,9.5243,9.5659,9.6122,9.6261,9.664,9.7196,9.6447,9.5744,9.5089,9.4358,9.3254,9.1985,9.1882,9.0881,8.9433,8.9364,8.9364,8.9338,8.8329,8.8079,8.8096,8.7833,8.7712,8.7696,8.7967,8.8037,8.8046,8.8278,8.8329,8.8191,8.7467,8.7294,8.7122,8.6467,8.6811,8.7294,8.7294,8.7607,8.7701,8.7015,8.6705,8.6523,8.6471,8.6445,8.6161,8.5297,8.4932,8.4713,8.4686,8.5194,8.5532,8.5472,8.6434,8.6972,8.6616,8.5936,8.5491,8.5491,8.6158,8.6579,8.6579,8.6579,8.6895,8.762,8.686,8.6825,8.762,8.762,8.7691,8.7761,8.7866,8.6943,5.6107,5.6755,5.774,5.945,6.1012,6.2649,6.472,6.6489,6.8246,7.0393,7.2548,7.4873,7.7685,8.0006,8.2078,8.3876,8.5896,8.7508,8.8429,8.9209,8.9784,8.9904,8.9875,9.0119,9.0742,9.1077,9.1074,9.0667,9.1011,9.1074,9.0778,9.1146,9.1365,9.1365,9.151,9.2275,9.3688,9.3688,9.434,9.5703,9.651,9.7073,9.736,9.7738,9.7842,9.767,9.6848,9.6331,9.5986,9.5227,9.4537,9.3916,9.3503,9.2916,9.2157,9.0364,8.9709,8.9588,8.899,8.9188,8.9585,8.9168,8.894,8.8887,8.8835,8.8665,8.8476,8.8579,8.8605,8.8501,8.8191,8.8088,8.8019,8.7708,8.7881,8.8036,8.7857,8.7968,8.7922,8.7291,8.7098,8.6965,8.6812,8.6785,8.6656,8.6216,8.5802,8.5308,8.4674,8.5082,8.5678,8.631,8.7106,8.7526,8.7422,8.7094,8.6918,8.6918,8.7234,8.741,8.741,8.741,8.755,8.7901,8.7106,8.7106,8.7901,8.7445,8.7445,8.7901,8.7901,8.7095,5.7901,5.8955,6.0123,6.1616,6.3659,6.5686,6.7166,6.9081,7.1163,7.3321,7.5465,7.7837,8.0735,8.2958,8.4892,8.6516,8.7674,8.8805,9.0023,9.0004,8.9752,8.9383,8.9363,8.9707,9.0512,9.108,9.1294,9.1054,9.1649,9.1918,9.1712,9.1816,9.1867,9.1867,9.208,9.2849,9.4237,9.4643,9.5507,9.6859,9.7892,9.8353,9.8383,9.8891,9.8814,9.8291,9.7469,9.7124,9.7055,9.6089,9.5572,9.5331,9.4813,9.4303,9.3601,9.1441,9.0449,9.0137,8.9674,8.9941,9.0521,9.0207,9.0018,8.9888,8.9757,8.9483,8.9191,8.9191,8.9191,8.9157,8.895,8.8915,8.8846,8.8639,8.8691,8.8734,8.8491,8.8445,8.8335,8.7728,8.7559,8.7423,8.7239,8.7211,8.7211,8.7211,8.6901,8.6297,8.5286,8.5583,8.6235,8.7237,8.769,8.7901,8.7901,8.7901,8.7972,8.8182,8.8217,8.8288,8.8533,8.8533,8.8428,8.8217,8.7632,8.7597,8.8217,8.7597,8.7632,8.8217,8.8217,8.7526,5.8248,5.9802,6.1908,6.3986,6.5245,6.6751,6.9701,7.1169,7.2892,7.6275,7.8811,8.1165,8.3613,8.5821,8.7375,8.771,8.8957,8.9755,8.9457,8.9677,8.9644,8.8989,8.8646,8.8732,8.9497,9.0664,9.1706,9.2484,9.3158,9.3505,9.3542,9.2942,9.2594,9.2594,9.327,9.4305,9.5638,9.6987,9.8353,9.9767,9.9825,9.9825,9.9825,9.9883,9.9849,9.978,9.9055,9.8739,9.8607,9.709,9.6055,9.54,9.5365,9.4269,9.2777,9.2946,9.2314,9.1322,9.0304,9.0017,9.0044,9.0315,9.0388,9.0441,9.0672,9.0717,9.0743,9.0743,9.0743,9.0571,8.9847,8.9674,8.9502,8.8777,8.8949,8.9289,8.9289,8.9382,8.9245,8.8497,8.8176,8.7983,8.7955,8.7955,8.7955,8.7955,8.7955,8.76,8.6639,8.6843,8.7285,8.7831,8.7901,8.7901,8.7901,8.7901,8.8217,8.8931,8.8966,8.9317,9.009,9.0125,8.9774,8.8966,8.8931,8.8931,8.8966,8.8931,8.8931,8.8966,8.8966,8.8403,5.9579,6.1623,6.3919,6.5987,6.8116,7.0098,7.1783,7.3971,7.5831,7.655,7.8432,7.9974,8.0118,8.2387,8.4462,8.5315,8.7386,8.9067,8.965,9.001,8.9462,8.7484,8.7894,8.811,8.7503,8.9254,9.103,9.2494,9.2967,9.3308,9.3606,9.2974,9.2816,9.3258,9.353,9.4567,9.6432,9.735,9.8508,9.9883,9.9883,9.9883,9.9883,9.9883,9.9883,9.9849,9.909,9.8504,9.8049,9.7532,9.6814,9.6089,9.5572,9.531,9.5054,9.3429,9.2598,9.2104,9.076,9.0395,9.0494,9.0449,9.0521,9.068,9.0786,9.0812,9.0812,9.0812,9.0812,9.0743,9.0502,9.0433,9.0364,9.0123,9.005,8.9991,8.9803,8.9628,8.9366,8.8962,8.8783,8.8734,8.8734,8.8734,8.8564,8.8057,8.7583,8.7165,8.6813,8.7092,8.7379,8.7543,8.778,8.7901,8.7901,8.8358,8.8721,8.8966,8.9493,8.9914,9.0195,9.0195,8.9809,8.9001,8.9001,8.9001,8.9001,8.9001,8.9001,8.9001,8.9001,8.8462,6.1417,6.3726,6.6204,6.8532,7.0587,7.2366,7.3783,7.5544,7.6942,7.6886,7.777,7.8495,7.83,7.9678,8.1305,8.2787,8.4579,8.6424,8.8326,8.8593,8.8164,8.7008,8.7549,8.7639,8.684,8.8334,9.0158,9.212,9.3093,9.3717,9.3985,9.3574,9.3801,9.477,9.5048,9.5966,9.7582,9.8744,9.9706,10.0297,9.9987,9.9883,9.9883,9.9883,9.9883,9.9849,9.94,9.8917,9.8498,9.8222,9.7808,9.7227,9.6503,9.6447,9.6507,9.4427,9.3588,9.3271,9.1761,9.1147,9.1075,9.1297,9.148,9.164,9.164,9.1433,9.1226,9.1226,9.1226,9.1226,9.1226,9.1226,9.12,9.1094,9.0647,9.018,8.9881,8.9579,8.9295,8.9128,8.91,8.91,8.91,8.91,8.8965,8.8463,8.7989,8.7619,8.7483,8.7599,8.775,8.7949,8.792,8.8007,8.8288,8.8498,8.8826,8.9388,8.9633,9.002,9.0581,9.0581,9.023,8.9423,8.9669,8.9669,8.9423,8.9669,8.9669,8.9423,8.9423,8.879,6.3692,6.612,6.8737,7.1413,7.2614,7.363,7.5569,7.5998,7.628,7.7162,7.6826,7.6702,7.7848,7.7759,7.8197,8.0239,8.1055,8.2605,8.5974,8.592,8.6119,8.7698,8.7641,8.7472,8.7506,8.8072,8.9304,9.1461,9.3448,9.4648,9.4743,9.4712,9.5393,9.689,9.7542,9.8317,9.9085,10.1218,10.178,10.112,10.0395,9.9987,9.9883,9.9918,9.9918,9.9883,9.9883,9.9883,9.978,9.9124,9.8814,9.8739,9.8049,9.7574,9.7139,9.5943,9.5267,9.4707,9.3367,9.2303,9.1746,9.2766,9.3089,9.3089,9.3089,9.2606,9.2054,9.2054,9.2054,9.2054,9.2054,9.2019,9.1905,9.1609,9.0762,8.9915,8.9613,8.9329,8.9134,8.9168,8.9168,8.9168,8.9134,8.91,8.91,8.91,8.91,8.898,8.8579,8.8364,8.8457,8.8964,8.8381,8.8253,8.8931,8.8358,8.8604,9.009,8.9528,8.9774,9.1284,9.1354,9.1003,9.023,9.0897,9.0862,9.0125,9.0862,9.0862,9.0195,9.0195,8.9388,6.5836,6.8568,7.1229,7.246,7.3999,7.5384,7.5907,7.6204,7.5922,7.4462,7.3601,7.2675,7.1218,7.3292,7.6081,7.8651,8.2148,8.5481,8.8157,8.8592,8.8744,8.9028,8.8487,8.8321,8.8925,8.9118,8.9877,9.1493,9.2531,9.3827,9.5344,9.4964,9.5616,9.757,9.7805,9.8751,10.0508,10.1702,10.178,10.112,10.1401,10.0987,9.9918,10.0504,10.0499,9.9883,9.9883,9.9573,9.909,9.9469,9.9297,9.878,9.8573,9.8475,9.8314,9.7406,9.6337,9.5289,9.5461,9.429,9.2739,9.2993,9.3089,9.3089,9.3089,9.2985,9.2813,9.2813,9.2813,9.2813,9.2813,9.2238,9.1739,9.2269,9.1002,8.977,9.0265,8.9702,8.9269,8.9816,8.9918,8.9748,8.9201,8.91,8.91,8.91,8.91,8.9048,8.8946,8.9117,8.9285,8.9438,8.9036,8.8791,8.8966,8.8826,8.9142,9.0125,9.0511,9.1143,9.2161,9.2196,9.1564,9.023,9.0371,9.009,8.9317,9.009,9.0371,9.0195,9.0195,8.9669,6.86,7.077,7.2676,7.363,7.4738,7.5323,7.4461,7.4395,7.39,7.166,7.0398,6.938,6.8322,7.0363,7.3107,7.5815,7.9992,8.3839,8.6776,8.7939,8.8773,8.9738,8.9442,8.9353,8.99,9.0224,9.0983,9.2341,9.2816,9.3827,9.5597,9.5956,9.7092,9.9252,9.9649,10.0701,10.2609,10.2283,10.2189,10.212,10.2189,10.1603,10.0499,10.1194,10.1016,9.9918,0.0,9.9987,9.9297,9.9711,9.9642,9.9262,9.9262,9.9055,9.8774,9.836,9.7428,9.6428,9.6469,9.5675,9.4537,9.4192,9.4089,9.4089,9.4089,9.3882,9.3606,9.3606,9.3606,9.3579,9.3443,9.2962,9.2564,9.276,9.1367,9.0108,9.0403,8.9997,8.9782,9.0527,9.0696,9.056,9.0121,9.0053,9.0053,9.0053,9.0053,9.0053,9.0053,8.9784,8.9718,8.9975,8.971,8.9669,8.9985,8.9704,8.9844,9.0616,9.0757,9.1143,9.1916,9.2302,9.1775,9.023,9.1178,9.1003,8.9528,9.0301,9.0687,9.0652,9.0336,8.9949,7.1322,7.2768,7.366,7.483,7.5076,7.4491,7.2583,7.1906,7.1075,6.892,6.7537,6.6831,6.7348,6.8439,7.0251,7.3246,7.6816,8.0606,8.4503,8.6084,8.7815,9.0427,9.0464,9.0402,9.0819,9.1469,9.2353,9.3615,9.3879,9.4585,9.5913,9.7286,9.9009,10.121,10.2114,10.3192,10.4501,10.3086,10.2707,10.3298,10.2707,10.2017,10.1292,10.1913,10.1401,10.009,10.0809,0.0,9.9987,9.9923,9.9854,9.9883,9.9854,9.9372,9.8705,9.8849,9.8429,9.7635,9.6986,9.6745,9.6503,9.5675,9.54,9.54,9.54,9.4951,9.4461,9.4461,9.453,9.4482,9.4041,9.3896,9.3728,9.3191,9.1869,9.0703,9.055,9.0493,9.0662,9.1169,9.1372,9.1406,9.1305,9.1305,9.1305,9.1305,9.1203,9.1135,9.1135,9.0455,9.0132,9.0629,9.0517,9.0649,9.1248,9.0616,9.0511,9.1248,9.0687,9.0722,9.1564,9.2161,9.1916,9.0687,9.2512,9.2477,9.0511,9.1248,9.16,9.1564,9.0862,9.0511,7.2521,7.4122,7.5538,7.5784,7.5415,7.4615,7.3137,7.1292,6.9179,6.6893,6.6016,6.5497,6.5009,6.6928,7.0068,7.4636,7.7667,8.1423,8.7004,8.773,8.8977,9.2432,9.1144,9.0727,9.2692,9.3,9.3438,9.4289,9.55,9.6576,9.7398,9.8309,9.9796,10.2013,10.342,10.4189,10.4501,10.3604,10.3224,10.3298,10.3224,10.2677,10.1987,10.2091,10.1677,10.0913,10.0987,0.0,10.0814,9.9931,9.9685,9.9854,9.9656,9.8888,9.8049,9.9262,9.8877,9.7773,9.8256,9.8015,9.7256,9.5848,9.54,9.54,9.54,9.5296,9.5193,9.5193,9.5641,9.5896,9.4934,9.4544,9.4261,9.3888,9.2444,9.1328,9.1913,9.202,9.188,9.1372,9.1812,9.2049,9.1406,9.1305,9.1305,9.1305,9.0797,9.0391,9.0391,9.1181,9.1713,9.1651,9.148,9.1351,9.1294,9.0616,9.0511,9.1248,9.1178,9.174,9.312,9.2758,9.2653,9.2979,9.2793,9.2512,9.2091,9.2863,9.319,9.3155,9.2442,9.2091,7.3753,7.5015,7.6,7.6,7.5102,7.3532,7.0952,6.8778,6.6763,6.4712,6.4166,6.4166,6.4529,6.6829,6.9605,7.2486,7.5339,7.8944,8.3968,8.5091,8.68,9.0667,9.0401,9.0637,9.2537,9.3017,9.3863,9.5422,9.6534,9.7341,9.777,9.9277,10.1112,10.3385,10.4097,10.4501,10.4501,10.4121,10.3884,10.3884,10.3884,10.347,10.281,10.3224,10.281,10.1706,10.212,0.0,10.1608,10.1116,10.1007,10.109,10.0978,10.0077,9.8952,10.009,9.9567,9.8325,9.8705,9.8567,9.8084,9.698,9.66,9.66,9.66,9.6296,9.5951,9.5951,9.5805,9.5534,9.4881,9.4466,9.415,9.383,9.2808,9.1981,9.2324,9.2392,9.2392,9.2489,9.2793,9.2895,9.2556,9.2489,9.2624,9.2996,9.2455,9.2116,9.2489,9.2668,9.2371,9.1422,9.149,9.1705,9.1926,9.16,9.1705,9.2442,9.2512,9.3039,9.4198,9.4268,9.3882,9.3039,9.346,9.3285,9.2477,9.2442,9.2828,9.3576,9.2828,9.2477,7.4676,7.5723,7.6367,7.6277,7.4792,7.2457,6.8923,6.6658,6.4827,6.3114,6.2891,6.341,6.4672,6.6611,6.8557,7.0068,7.2364,7.5723,8.0725,8.2199,8.4335,8.8682,8.9617,9.0453,9.1928,9.2673,9.3875,9.5791,9.6626,9.757,9.8667,10.0393,10.229,10.441,10.4501,10.4501,10.4501,10.4294,10.4294,10.4501,10.4294,10.4018,10.3604,10.3988,10.3604,10.25,10.2987,0.0,0.0,10.2204,10.21,10.2194,10.21,10.1204,9.9987,10.0809,10.0194,9.9021,9.9021,9.9021,9.8917,9.836,9.798,9.7704,9.7704,9.729,9.6745,9.6745,9.61,9.5343,9.5064,9.4747,9.4393,9.4133,9.3334,9.2696,9.2865,9.2865,9.3098,9.3706,9.3943,9.4045,9.4045,9.4045,9.4214,9.4654,9.4214,9.3977,9.4417,9.3675,9.2689,9.1682,9.1889,9.2282,9.277,9.307,9.334,9.3671,9.3947,9.4373,9.5005,9.5426,9.49,9.325,9.4408,9.4443,9.3215,9.2583,9.2899,9.4067,9.3355,9.2969,7.4735,7.64,7.766,7.7044,7.4952,7.2275,6.9443,6.6798,6.4552,6.3106,6.3291,6.3937,6.4764,6.5103,6.6377,6.9763,7.0341,7.3153,8.1074,8.205,8.3875,8.9202,8.9751,9.0292,9.178,9.2601,9.3341,9.4082,9.5086,9.7471,10.1592,10.1987,10.2894,10.4479,10.4501,10.4501,10.4501,10.3811,10.3811,10.4501,10.3811,10.3811,10.4397,10.3707,10.3298,10.3194,10.3328,0.0,0.0,10.2072,10.1892,10.2194,10.1896,10.0993,9.9987,10.0809,10.0504,9.978,9.978,9.978,9.978,9.9711,9.878,9.7704,9.7704,9.767,9.7601,9.7601,9.7276,9.6892,9.6603,9.631,9.5986,9.5691,9.4518,9.3673,9.4349,9.4485,9.4518,9.4586,9.5127,9.5601,9.5601,9.5601,9.5398,9.4789,9.4654,9.4383,9.3774,9.2991,9.288,9.3987,9.3838,9.3695,9.3782,9.4875,9.5092,9.3947,9.504,9.5742,9.5813,9.5216,9.511,9.5602,9.5742,9.5742,9.5602,9.5532,9.5567,9.5672,9.4935,9.4609,7.498,7.68,7.7937,7.766,7.5131,7.2151,6.9998,6.6961,6.4362,6.3571,6.3598,6.4029,6.4764,6.4888,6.5299,6.6552,6.6536,6.8274,7.3786,7.4924,7.7674,8.4252,8.6026,8.7826,9.0822,9.1747,9.2618,9.3793,9.44,9.6479,10.0624,10.0894,10.2088,10.441,10.4501,10.4501,10.4501,10.419,10.419,10.4501,10.419,10.4225,10.4501,10.419,10.4018,10.4018,10.4018,0.0,0.0,10.3591,10.3483,10.3574,10.3419,10.2519,10.1297,10.1608,10.1016,9.9883,9.9883,9.9883,9.9883,9.9883,9.9193,9.836,9.836,9.836,9.8234,9.7586,9.7156,9.6837,9.6515,9.585,9.5306,9.5157,9.4687,9.4451,9.5195,9.5364,9.5364,9.5364,9.5601,9.5804,9.5804,9.5804,9.5838,9.6007,9.5635,9.5432,9.5597,9.4781,9.466,9.5701,9.4033,9.3173,9.398,9.4533,9.4963,9.5261,9.6213,9.6922,9.7322,9.7041,9.6374,9.5251,9.5672,9.5672,9.5251,9.4759,9.4759,9.5216,9.496,9.4549,7.4175,7.6302,7.769,7.769,7.5008,7.1905,7.0245,6.6963,6.415,6.3852,6.3814,6.4029,6.4764,6.4888,6.4894,6.4855,6.4521,6.5727,6.9843,7.0877,7.3522,7.9866,8.217,8.4743,8.8473,9.0507,9.2057,9.3146,9.3434,9.5204,9.8993,9.9332,10.102,10.441,10.4501,10.4501,10.4501,10.4501,10.4501,10.4501,10.4501,10.4501,10.4501,10.4501,10.4501,10.4501,10.4501,0.0,0.0,10.4501,10.4501,10.4501,10.4194,10.3298,10.2224,10.2017,10.0987,9.9883,9.9883,9.9883,9.9883,9.9883,9.9538,9.9055,9.8849,9.8952,9.8929,9.8095,9.7717,9.7401,9.6631,9.5853,9.5398,9.5635,9.5364,9.5229,9.5973,9.6108,9.6108,9.6108,9.6311,9.6447,9.6447,9.6447,9.6548,9.6849,9.665,9.6548,9.6883,9.63,9.6193,9.7006,9.4792,9.3776,9.5047,9.5675,9.6279,9.6835,9.7519,9.8058,9.8305,9.806,9.7041,9.5146,9.5883,9.6023,9.5462,9.4935,9.5075,9.5838,9.5567,9.5181,7.1745,7.4728,7.6983,7.6983,7.4491,7.1659,7.0213,6.6765,6.3814,6.3814,6.3814,6.4029,6.4764,6.4888,6.5103,6.578,6.5334,6.6756,7.2094,7.2302,7.3373,7.7382,7.9058,8.1153,8.4444,8.8933,9.1626,9.1626,9.1795,9.3568,9.7343,9.7721,9.9906,10.4379,10.4501,10.4501,10.4501,10.4501,10.4501,10.4501,10.4501,10.4501,10.4501,10.4501,10.4501,0.0,0.0,0.0,0.0,10.4501,10.4501,10.4397,10.3574,10.2914,10.212,10.1396,10.0602,9.9883,9.9883,9.9883,9.9883,9.9883,9.9883,9.9745,9.9021,9.9297,9.9825,9.947,9.9488,9.9149,9.735,9.6883,9.7086,9.78,9.6853,9.5973,9.6748,9.6883,9.6883,9.6883,9.7461,9.8003,9.8003,9.8003,9.7732,9.7018,9.7495,9.7732,9.7018,9.6883,9.7188,9.7901,9.665,9.6274,9.7459,9.9386,9.9933,9.856,9.9039,9.9043,9.8332,9.7533,9.6725,9.5918,9.6665,9.7086,9.7086,9.7051,9.7498,9.8261,9.7463,9.7051,6.8667,7.0985,7.2457,7.1997,7.0524,6.8858,6.7473,6.5442,6.3814,6.3814,6.3814,6.4029,6.4764,6.4888,6.5118,6.5796,6.5718,6.6185,6.7967,7.0719,7.3732,7.6749,8.2709,8.7137,8.8563,9.0059,9.0896,9.0896,9.1007,9.2707,9.6604,9.6887,9.8801,10.291,10.351,10.3694,10.3694,10.4189,10.4501,10.4501,10.4501,10.4501,10.4501,10.4501,10.4501,0.0,0.0,0.0,0.0,10.4292,10.4013,10.3707,10.3401,10.2504,10.1396,10.1189,10.0602,9.9883,9.9883,9.9883,9.9883,9.9883,9.9538,9.8986,9.8291,9.8946,9.9767,9.9273,9.9189,9.8871,9.7289,9.6917,9.6985,9.7191,9.6886,9.6751,9.7495,9.7664,9.7664,9.7664,9.7834,9.8003,9.8003,9.8003,9.7935,9.7698,9.7867,9.7935,9.7698,9.7664,9.7529,9.7258,9.765,9.7721,9.718,9.7707,9.8064,9.8021,9.8642,9.8851,9.8464,9.8212,9.7359,9.5928,9.6665,9.7086,9.7086,9.7086,9.7498,9.8296,9.8024,9.7919,6.582,6.7967,6.9183,6.915,6.8043,6.6807,6.606,6.4398,6.3168,6.3691,6.3598,6.3722,6.4703,6.4888,6.4998,6.5313,6.5234,6.558,6.6763,6.9935,7.3582,7.7466,8.3576,8.7796,8.8693,8.9849,9.0597,9.0597,9.0597,9.2204,9.5902,9.5834,9.7512,10.1519,10.229,10.2688,10.3007,10.3375,10.3883,10.4501,10.4501,10.4501,10.4501,10.4501,10.4501,0.0,0.0,0.0,0.0,10.3913,10.3599,10.3194,10.2707,10.1913,10.1085,10.0809,10.0297,9.9883,9.9883,10.009,10.0297,9.9987,9.9573,9.9055,9.836,9.8601,9.9205,9.971,9.9475,9.8815,9.7631,9.7292,9.7292,9.7292,9.7292,9.7428,9.7901,9.8003,9.8003,9.8003,9.8003,9.8003,9.8003,9.7766,9.7698,9.7969,9.7766,9.7698,9.7969,9.7766,9.7394,9.6951,9.7654,9.7817,9.6981,9.7609,9.8283,9.8899,9.9066,9.9187,9.9286,9.8719,9.7901,9.6831,9.7006,9.7367,9.7963,9.8551,9.8937,9.9174,9.9148,9.9208,0.0,6.5337,6.672,6.7565,6.6459,6.5198,6.545,6.3568,0.0,6.3383,6.3198,6.3198,6.458,6.4857,6.4808,6.4532,6.4343,6.5183,6.7999,7.0091,7.3582,7.9477,8.2402,8.4465,8.5731,8.8663,9.0477,9.0507,9.0477,9.183,9.5034,9.47,9.6081,9.9804,10.0713,10.1473,10.2296,10.2292,10.3005,10.4397,10.4501,10.4501,10.4397,10.4501,10.4501,0.0,0.0,10.4401,10.4397,10.3475,10.3194,10.2987,10.1573,10.1085,10.0913,10.0223,9.9883,9.9883,9.9952,10.0401,10.0913,10.009,9.9814,9.9642,9.909,9.8518,9.8399,10.0513,10.0122,9.8916,9.8206,9.8003,9.8003,9.8003,9.8003,9.8003,9.8003,9.8003,9.8003,9.8003,9.7969,9.7935,9.8003,9.7326,9.7056,9.78,9.7292,9.7056,9.7766,9.7292,9.6883,9.6849,9.6985,9.7052,9.6985,9.8778,10.0223,10.0696,10.0092,9.9979,10.0604,9.9165,9.8385,9.8402,9.7709,9.806,9.9499,10.1009,10.129,10.0684,10.0693,10.0806,5.9986,0.0,6.0657,6.0862,6.1274,6.1622,0.0,6.1743,6.1902,6.221,6.2552,6.3045,6.3906,6.4518,6.5059,6.5471,6.5935,6.664,6.7933,7.2781,7.8011,8.2978,8.5462,8.6898,8.7197,8.8394,8.9352,8.986,8.9441,9.0013,9.2018,9.363,9.4966,9.6055,9.7953,10.0012,10.242,10.2314,10.2696,10.3604,10.4225,10.419,10.3574,10.4225,10.4501,0.0,0.0,10.3298,10.3505,10.2507,10.1883,10.1603,10.1223,10.0676,10.0223,9.9952,9.9883,9.9987,10.0602,10.0504,10.0223,9.9952,9.9124,9.8532,10.0119,10.0098,9.9556,9.9522,9.9309,9.8916,9.8206,9.8003,9.8003,9.8003,9.8003,9.8003,9.8003,9.8003,9.8003,9.8003,9.7529,9.7326,9.7901,9.692,9.6311,9.7022,9.6514,9.6108,9.6277,9.665,9.668,9.6108,9.7563,9.8341,9.78,9.9174,10.0095,10.0309,10.048,10.0718,10.0816,9.9805,9.9255,9.9148,9.9534,9.9982,10.0298,10.1219,10.1606,10.1395,10.1395,10.1892,5.8067,5.8749,5.9308,5.9442,6.0062,6.0677,6.084,6.1107,6.144,6.1748,6.2306,6.2983,6.3691,6.4285,6.4741,6.499,6.5729,6.7306,7.0297,7.454,7.9141,8.4115,8.594,8.7137,8.8065,8.9023,8.9471,8.9273,8.9213,8.9701,9.1044,9.262,9.4055,9.5242,9.682,9.872,10.0903,10.0896,10.1483,10.2811,10.291,10.3096,10.3298,10.3409,10.3917,0.0,0.0,10.3113,10.3194,10.1912,10.1288,10.1085,10.0706,10.0119,9.9435,9.978,9.9676,9.9504,10.0326,9.9987,9.94,9.94,9.8762,9.82,9.9439,9.9616,9.9409,9.9462,9.9071,9.851,9.8104,9.8003,9.8003,9.8003,9.8003,9.8003,9.8003,9.8003,9.8003,9.8003,9.7394,9.7052,9.7428,9.6548,9.6041,9.6815,9.6244,9.6041,9.6717,9.6548,9.6345,9.6311,9.7664,9.8442,9.8037,9.9908,10.0987,10.0581,10.0904,10.1076,10.1295,10.0522,9.9844,9.9402,10.0193,10.0614,10.0587,10.129,10.2086,10.2898,10.2898,10.388,5.7057,5.8669,6.0136,6.0117,6.0418,6.0779,6.105,6.0884,6.0879,6.1524,6.2226,6.2929,6.3524,6.4273,6.4662,6.4297,6.5404,6.8236,7.3705,7.6185,7.9141,8.3846,8.5342,8.6629,8.8215,8.9471,8.9771,8.8753,8.9063,8.9591,9.0378,9.1656,9.3146,9.5051,9.6389,9.769,9.888,9.9147,10.0077,10.1793,10.1374,10.1809,10.2803,10.2498,10.3001,10.4121,0.0,0.0,10.2914,10.1499,10.0913,10.078,10.0223,9.9504,9.9021,9.9676,9.9435,9.8849,9.9366,9.9124,9.8642,9.8745,9.8406,9.8008,9.8249,9.8253,9.8383,9.9405,9.887,9.8003,9.8003,9.8003,9.8003,9.8003,9.8003,9.8003,9.8003,9.8003,9.8003,9.8003,9.7292,9.6781,9.6883,9.6074,9.5702,9.6477,9.6041,9.6074,9.736,9.6683,9.6379,9.6988,9.7935,9.851,9.851,10.0929,10.2187,10.1606,10.141,10.1498,10.1889,10.1194,10.0385,9.978,10.0482,10.0903,10.0798,10.1724,10.2907,10.4405,10.4402,10.592,5.7117,5.8828,6.0117,5.8817,5.9098,5.9734,5.9787,5.9967,6.0301,6.0913,6.1798,6.2578,6.2975,6.4927,6.6239,6.5401,6.7965,7.1762,7.6514,7.8938,8.0913,8.2866,8.5641,8.7287,8.7018,8.7706,8.8304,8.8663,8.7746,8.7237,8.7354,9.0563,9.2266,9.2004,9.5322,9.7194,9.7426,9.916,9.9858,9.958,10.0712,10.0984,10.0592,10.1804,10.2384,10.2504,0.0,10.1987,10.1396,10.0499,10.009,10.009,9.9952,9.9814,9.9745,9.9849,9.9435,9.8739,9.8222,9.798,9.798,9.8601,9.7718,9.6664,9.794,9.7501,9.6789,9.7601,9.7906,9.8003,9.8003,9.8003,9.8003,9.8003,9.8003,9.8003,9.8003,9.8003,9.8003,9.8003,9.6886,9.6176,9.6815,9.5259,9.418,9.4924,9.4958,9.4958,9.5195,9.665,9.7698,9.7834,9.966,10.091,10.091,10.229,10.3178,10.3075,10.2894,10.2509,10.1793,10.1587,10.15,10.1325,10.2097,10.2202,10.15,10.3223,10.412,10.4394,10.46,10.6098,5.6432,5.8055,5.9324,5.9441,6.0401,6.1346,6.1346,6.1183,6.1112,6.1385,6.2102,6.2948,6.3813,6.5896,6.8118,7.0054,7.176,7.3997,7.7328,7.8908,8.0464,8.2567,8.4743,8.624,8.6668,8.7616,8.8065,8.7646,8.7057,8.6728,8.6728,8.9643,9.1303,9.1294,9.5055,9.6929,9.6532,9.8239,9.8887,9.8551,9.8799,9.9142,9.9584,10.0298,10.1009,10.1716,0.0,10.1396,10.0987,10.0194,9.9676,9.9331,9.9745,9.94,9.8739,9.8739,9.8774,9.8607,9.7434,9.7055,9.7158,9.7952,9.7511,9.695,9.8284,9.8134,9.7511,9.7669,9.7584,9.7495,9.7901,9.8003,9.8003,9.8003,9.8003,9.8003,9.8003,9.8003,9.8003,9.8003,9.6819,9.6041,9.6781,9.5732,9.5161,9.6311,9.6142,9.6311,9.7498,9.7867,9.8307,9.9119,10.0506,10.1418,10.1418,10.2597,10.3385,10.3194,10.3226,10.2686,10.1719,10.2097,10.2308,10.2308,10.308,10.3291,10.2905,10.3911,10.5111,10.6484,10.6307,10.759,5.5498,5.6945,5.8333,5.9976,6.1315,6.2403,6.2996,6.2602,6.2276,6.3034,6.3544,6.4151,6.5218,6.7123,6.9909,7.4034,7.5116,7.6185,7.8406,7.9297,8.0561,8.2776,8.4295,8.5581,8.6608,8.7616,8.7856,8.6988,8.6479,8.627,8.6449,8.8644,9.0197,9.0789,9.4239,9.5803,9.524,9.6487,9.7278,9.7612,9.7204,9.7587,9.863,9.8955,9.9661,10.071,10.0791,10.0809,10.0809,9.9952,9.9297,9.8849,9.9607,9.909,9.7946,9.7773,9.7946,9.809,9.6917,9.64,9.6434,9.7601,9.742,9.7075,9.8351,9.833,9.7865,9.776,9.7326,9.7056,9.78,9.8003,9.8003,9.8003,9.8003,9.8003,9.8003,9.8003,9.8003,9.8003,9.6954,9.6244,9.6815,9.6413,9.6447,9.7563,9.7394,9.7834,9.9728,9.9119,9.9018,10.0305,10.1183,10.1816,10.2099,10.2979,10.35,10.3311,10.3292,10.2791,10.1684,10.2483,10.2905,10.2905,10.3782,10.4307,10.4396,10.5011,10.6412,10.8584,10.8198,10.9198,5.4375,5.5789,5.7366,5.9298,6.0037,6.0937,6.3362,6.3218,6.3384,6.6492,6.6911,6.673,6.6822,6.8749,7.1409,7.4781,7.6891,7.8924,8.1197,8.2088,8.2806,8.3538,8.5372,8.6569,8.6698,8.6788,8.7048,8.7586,8.591,8.5132,8.5731,8.7424,8.8704,8.9434,9.1761,9.2987,9.2921,9.3713,9.4774,9.6133,9.6714,9.7066,9.7196,9.85,9.9084,9.9074,9.9725,9.9987,9.9918,9.9193,9.8849,9.8849,9.9607,9.94,9.8636,9.7946,9.729,9.6641,9.6538,9.6055,9.5813,9.7986,9.7345,9.5998,9.7536,9.7057,9.6139,9.6781,9.6951,9.7056,9.78,9.8003,9.8003,9.8003,9.8003,9.8003,9.8003,9.8003,9.8003,9.8003,9.736,9.6849,9.6917,9.6883,9.6883,9.6985,9.7529,9.824,9.9051,9.9694,10.0405,10.1183,10.1995,10.2913,10.4089,10.4276,10.4224,10.4022,10.3903,10.3298,10.1781,10.2483,10.2905,10.2905,10.4379,10.5211,10.548,10.7084,10.8475,10.9694,10.9821,11.039,5.3636,5.5406,5.7132,5.8246,5.9457,6.1257,6.4516,6.5125,6.5617,6.7698,6.8516,6.9123,6.9966,7.2347,7.4841,7.6921,7.9272,8.1205,8.2275,8.3307,8.3906,8.3718,8.4743,8.5611,8.603,8.5701,8.5731,8.6419,8.4983,8.4346,8.5043,8.6231,8.7436,8.8574,9.0377,9.153,9.1993,9.2291,9.2921,9.3948,9.4668,9.5494,9.6391,9.6425,9.6844,9.762,9.7834,9.8399,9.9159,9.8429,9.8118,9.8153,9.8429,9.8636,9.8739,9.798,9.7532,9.7158,9.6676,9.6331,9.6337,9.7964,9.7631,9.6787,9.7909,9.7911,9.7499,9.7557,9.7597,9.7664,9.7935,9.8003,9.8003,9.8003,9.8003,9.8003,9.8003,9.7631,9.7563,9.851,9.7698,9.7357,9.8713,9.8578,9.8578,9.9525,9.9525,9.9829,10.1081,10.1081,10.1216,10.1995,10.2299,10.3012,10.431,10.4401,10.4283,10.398,10.3993,10.3502,10.2483,10.3186,10.3817,10.4309,10.5397,10.6297,10.701,10.7795,10.8991,11.0494,11.0199,11.0481,5.3791,5.5285,5.6908,5.8199,5.9575,6.1692,6.5847,6.673,6.7517,7.0423,7.088,7.1124,7.2276,7.4318,7.6254,7.7685,8.0339,8.2409,8.2724,8.3547,8.3936,8.3487,8.3995,8.4564,8.5043,8.4654,8.4684,8.5342,8.4175,8.3726,8.4346,8.5032,8.608,8.7497,8.8778,8.9837,9.0569,9.0999,9.1397,9.1662,9.2424,9.3649,9.5305,9.471,9.5102,9.6172,9.6304,9.7022,9.8108,9.755,9.7325,9.7325,9.7083,9.729,9.7641,9.7187,9.698,9.6945,9.6607,9.6275,9.6197,9.7517,9.7315,9.6705,9.7555,9.7888,9.7937,9.7726,9.7834,9.8003,9.8003,9.8003,9.8003,9.8003,9.8003,9.8003,9.8003,9.7597,9.7597,9.8848,9.8273,9.8138,9.9899,9.9999,10.0199,10.1183,10.0912,10.0982,10.2299,10.1925,10.169,10.2401,10.2502,10.2883,10.4005,10.428,10.4298,10.4114,10.3987,10.3677,10.2905,10.3607,10.4379,10.5187,10.6315,10.7301,10.842,10.8787,10.981,11.1386,11.0898,11.0913,5.4832,5.5439,5.658,5.9368,6.0425,6.2086,6.7329,6.7789,6.8902,7.5193,7.4405,7.2734,7.3397,7.4094,7.5075,7.655,7.9924,8.2439,8.2792,8.2806,8.2806,8.2806,8.3337,8.3688,8.3688,8.3688,8.3957,8.4654,8.3525,8.3038,8.3628,8.3794,8.4546,8.6045,8.6818,8.7522,8.8286,8.9743,9.0107,8.9379,9.0107,9.1629,9.3781,9.3708,9.4085,9.4783,9.5344,9.6003,9.6676,9.6525,9.6469,9.64,9.5675,9.5365,9.5365,9.54,9.54,9.5503,9.6227,9.579,9.5159,9.6704,9.6237,9.5229,9.6041,9.6549,9.6883,9.6883,9.7428,9.8003,9.8003,9.8003,9.8003,9.8003,9.8003,9.8003,9.8003,9.8003,9.8206,9.895,9.9085,9.9322,10.01,10.0878,10.1386,10.1386,10.1386,10.1722,10.2401,10.1925,10.169,10.2401,10.2502,10.2691,10.3385,10.4001,10.4292,10.4212,10.4079,10.3677,10.301,10.3607,10.4379,10.5187,10.7,10.8384,10.9415,11.0206,11.1096,11.2206,11.1978,11.1874,5.4148,5.6128,5.833,5.8486,6.1346,6.5112,6.9092,6.9731,7.095,7.6085,7.673,7.6206,7.5663,7.7465,7.8805,7.8051,8.0827,8.3093,8.3191,8.3347,8.3277,8.2866,8.2986,8.3217,8.3658,8.3337,8.3337,8.3927,8.3247,8.2687,8.238,8.283,8.3597,8.4589,8.5314,8.6276,8.7587,8.8018,8.8382,8.8617,8.8349,8.9641,9.2256,9.1714,9.182,9.2541,9.3204,9.4125,9.5172,9.559,9.571,9.5641,9.4917,9.4634,9.4703,9.5193,9.54,9.5503,9.6227,9.6197,9.588,9.6616,9.6062,9.52,9.5777,9.603,9.6108,9.6108,9.665,9.7225,9.7225,9.7597,9.8003,9.8003,9.8003,9.8003,9.8003,9.7597,9.7597,9.8848,9.9085,9.9491,10.0811,10.169,10.2198,10.2198,10.2198,10.2299,10.2502,10.2299,10.2299,10.2502,10.2502,10.2883,10.4001,10.431,10.4506,10.4884,10.4205,10.4009,10.452,10.4204,10.4478,10.5682,10.6995,10.8095,10.8779,10.9916,11.089,11.1978,11.1916,11.1789,5.6008,5.8005,6.0207,6.0894,6.3527,6.7003,7.104,7.3186,7.5094,7.7912,7.8132,7.7794,7.7646,7.8803,7.9622,7.9103,8.125,8.2889,8.2618,8.3033,8.3008,8.2118,8.2477,8.2866,8.2948,8.2828,8.2747,8.2589,8.2439,8.1878,8.0644,8.1519,8.2232,8.2742,8.3977,8.521,8.6408,8.7282,8.7753,8.7885,8.7753,8.8449,8.9904,8.9707,9.002,9.0714,9.1419,9.2419,9.36,9.3971,9.4104,9.3985,9.3537,9.3392,9.3495,9.4192,9.4675,9.5055,9.5813,9.5803,9.5509,9.5753,9.5234,9.4582,9.4849,9.5127,9.5364,9.5364,9.6108,9.6917,9.6917,9.7428,9.8003,9.8003,9.8003,9.8003,9.8003,9.7664,9.7766,9.9254,9.9559,9.9999,10.1589,10.1995,10.2198,10.2502,10.2502,10.2502,10.2502,10.2502,10.2502,10.2502,10.2693,10.3105,10.3793,10.431,10.4709,10.4873,10.3977,10.3811,10.4785,10.449,10.4886,10.6106,10.7796,10.891,10.9306,11.0302,11.1096,11.171,11.1699,11.1497,5.9159,6.0369,6.204,6.5108,6.6683,6.8668,7.3319,7.7354,8.006,7.9964,7.8934,7.8328,7.9418,7.8998,7.879,7.988,8.1311,8.2082,8.1509,8.208,8.2148,8.1003,8.1938,8.2417,8.1878,8.2357,8.2148,8.0823,8.1332,8.0853,7.8878,8.0075,8.0828,8.0921,8.2911,8.434,8.5009,8.7152,8.7852,8.7219,8.7885,8.7885,8.7319,8.7985,8.8683,8.944,9.0036,9.0977,9.2127,9.208,9.2056,9.1985,9.1847,9.1778,9.1882,9.2606,9.3399,9.4192,9.4958,9.4913,9.45,9.4471,9.4068,9.3601,9.3601,9.4079,9.462,9.462,9.5601,9.6748,9.6781,9.736,9.7935,9.8003,9.8003,9.8003,9.8003,9.8034,9.8502,9.9825,10.0095,10.0702,10.2093,10.179,10.1722,10.2401,10.25,10.2499,10.2399,10.2495,10.2494,10.2497,10.3003,10.3286,10.3073,10.4193,10.4698,10.4389,10.3579,10.3504,10.4309,10.4605,10.5314,10.6308,10.8895,11.0292,11.0196,11.1126,11.149,11.149,11.1309,11.1221,5.8259,6.0542,6.3416,6.5214,6.9854,7.4545,7.6642,7.8709,7.9868,7.9043,8.0035,8.1016,8.0659,8.1344,8.1809,8.1247,8.1617,8.1941,8.1819,8.1025,8.0734,8.1482,8.1362,8.1362,8.1751,8.1938,8.1452,8.0135,8.0644,8.0375,7.8878,8.0075,8.0828,8.0921,8.2911,8.4117,8.4328,8.6428,8.7153,8.6457,8.7186,8.7451,8.7319,8.7985,8.8683,8.9407,8.9502,9.0274,9.1466,9.1367,9.161,9.1882,9.0674,9.0192,9.0295,9.1019,9.1813,9.2648,9.3773,9.4298,9.4443,9.4179,9.3894,9.3601,9.3601,9.3706,9.3842,9.3842,9.4485,9.5296,9.5872,9.6582,9.7258,9.7867,9.8003,9.8003,9.8003,9.8367,9.8799,9.9106,9.9686,10.0402,10.1322,10.1396,10.1722,10.2401,10.2376,10.222,10.2002,10.2081,10.2186,10.2308,10.2721,10.32,10.3998,10.4406,10.4495,10.4286,10.3915,10.3989,10.4698,10.4791,10.5092,10.5681,10.8624,10.9905,10.9715,11.0695,11.1287,11.1287,11.1207,11.1221,5.9385,6.1837,6.5015,6.8332,7.2365,7.5877,7.7198,7.8616,7.9441,7.89,8.0049,8.1129,8.1017,8.1634,8.1967,8.1389,8.1522,8.1537,8.1023,8.0731,8.0535,8.0381,8.0614,8.0823,8.0823,8.1123,8.0764,7.9417,7.9956,7.9597,7.7951,7.9118,7.9689,7.9419,8.2073,8.3537,8.3579,8.5699,8.659,8.6192,8.6229,8.6229,8.6262,8.7322,8.7852,8.7882,8.8206,8.8906,8.985,9.0008,9.025,9.0414,8.9914,8.9467,8.9295,9.0398,9.0768,9.0945,9.2674,9.3233,9.318,9.3008,9.3225,9.3465,9.2692,9.2996,9.3503,9.3131,9.3842,9.489,9.5601,9.6345,9.7089,9.7834,9.8003,9.8003,9.8003,9.8245,9.8682,9.9325,9.9795,10.0399,10.1488,10.1718,10.1997,10.2303,10.2529,10.2626,10.2403,10.2283,10.2388,10.2802,10.2994,10.3401,10.4089,10.4496,10.4594,10.4392,10.3517,10.3295,10.4127,10.4384,10.5403,10.6997,10.9413,11.0481,11.0292,11.0903,11.1221,11.1221,11.1221,11.1221,6.0238,6.3044,6.6673,7.1721,7.4184,7.5723,7.7077,7.8185,7.8986,7.9232,7.9817,8.0432,8.1021,8.1113,8.1113,8.1113,8.1227,8.0993,8.0027,8.0368,8.0273,7.9094,7.9656,8.0045,7.9836,8.0195,7.9896,7.8549,7.9178,7.8723,7.6749,7.8011,7.8489,7.7831,8.1172,8.2892,8.2638,8.5038,8.606,8.5828,8.5335,8.5037,8.497,8.6295,8.659,8.606,8.6789,8.7474,8.8051,8.8582,8.8829,8.8821,8.9164,8.8915,8.8536,8.9778,8.9828,8.959,9.1535,9.2033,9.1795,9.1704,9.2483,9.3131,9.188,9.2455,9.3436,9.2793,9.3537,9.4721,9.5567,9.6244,9.6951,9.7919,9.8157,9.8157,9.8157,9.834,9.8845,9.9971,10.0301,10.0794,10.1903,10.2102,10.2317,10.2488,10.2711,10.2896,10.3,10.2696,10.2703,10.3398,10.3405,10.3613,10.4005,10.4492,10.4599,10.4087,10.3017,10.2781,10.3706,10.441,10.6108,10.9183,11.0419,11.1111,11.1221,11.1221,11.1221,11.1221,11.1221,11.1221,5.7567,6.2291,6.8183,7.2028,7.4892,7.7108,7.8493,7.8493,7.849,7.9724,8.0494,8.099,8.1082,8.1113,8.1113,8.1113,8.0863,8.0444,8.0001,7.8765,7.8377,7.9543,7.8274,7.7975,7.962,7.9357,7.8519,7.7167,7.822,7.8071,7.6125,7.7771,7.8489,7.7831,8.1172,8.2417,8.1184,8.4518,8.5563,8.4308,8.4838,8.4771,8.4175,8.5003,8.5335,8.5302,8.6026,8.6675,8.728,8.784,8.8354,8.8718,8.7994,8.7674,8.7605,8.7777,8.8459,8.94,9.0091,9.0986,9.1767,9.1448,9.1909,9.2493,9.2324,9.2895,9.3601,9.3499,9.3601,9.4045,9.5432,9.5872,9.6429,9.8326,9.8787,9.8787,9.8787,9.9645,10.0526,10.0687,10.1173,10.1787,10.2012,10.1901,10.211,10.3508,10.2803,10.2382,10.2792,10.2899,10.3115,10.3307,10.3581,10.3912,10.4371,10.4501,10.3979,10.2603,10.2884,10.3776,10.5197,10.5989,10.7818,11.0787,11.0406,11.0487,11.1221,11.1221,11.1221,11.1221,11.1221,11.1221,5.9743,6.3386,6.7607,7.2366,7.4461,7.5784,7.7539,7.7937,7.8275,7.926,8.0063,8.0525,8.0525,8.0867,8.1113,8.1113,8.0668,8.0077,7.9489,7.8728,7.8232,7.8106,7.7646,7.7556,7.8065,7.7861,7.7407,7.6838,7.7382,7.7322,7.645,7.7233,7.7526,7.7227,7.953,8.0814,8.0964,8.2875,8.3673,8.338,8.3711,8.3711,8.338,8.3711,8.4109,8.454,8.5268,8.5741,8.603,8.6623,8.6939,8.7069,8.6978,8.6877,8.6846,8.726,8.7564,8.7928,8.8958,8.9757,9.0251,9.011,9.1135,9.2257,9.1411,9.2319,9.3533,9.3064,9.3233,9.3939,9.5398,9.604,9.6742,9.8472,9.947,9.9964,9.9964,10.0108,10.04,10.0711,10.129,10.1897,10.2206,10.2201,10.2509,10.3393,10.3302,10.3211,10.3398,10.3293,10.3511,10.4085,10.3813,10.3907,10.4907,10.4712,10.4481,10.4697,10.3989,10.459,10.6709,10.6522,10.7606,11.0223,11.0514,11.0817,11.1221,11.1221,11.1221,11.1221,11.1221,11.1221,6.0589,6.3209,6.5922,7.1289,7.3131,7.4205,7.6489,7.7383,7.7937,7.8613,7.9167,7.957,7.957,8.0402,8.1052,8.0898,8.0432,7.9759,7.8855,7.8534,7.8014,7.6944,7.6963,7.6993,7.6808,7.6659,7.6569,7.6569,7.6689,7.6659,7.6335,7.6599,7.6719,7.6569,7.8152,7.9565,8.0712,8.1726,8.2455,8.2883,8.2883,8.2883,8.2883,8.2883,8.3215,8.3778,8.4506,8.4838,8.4867,8.5458,8.571,8.5743,8.6159,8.6329,8.6338,8.6839,8.6852,8.6744,8.7765,8.83,8.8564,8.8761,9.0053,9.144,9.0696,9.1812,9.3199,9.2827,9.3131,9.3935,9.537,9.6231,9.7116,9.8705,9.9941,10.0823,10.1025,10.0717,10.0485,10.0907,10.1411,10.1883,10.2596,10.2605,10.2704,10.3615,10.3802,10.3898,10.4105,10.3893,10.3995,10.4728,10.4094,10.4115,10.509,10.4797,10.501,10.5797,10.4686,10.4985,10.7488,10.6799,10.7419,10.9893,11.0791,11.1221,11.1221,11.1221,11.1221,11.1221,11.1221,11.1221,5.7398,6.0028,6.3101,6.7755,7.0784,7.3434,7.6358,7.7014,7.7229,7.7906,7.806,7.809,7.809,7.9755,8.0898,8.0248,8.0124,7.9575,7.8152,7.7441,7.7016,7.6824,7.5766,7.5497,7.6689,7.6305,7.5946,7.5946,7.645,7.6275,7.5048,7.6155,7.6539,7.5976,7.7938,7.9283,7.9953,8.1851,8.286,8.2883,8.2883,8.2883,8.2883,8.2883,8.2916,8.2983,8.3745,8.4076,8.4071,8.4661,8.5178,8.5709,8.5587,8.5848,8.6269,8.6052,8.6251,8.6555,8.6394,8.6643,8.7144,8.782,8.8598,8.954,9.0831,9.1812,9.2595,9.3334,9.3567,9.3888,9.5254,9.6145,9.7183,9.911,10.0217,10.1004,10.1513,10.1595,10.1595,10.1622,10.1684,10.2093,10.3295,10.2706,10.2705,10.453,10.3995,10.3608,10.4401,10.4707,10.4728,10.4496,10.4703,10.4728,10.4626,10.4802,10.4606,10.4008,10.4206,10.5178,10.7123,10.7205,10.8399,11.1096,11.1199,11.1221,11.1221,11.1221,11.1221,11.1221,11.1221,11.1221,5.6536,5.8292,6.0323,6.4693,6.7604,6.9908,7.1799,7.4046,7.5907,7.6585,7.7383,7.8121,7.8647,7.9293,7.9724,7.9509,7.9078,7.8409,7.7453,7.7107,7.6592,7.5691,7.5557,7.5557,7.5587,7.5377,7.5258,7.5258,7.5437,7.5377,7.4933,7.5318,7.5467,7.5258,7.5987,7.7309,7.9227,8.0846,8.2046,8.2883,8.2883,8.2883,8.2883,8.2883,8.2883,8.2916,8.3181,8.3281,8.3309,8.3507,8.4143,8.4971,8.4947,8.5472,8.6269,8.5992,8.6217,8.6555,8.6265,8.6507,8.7042,8.7753,8.8497,8.9404,9.0831,9.1812,9.2561,9.3368,9.3601,9.3888,9.5278,9.6423,9.7883,10.0403,10.1201,10.1404,10.1719,10.1711,10.1711,10.1711,10.1899,10.2204,10.249,10.2908,10.3283,10.3783,10.4009,10.419,10.4501,10.4591,10.4712,10.4703,10.4822,10.5001,10.5429,10.5095,10.5301,10.6196,10.5506,10.6218,10.8906,10.8498,10.9203,11.1199,11.1221,11.1221,11.1221,11.1221,11.1221,11.1221,11.1221,11.1221,5.5055,5.6337,5.8059,6.2081,6.4363,6.6369,6.8995,7.1618,7.3927,7.5381,7.6554,7.7537,7.8278,7.8401,7.8462,7.8709,7.8306,7.7706,7.6922,7.6723,7.6236,7.5202,7.5357,7.5377,7.4963,7.4903,7.4903,7.4903,7.4903,7.4903,7.4903,7.4903,7.4903,7.4903,7.5316,7.6429,7.8217,7.9991,8.1343,8.2252,8.2685,8.2883,8.2883,8.2883,8.2883,8.2883,8.2883,8.2883,8.2883,8.2883,8.3576,8.4599,8.4599,8.5239,8.6118,8.5865,8.5891,8.6049,8.5758,8.5857,8.6237,8.7008,8.7753,8.8632,9.0087,9.1068,9.1817,9.259,9.2996,9.3438,9.4483,9.629,9.8513,10.1092,10.1711,10.1711,10.1711,10.1711,10.1684,10.1602,10.1797,10.2009,10.1893,10.2503,10.2997,10.2909,10.3397,10.3811,10.4087,10.4212,10.4431,10.4917,10.5006,10.5109,10.5221,10.4889,10.5094,10.5892,10.5501,10.6291,10.8987,10.8903,10.9606,11.1221,11.1221,11.1221,11.1221,11.1221,11.1221,11.1221,11.1221,11.1272,0.0,0.0,0.0,5.9756,6.1153,6.3008,6.8021,6.9812,7.1278,7.4209,7.5414,7.6154,7.6829,7.6983,7.7198,7.7844,7.7967,7.7622,7.6646,7.6188,7.585,7.5414,7.5108,7.4903,7.4903,7.4903,7.4903,7.4903,7.4903,7.4903,7.4903,7.4903,7.4903,7.4903,7.616,7.689,7.6923,7.947,8.0806,8.0928,8.2223,8.2855,8.2883,8.2883,8.2883,8.2883,8.2883,8.2883,8.2883,8.2883,8.3576,8.4599,8.4573,8.5134,8.5865,8.5583,8.5299,8.5037,8.472,8.4614,8.4715,8.552,8.6298,8.7177,8.8632,8.9613,9.0357,9.1102,9.1846,9.2512,9.3065,9.574,9.8893,10.1114,10.1711,10.1711,10.1711,10.1711,10.1602,10.1399,10.1309,10.1395,10.1503,10.1492,10.1717,10.2115,10.2224,10.2401,10.3224,10.3497,10.4016,10.4679,10.5114,10.4924,10.3901,10.4101,10.3802,10.2807,10.3899,10.5425,10.7097,10.822,10.9511,11.1089,11.1221,11.1221,11.1221,11.1221,11.1221,11.1221,11.1221,11.1588,5.3022,0.0,0.0,0.0,0.0,0.0,6.0794,6.4189,6.7698,6.9913,7.2576,7.4922,7.6061,7.6644,7.7044,7.7229,7.726,7.7,7.6252,7.6085,7.5782,7.5108,7.4937,7.4903,7.4903,7.4903,7.4903,7.4903,7.4903,7.4903,7.4903,7.4903,7.4903,7.4903,7.5248,7.5926,7.686,7.764,7.8973,8.0896,8.1284,8.1959,8.2883,8.2883,8.2883,8.2883,8.2883,8.2883,8.2883,8.2883,8.3576,8.4573,8.4392,8.4951,8.584,8.5377,8.5142,8.5037,8.472,8.4614,8.4715,8.552,8.6298,8.7177,8.8632,8.9613,9.0357,9.1102,9.1846,9.2885,9.5025,9.6897,9.8753,10.0509,10.129,10.1711,10.1711,10.1513,10.1419,10.1302,10.1597,10.1706,10.148,10.1803,10.2105,10.2189,10.1677,10.1706,10.2431,10.211,10.21,10.2894,10.3195,10.3301,10.3005,10.3093,10.3095,10.3009,10.3181,10.4196,10.6193,10.7219,10.8478,11.0304,11.0891,11.1221,11.1221,11.1221,11.1221,11.1221,11.1221,11.1295,0.0,0.0,0.0,5.4594,0.0,0.0,5.9161,6.2055,6.508,6.8121,7.0863,7.3045,7.4122,7.4892,7.5415,7.5723,7.5754,7.5807,7.5965,7.6002,7.5728,7.4988,7.4789,7.4774,7.4873,7.4663,7.4604,7.4903,7.4903,7.4903,7.4903,7.4903,7.4903,7.4903,7.4903,7.5128,7.5634,7.6474,7.7549,7.884,7.9648,8.0777,8.2079,8.2079,8.2367,8.2883,8.2883,8.2883,8.2883,8.2883,8.3354,8.4062,8.415,8.4606,8.516,8.5116,8.5011,8.4853,8.4694,8.4614,8.4681,8.5148,8.6027,8.7008,8.7577,8.8666,8.9782,8.9884,9.0827,9.2416,9.5267,9.6444,9.7383,9.9569,10.0201,10.0509,10.1079,10.1003,10.0897,10.1073,10.1178,10.1179,10.0892,10.1069,10.1194,10.1194,10.0573,10.0504,10.1603,10.112,10.1109,10.2297,10.2611,10.2589,10.2208,10.2208,10.2092,10.1785,10.1976,10.3075,10.5212,10.6196,10.7694,11.001,11.0487,11.0891,11.1221,11.1221,11.1221,11.1221,11.1221,11.1405,0.0,0.0,0.0,0.0,5.4903,0.0,6.0151,6.1439,6.2881,6.696,6.9024,7.0401,7.123,7.1967,7.2706,7.3351,7.3566,7.4181,7.5627,7.5841,7.5592,7.4916,7.4529,7.4406,7.4757,7.418,7.4031,7.4599,7.4693,7.4723,7.4783,7.4723,7.4693,7.4693,7.4753,7.4484,7.3791,7.5637,7.6331,7.5818,7.7684,7.9281,8.059,8.0655,8.1401,8.2685,8.2685,8.277,8.2883,8.2883,8.308,8.3382,8.3933,8.4184,8.4265,8.4826,8.4853,8.4614,8.4614,8.4614,8.4614,8.4614,8.5594,8.667,8.5993,8.7306,8.8897,8.8361,8.9485,9.1468,9.4392,9.5044,9.5602,9.8376,9.8656,9.8683,9.9991,10.01,10.0116,10.0607,10.0507,10.0298,9.9976,9.9883,9.9883,9.9883,9.9193,9.9257,10.0809,10.0223,10.0379,10.219,10.2393,10.2116,10.1388,10.1319,10.0927,9.9981,10.0802,10.2219,10.4104,10.5188,10.6998,10.9716,10.99,11.0377,11.1221,11.1221,11.1221,11.1221,11.1221,11.1588,0.0,0.0,0.0,0.0,0.0,0.0,5.5196,5.7053,5.9074,6.0531,6.3296,6.5798,6.7095,6.8304,6.9275,6.9946,7.0921,7.2324,7.4504,7.4804,7.4724,7.4523,7.397,7.3744,7.4065,7.3492,7.3163,7.3283,7.3283,7.3522,7.4061,7.3582,7.3283,7.3283,7.3821,7.3762,7.3103,7.4001,7.4673,7.5109,7.6044,7.7182,7.852,7.9029,8.0021,8.1284,8.1284,8.1901,8.2883,8.2883,8.308,8.3321,8.3747,8.4021,8.4238,8.4587,8.4667,8.4614,8.4614,8.4614,8.4614,8.4614,8.5249,8.5993,8.5824,8.6907,8.8429,8.9478,9.027,9.1226,9.3054,9.46,9.5848,9.6445,9.7463,9.8402,9.8683,9.8784,9.9005,9.9751,10.0194,10.0298,9.9976,9.9883,9.9883,9.9883,9.8774,9.8463,9.9918,9.8981,9.8705,10.0281,10.0384,10.0413,10.0177,10.0177,10.0079,9.9883,10.0114,10.1204,10.3198,10.4213,10.5716,10.8006,10.9276,11.0377,11.1221,11.1221,11.1221,11.1221,11.1221,11.1295,0.0,0.0,0.0,5.2045,0.0,0.0,0.0,5.625,5.7686,5.8813,6.0468,6.2219,6.3854,6.4715,6.5671,6.7301,6.824,6.9276,7.0795,7.3026,7.4339,7.395,7.3484,7.3315,7.3614,7.2874,7.2535,7.286,7.2924,7.3073,7.3402,7.3103,7.2924,7.2924,7.3223,7.3073,7.2415,7.3073,7.341,7.3406,7.4074,7.528,7.69,7.7243,7.8313,7.993,8.0597,8.1284,8.1959,8.2628,8.2883,8.2935,8.3554,8.3884,8.4014,8.4419,8.4614,8.4614,8.4614,8.4614,8.4614,8.4614,8.5148,8.575,8.5317,8.6264,8.7685,8.8801,8.971,9.0681,9.2138,9.3416,9.4639,9.5631,9.6234,9.6786,9.7533,9.7507,9.7566,9.8393,9.911,9.9642,9.9878,9.9883,9.978,9.94,9.8542,9.8122,9.8705,9.7955,9.7845,9.9222,9.9331,9.9504,9.9849,9.9883,9.9883,9.9883,10.0387,10.1419,10.2984,10.4008,10.5516,10.7587,10.9187,11.0193,11.0597,11.1001,11.1221,11.1221,11.1221,11.1221,0.0,0.0,0.0,0.0,0.0,5.3353,0.0,0.0,0.0,5.8061,5.8632,5.9367,6.0886,6.1405,6.2283,6.4338,6.529,6.5958,6.649,7.0187,7.2722,7.238,7.2195,7.2215,7.2548,7.1561,7.1427,7.2624,7.2235,7.2176,7.2684,7.2595,7.2535,7.2535,7.2654,7.2385,7.1697,7.2385,7.2385,7.1697,7.2385,7.3584,7.5121,7.5275,7.6418,7.8408,7.9738,8.0528,8.1017,8.2338,8.2798,8.2737,8.3499,8.3714,8.3708,8.4366,8.4614,8.4614,8.4614,8.4614,8.4614,8.4614,8.5046,8.5486,8.5155,8.5797,8.6907,8.7922,8.8912,8.9996,9.1335,9.2339,9.3371,9.4913,9.5005,9.5146,9.6409,9.6153,9.6035,9.6966,9.782,9.8642,9.9504,9.9814,9.9671,9.8969,9.8407,9.8042,9.7902,9.7412,9.7474,9.8577,9.8658,9.89,9.9429,9.9607,9.9676,9.9676,10.0809,10.1973,10.3105,10.4285,10.58,10.7587,10.8894,10.9701,10.9995,11.0707,11.0979,11.1221,11.1221,11.1221,0.0,0.0,0.0,0.0,5.2125,0.0,0.0,0.0,5.4887,5.5078,0.0,5.7589,5.7819,0.0,0.0,5.9837,6.1644,6.3077,6.3143,6.5363,6.7395,6.8506,6.8789,6.9063,6.9461,6.8317,6.8794,7.1787,6.9873,6.9574,7.1876,7.1457,7.1128,7.1128,7.1697,7.1697,7.1009,7.1667,7.1667,7.1009,7.1697,7.2125,7.2379,7.2947,7.4342,7.6324,7.7652,7.9263,8.1017,8.2338,8.3192,8.3665,8.3747,8.3604,8.3432,8.4285,8.4614,8.4614,8.4614,8.4614,8.4614,8.4614,8.4647,8.4952,8.6237,8.6298,8.6359,8.8423,8.8939,8.9236,9.0585,9.2339,9.3641,9.302,9.3847,9.483,9.5005,9.4606,9.4573,9.6061,9.6573,9.7227,9.8676,9.9469,9.9728,9.9225,9.8548,9.8174,9.8361,9.7817,9.7569,9.8132,9.8173,9.8096,9.7946,9.8567,9.8917,9.8917,10.0495,10.1973,10.3105,10.5099,10.66,10.7609,10.7792,10.86,10.9995,11.0083,11.0487,11.1221,11.1221,11.1221,0.0,0.0,0.0,0.0,0.0,0.0,0.0,0.0,5.3113,0.0,0.0,0.0,0.0,0.0,0.0,0.0,5.9759,6.0262,6.0266,6.1572,6.3724,6.7034,6.7002,6.6853,6.724,6.7425,6.7968,6.8975,6.8531,6.8803,7.0173,7.032,7.053,7.0889,7.1158,7.1188,7.0889,7.1188,7.1188,7.0889,7.1188,7.1517,7.1906,7.2176,7.2986,7.4249,7.6013,7.7684,7.9293,8.1033,8.2419,8.3526,8.372,8.3911,8.4096,8.4446,8.4614,8.4614,8.4614,8.4614,8.4614,8.4614,8.4614,8.4715,8.5358,8.5689,8.5987,8.6934,8.7437,8.8055,8.9741,9.1472,9.2973,9.3671,9.4654,9.5321,9.4865,9.4362,9.4008,9.4182,9.5119,9.5917,9.6152,9.7158,9.787,9.7673,9.7148,9.6747,9.6719,9.696,9.7223,9.7432,9.8096,9.8495,9.8552,9.9101,9.9435,9.9435,10.1325,10.2894,10.4012,10.5611,10.6617,10.6911,10.7807,10.8578,10.9312,11.0193,11.0891,11.1221,11.1221,11.1221,4.9012,0.0,0.0,0.0,0.0,0.0,0.0,0.0,0.0,0.0,0.0,0.0,0.0,0.0,0.0,0.0,0.0,5.8144,5.8071,5.8734,6.0651,6.4497,6.4714,6.4808,6.5351,6.6008,6.6521,6.6822,6.7124,6.7725,6.8676,6.9363,6.9991,7.062,7.0799,7.0889,7.0889,7.0889,7.0889,7.0889,7.0889,7.1158,7.1607,7.1607,7.1996,7.2721,7.456,7.599,7.7244,7.9432,8.1233,8.2659,8.3281,8.3961,8.4614,8.4614,8.4614,8.4614,8.4614,8.4614,8.4614,8.4614,8.4614,8.4647,8.485,8.5351,8.5885,8.6264,8.6771,8.762,8.9516,9.0977,9.2338,9.3831,9.4724,9.5146,9.4584,9.3872,9.3277,9.2894,9.3872,9.4606,9.4054,9.5537,9.6704,9.6373,9.6221,9.5992,9.5675,9.6324,9.6752,9.667,9.7445,9.8087,9.8435,9.8963,9.9579,10.0302,10.1901,10.3386,10.4588,10.559,10.6213,10.6376,10.7792,10.8578,10.8799,11.0193,11.1001,11.1221,11.1221,11.1221,0.0,0.0,0.0,0.0,0.0,0.0,0.0,0.0,5.3412,0.0,0.0,0.0,0.0,0.0,0.0,0.0,0.0,0.0,0.0,5.6946,5.7852,5.9613,6.1234,6.2677,6.3849,6.3165,6.3719,6.6222,6.5288,6.5621,6.7898,6.8645,6.9333,7.0023,7.059,7.0889,7.0889,7.0889,7.0889,7.0889,7.0889,7.0919,7.0949,7.0949,7.1308,7.2005,7.3368,7.4371,7.521,7.779,7.9675,8.0983,8.2233,8.349,8.4614,8.4614,8.4614,8.4614,8.4614,8.4614,8.4614,8.4614,8.4614,8.4749,8.552,8.5784,8.6095,8.7516,8.7955,8.8401,9.028,9.133,9.2026,9.2475,9.3144,9.3646,9.3646,9.2649,9.1989,9.2685,9.2979,9.3158,9.3123,9.5641,9.7236,9.6026,9.6497,9.678,9.6251,9.6174,9.6128,9.5866,9.5881,9.6083,9.6531,9.7325,9.8833,10.1322,10.1821,10.2788,10.4588,10.5005,10.5495,10.6397,10.7205,10.7991,10.8799,10.9606,11.0414,11.1221,11.1221,11.1221,0.0,0.0,5.324,5.1029,0.0,0.0,0.0,0.0,0.0,0.0,0.0,0.0,0.0,0.0,0.0,0.0,0.0,0.0,0.0,5.6434,5.7118,5.8098,6.0306,6.1262,6.0177,6.1748,6.2865,6.2892,6.3876,6.4959,6.5951,6.7478,6.8676,6.9303,7.035,7.0889,7.0889,7.0889,7.0889,7.0889,7.0889,7.0889,7.0889,7.0889,7.1009,7.1281,7.2189,7.3204,7.4372,7.5931,7.7943,8.0143,8.0768,8.22,8.393,8.4411,8.4614,8.4614,8.4614,8.4614,8.4614,8.4614,8.4614,8.4749,8.5554,8.5817,8.5993,8.7008,8.7279,8.7613,8.9107,9.0074,9.0987,9.2363,9.3281,9.3716,9.338,9.2872,9.2286,9.1897,9.2112,9.2364,9.2364,9.3641,9.4841,9.5434,9.5358,9.5316,9.5633,9.6083,9.6456,9.6573,9.6885,9.7182,9.7543,9.7651,9.8348,9.9884,10.0686,10.2023,10.3805,10.4713,10.5495,10.6397,10.7697,10.8505,10.8799,11.012,11.0891,11.1221,11.1221,11.1221,5.3397,5.3858,0.0,0.0,5.2279,0.0,0.0,0.0,0.0,0.0,0.0,0.0,0.0,0.0,0.0,0.0,0.0,0.0,0.0,5.6567,5.7278,5.7332,5.887,5.9672,5.9021,6.0455,6.1476,6.1601,6.2762,6.3906,6.4964,6.646,6.7718,6.8615,6.9662,7.0231,7.0231,7.047,7.047,7.0231,7.0679,7.0799,7.059,7.0799,7.0889,7.0919,7.1368,7.2008,7.2938,7.4157,7.6223,7.8706,7.9504,8.1155,8.3186,8.3964,8.4377,8.4614,8.4614,8.4614,8.4614,8.4614,8.4614,8.4681,8.5215,8.5554,8.6122,8.7651,8.7719,8.7789,8.986,9.0161,9.0356,9.201,9.2755,9.3041,9.2869,9.2586,9.2191,9.1421,9.1679,9.1985,9.1985,9.2606,9.3537,9.4813,9.4572,9.4599,9.5296,9.5813,9.6207,9.6401,9.6712,9.707,9.7508,9.7616,9.8278,9.956,10.0392,10.1701,10.3805,10.4713,10.6486,10.9312,10.8982,10.979,11.1808,11.1405,11.1221,11.1221,11.1221,11.1221]}]]